[[[{"header":{"parameterUnit":"kt","parameterCategory":2,"dx":1,"dy":1,"la1":29.587661999999998,"la2":31.0,"lo1":-88.76705300000003,"lo2":-86.6583820000003,"nx":115,"ny":88,"refTime":"2022-10-29T18:00:00:Z","depth":0,"parameterNumber":1,"parameterNumberName":"U-component_of_WINDS"},"data":[8.0253,8.0253,8.0253,8.0253,8.0253,8.0253,8.0253,8.0253,8.0253,8.0253,8.0253,8.0253,8.0253,8.0253,8.0253,8.0253,8.0253,8.0253,8.0253,8.0253,8.0205,8.0205,8.0156,8.001,7.9936,7.9691,7.9324,7.8758,7.8585,7.8412,7.7965,7.7195,7.624,7.5212,7.4113,7.2821,7.1843,7.1354,7.1086,7.079,7.079,7.079,7.079,7.079,7.079,7.079,7.079,7.079,7.079,7.079,7.079,7.079,7.079,7.079,7.079,7.079,7.079,7.079,7.079,7.079,7.079,7.079,7.079,7.079,7.079,7.079,7.079,7.079,7.079,7.079,7.079,7.079,7.079,7.079,7.079,7.079,7.079,7.079,7.079,7.079,7.079,7.079,7.079,7.079,7.079,7.079,7.079,7.079,7.079,7.079,7.079,7.079,7.079,7.079,7.079,7.079,7.079,7.079,7.079,7.079,7.0765,7.0741,7.0353,6.9941,6.9457,6.8677,6.7896,6.6921,6.6134,6.5378,6.4688,6.437,6.4346,6.4346,6.4346,8.0253,8.0253,8.0253,8.0253,8.0253,8.0253,8.0253,8.0253,8.0253,8.0253,8.0253,8.0253,8.0253,8.0253,8.0253,8.0253,8.0253,8.0253,8.0253,8.0253,8.0253,8.0253,8.0253,8.0253,8.0205,8.0058,7.9961,7.9593,7.9127,7.9028,7.8634,7.7768,7.6904,7.5995,7.4919,7.365,7.2329,7.1936,7.1379,7.0961,7.079,7.079,7.0765,7.0765,7.079,7.079,7.079,7.079,7.079,7.079,7.079,7.079,7.079,7.079,7.079,7.079,7.079,7.079,7.079,7.079,7.079,7.079,7.079,7.079,7.079,7.079,7.079,7.079,7.079,7.079,7.079,7.079,7.079,7.079,7.079,7.079,7.079,7.079,7.079,7.079,7.079,7.079,7.079,7.079,7.079,7.079,7.079,7.079,7.079,7.079,7.079,7.079,7.079,7.079,7.079,7.079,7.079,7.079,7.079,7.079,7.0597,7.0039,6.9554,6.9262,6.8457,6.7506,6.6744,6.6159,6.5475,6.4761,6.4419,6.4346,6.4346,6.4346,6.4346,8.0253,8.0253,8.0253,8.0253,8.0253,8.0253,8.0253,8.0253,8.0253,8.0253,8.0253,8.0253,8.0253,8.0253,8.0253,8.0253,8.0253,8.0253,8.0253,8.0253,8.0253,8.0253,8.0253,8.0253,8.0253,8.0253,8.0205,8.0058,7.947,7.9421,7.925,7.8436,7.804,7.7297,7.6359,7.5354,7.4128,7.2804,7.2009,7.1515,7.1132,7.0949,7.0811,7.0924,7.0903,7.079,7.079,7.079,7.079,7.079,7.079,7.079,7.079,7.079,7.079,7.079,7.079,7.079,7.079,7.079,7.079,7.079,7.079,7.079,7.079,7.079,7.079,7.079,7.079,7.079,7.079,7.079,7.079,7.079,7.079,7.079,7.079,7.079,7.079,7.079,7.079,7.079,7.079,7.079,7.079,7.079,7.079,7.079,7.079,7.079,7.079,7.079,7.079,7.079,7.079,7.079,7.0716,7.0741,7.079,7.0594,7.0207,6.9457,6.8656,6.8091,6.7335,6.6476,6.5866,6.5353,6.4737,6.4468,6.4395,6.4346,6.4346,6.4346,6.4346,8.0253,8.0253,8.0253,8.0253,8.0253,8.0253,8.0253,8.0253,8.0253,8.0253,8.0253,8.0253,8.0253,8.0253,8.0253,8.0253,8.0253,8.0253,8.0253,8.0253,8.0253,8.0253,8.0253,8.0253,8.0253,8.0253,8.0205,8.0107,7.9838,7.9691,7.9446,7.8955,7.8806,7.8359,7.7491,7.6701,7.5324,7.3679,7.3191,7.2935,7.216,7.1659,7.1178,7.129,7.1128,7.0995,7.0903,7.0857,7.079,7.079,7.079,7.079,7.079,7.079,7.079,7.079,7.079,7.079,7.079,7.079,7.079,7.079,7.079,7.079,7.079,7.079,7.079,7.079,7.079,7.079,7.079,7.079,7.079,7.079,7.079,7.079,7.079,7.079,7.079,7.079,7.079,7.079,7.079,7.079,7.079,7.079,7.079,7.079,7.079,7.079,7.079,7.079,7.079,7.0692,7.079,7.0741,7.0402,7.0378,7.0133,6.9962,6.984,6.8941,6.7969,6.7164,6.6408,6.5768,6.5134,6.4712,6.459,6.4444,6.4346,6.4346,6.4346,6.4346,6.4346,8.0253,8.0253,8.0253,8.0253,8.0253,8.0253,8.0253,8.0253,8.0253,8.0253,8.0253,8.0253,8.0253,8.0253,8.0253,8.0253,8.0253,8.0253,8.0253,8.0253,8.0253,8.0253,8.0253,8.0253,8.0253,8.0253,8.0253,8.0205,8.0156,8.0058,7.9838,7.947,7.9446,7.9199,7.8529,7.7809,7.6596,7.5188,7.4888,7.4436,7.3584,7.2618,7.1972,7.2087,7.1836,7.1448,7.1356,7.1107,7.079,7.079,7.079,7.0836,7.0811,7.0765,7.079,7.079,7.079,7.079,7.079,7.079,7.079,7.079,7.079,7.079,7.079,7.079,7.079,7.079,7.079,7.079,7.079,7.079,7.079,7.079,7.079,7.079,7.079,7.079,7.079,7.079,7.079,7.079,7.079,7.079,7.079,7.079,7.079,7.079,7.079,7.079,7.079,7.079,7.0548,7.0329,7.0304,7.0011,6.9844,6.96,6.9213,6.8994,6.8746,6.8062,6.7213,6.6408,6.5646,6.4987,6.4712,6.4566,6.4419,6.4346,6.4346,6.4346,6.4346,6.4346,6.4346,8.0253,8.0253,8.0253,8.0253,8.0253,8.0253,8.0253,8.0253,8.0253,8.0253,8.0253,8.0253,8.0253,8.0253,8.0253,8.0253,8.0253,8.0253,8.0253,8.0253,8.0253,8.0253,8.0253,8.0253,8.0253,8.0253,8.0253,8.0253,8.0253,8.0205,8.0205,7.9936,7.9961,7.9863,7.959,7.8967,7.7848,7.715,7.6499,7.5767,7.4747,7.3587,7.3789,7.4034,7.3805,7.3602,7.3487,7.3443,7.2624,7.1724,7.1223,7.1132,7.1107,7.0833,7.0765,7.079,7.079,7.079,7.079,7.079,7.079,7.079,7.079,7.079,7.079,7.079,7.079,7.079,7.079,7.079,7.079,7.079,7.079,7.079,7.079,7.079,7.079,7.079,7.079,7.079,7.079,7.079,7.079,7.079,7.079,7.079,7.079,7.079,7.079,7.0597,7.05,7.0402,7.0158,6.9722,6.9286,6.8945,6.8603,6.8262,6.8091,6.7896,6.7579,6.7086,6.6476,6.572,6.4981,6.4737,6.4517,6.437,6.4346,6.4346,6.4346,6.4346,6.4346,6.4346,6.4346,8.0253,8.0253,8.0253,8.0253,8.0253,8.0253,8.0253,8.0253,8.0253,8.0253,8.0253,8.0253,8.0253,8.0253,8.0253,8.0253,8.0253,8.0253,8.0253,8.0253,8.0253,8.0253,8.0253,8.0253,8.0253,8.0253,8.0253,8.0253,8.0253,8.0253,8.0253,8.0253,8.0205,8.0205,8.0277,8.0443,7.9644,7.8871,7.81,7.7264,7.6139,7.4841,7.5241,7.551,7.5324,7.4837,7.4706,7.4636,7.3557,7.2424,7.177,7.1563,7.1518,7.1153,7.0924,7.0949,7.0836,7.079,7.079,7.079,7.079,7.079,7.079,7.079,7.079,7.079,7.079,7.079,7.079,7.079,7.079,7.079,7.079,7.079,7.079,7.079,7.079,7.079,7.079,7.079,7.079,7.079,7.079,7.079,7.079,7.079,7.079,7.079,7.0692,7.0255,7.0015,6.9819,6.9478,6.8701,6.8262,6.7969,6.7482,6.7043,6.6994,6.6891,6.6427,6.5988,6.5622,6.5225,6.4761,6.4492,6.4346,6.4346,6.4346,6.4346,6.4346,6.4346,6.4346,6.4346,6.4346,8.0253,8.0253,8.0253,8.0253,8.0253,8.0253,8.0253,8.0253,8.0253,8.0253,8.0253,8.0253,8.0253,8.0253,8.0253,8.0253,8.0253,8.0253,8.0253,8.0253,8.0253,8.0253,8.0253,8.0253,8.0253,8.0253,8.0253,8.0253,8.0253,8.0253,8.0253,8.0253,8.0568,8.0784,8.1385,8.1908,8.2063,8.0917,8.0,7.8998,7.8202,7.6718,7.694,7.73,7.7347,7.6906,7.6374,7.5943,7.4592,7.3182,7.2314,7.2223,7.1951,7.1609,7.1427,7.1244,7.0949,7.0857,7.0765,7.079,7.079,7.0857,7.0811,7.079,7.079,7.079,7.079,7.079,7.079,7.079,7.079,7.079,7.079,7.079,7.079,7.079,7.079,7.079,7.079,7.079,7.079,7.079,7.079,7.079,7.079,7.0692,7.0475,7.0451,7.0088,6.9722,6.9136,6.8965,6.8384,6.7677,6.7335,6.7067,6.6579,6.5988,6.5915,6.5817,6.5176,6.4663,6.4785,6.481,6.4468,6.4346,6.4346,6.4346,6.4346,6.4346,6.4346,6.4346,6.4346,6.4346,6.4346,8.0253,8.0253,8.0253,8.0253,8.0253,8.0253,8.0253,8.0253,8.0253,8.0253,8.0253,8.0253,8.0253,8.0253,8.0253,8.0253,8.0253,8.0253,8.0253,8.0253,8.0253,8.0253,8.0253,8.0253,8.0519,8.0253,8.0253,8.0351,8.0471,8.0351,8.0253,8.0568,8.1529,8.1838,8.2783,8.3883,8.4579,8.3683,8.2228,8.1178,8.0422,7.9845,7.9425,7.9856,8.015,8.0179,7.9698,7.8968,7.8021,7.5683,7.4424,7.39,7.2834,7.2133,7.17,7.1402,7.1153,7.1016,7.0924,7.0903,7.1448,7.1493,7.0833,7.0765,7.079,7.1086,7.104,7.0857,7.079,7.0765,7.0765,7.079,7.079,7.079,7.079,7.079,7.079,7.079,7.079,7.079,7.079,7.079,7.079,7.079,7.0622,7.0402,7.0112,6.9819,6.9457,6.8677,6.8038,6.7701,6.7238,6.6677,6.633,6.6134,6.5646,6.4987,6.4908,6.4883,6.4346,6.4346,6.4346,6.4346,6.4346,6.4346,6.4346,6.4346,6.4346,6.4346,6.4346,6.4346,6.4346,6.4346,6.4346,8.0253,8.0253,8.0253,8.0253,8.0253,8.0253,8.0253,8.0253,8.0253,8.0253,8.0253,8.0253,8.0253,8.0253,8.0253,8.0253,8.0253,8.0253,8.0253,8.0253,8.0253,8.0253,8.0616,8.0929,8.1385,8.1289,8.1289,8.1407,8.1241,8.0471,8.0351,8.0422,8.1241,8.2831,8.4394,8.5973,8.6589,8.6,8.5005,8.3861,8.3068,8.2617,8.2496,8.2979,8.3065,8.2776,8.2076,8.124,7.9767,7.7415,7.5856,7.5622,7.5362,7.2789,7.2604,7.2913,7.17,7.1518,7.1406,7.2619,7.3042,7.3398,7.3506,7.322,7.2264,7.2148,7.1675,7.1472,7.1178,7.097,7.0878,7.0903,7.0765,7.0765,7.079,7.079,7.079,7.079,7.079,7.079,7.079,7.079,7.079,7.079,7.0378,7.0039,6.9628,6.9286,6.8506,6.7677,6.694,6.6579,6.6256,6.572,6.5347,6.5201,6.4785,6.4639,6.4492,6.4346,6.4346,6.4346,6.4346,6.4346,6.4346,6.4346,6.4346,6.4346,6.4346,6.4346,6.4346,6.4346,6.4346,6.4346,6.4346,8.0253,8.0253,8.0253,8.0351,8.0545,8.0302,8.0253,8.0253,8.0253,8.0253,8.0253,8.0253,8.0253,8.0253,8.0253,8.0253,8.0253,8.0253,8.0253,8.0253,8.0253,8.0253,8.0784,8.1599,8.2098,8.2946,8.2899,8.2831,8.3228,8.2172,8.1003,8.0929,8.179,8.3113,8.6136,8.808,8.8035,8.6634,8.6453,8.6127,8.5744,8.5123,8.5383,8.5457,8.5117,8.4337,8.3598,8.2847,8.1221,7.9258,7.7796,7.7457,7.7753,7.5056,7.4424,7.5143,7.3475,7.2584,7.2604,7.5657,7.6664,7.6637,7.6036,7.5778,7.5092,7.468,7.4284,7.329,7.2193,7.1696,7.1311,7.1132,7.0903,7.0765,7.079,7.079,7.079,7.079,7.079,7.079,7.079,7.079,7.079,7.0668,7.0137,6.9603,6.9144,6.8388,6.7482,6.672,6.5964,6.5598,6.528,6.4956,6.481,6.4444,6.4346,6.4346,6.4346,6.4346,6.4346,6.4346,6.4346,6.4346,6.4346,6.4346,6.4346,6.4346,6.4346,6.4346,6.4346,6.4346,6.4346,6.4346,6.4346,8.0253,8.0253,8.0253,8.11,8.2051,8.0833,8.0253,8.0253,8.0302,8.0253,8.0253,8.0253,8.0253,8.0253,8.0302,8.0351,8.0448,8.0519,8.0399,8.0399,8.0448,8.0253,8.0422,8.1193,8.2526,8.2993,8.3275,8.4182,8.5151,8.4671,8.3629,8.316,8.3743,8.5472,8.8108,8.9956,9.0857,8.9941,8.9102,8.8196,8.8196,8.7721,8.7952,8.6941,8.6953,8.6227,8.5163,8.4026,8.2528,8.1181,8.015,7.9602,7.8774,7.7937,7.7346,7.6733,7.5916,7.5213,7.6029,7.7557,7.8204,7.8428,7.8162,7.7642,7.692,7.6707,7.6578,7.5657,7.4504,7.3665,7.3239,7.2304,7.1696,7.1402,7.1381,7.1178,7.1132,7.079,7.079,7.0857,7.079,7.079,7.079,7.0741,7.0088,6.9408,6.8433,6.7086,6.6354,6.5744,6.5085,6.4883,6.4615,6.4492,6.4346,6.4346,6.4346,6.4346,6.4346,6.4346,6.4346,6.4346,6.4346,6.4346,6.4346,6.4346,6.4346,6.4346,6.4346,6.4346,6.4346,6.4346,6.4346,6.4346,6.4346,8.2552,8.2457,8.1721,8.2098,8.304,8.1122,8.0253,8.0351,8.1074,8.1385,8.1481,8.1385,8.1385,8.1433,8.1433,8.1433,8.1481,8.2029,8.1981,8.1721,8.1219,8.0881,8.1122,8.179,8.3045,8.4275,8.5334,8.629,8.6966,8.6046,8.5544,8.6335,8.753,8.8708,8.9305,9.0658,9.1553,9.1397,9.0743,9.0157,9.0157,9.01,8.9785,8.8886,8.9173,8.806,8.6901,8.5611,8.4183,8.2896,8.1891,8.1555,8.1084,7.9437,7.9024,7.9203,7.7838,7.733,7.7979,7.9093,8.0135,8.0107,8.0148,7.989,7.9341,7.9175,7.8899,7.791,7.6766,7.6053,7.5578,7.4471,7.3086,7.2484,7.2148,7.1902,7.1539,7.0995,7.0857,7.1062,7.0995,7.0836,7.079,7.0741,6.9987,6.9067,6.7281,6.5811,6.5372,6.481,6.4688,6.4492,6.4468,6.437,6.4346,6.4346,6.4346,6.4346,6.4346,6.4346,6.4346,6.4346,6.4346,6.4346,6.4346,6.4346,6.4346,6.4346,6.4346,6.4346,6.4346,6.4346,6.4346,6.4346,6.4346,8.6245,8.6363,8.446,8.3763,8.3696,8.1529,8.0762,8.1363,8.2762,8.3369,8.3415,8.3415,8.3415,8.3322,8.3134,8.2993,8.3462,8.5289,8.4625,8.3743,8.3322,8.2573,8.2668,8.4003,8.5864,8.6516,8.7369,8.8372,8.884,8.8003,8.8196,8.9074,9.0157,9.02,9.0529,9.1184,9.1877,9.1877,9.168,9.1595,9.1637,9.1637,9.1622,9.1387,9.0541,8.9419,8.8239,8.6727,8.5288,8.4283,8.2947,8.2341,8.2736,8.1286,8.0854,8.1016,8.0027,7.9465,7.9958,8.1165,8.2499,8.3538,8.3654,8.2736,8.1675,8.1703,8.1072,7.9808,7.9038,7.8428,7.8135,7.7673,7.6036,7.5196,7.4409,7.4038,7.3532,7.2574,7.1766,7.1493,7.1199,7.0949,7.0857,7.0532,6.985,6.853,6.6799,6.5616,6.5005,6.4541,6.4395,6.4346,6.4346,6.4346,6.4346,6.4346,6.4346,6.4346,6.4346,6.4346,6.4346,6.4346,6.4346,6.4346,6.4346,6.4346,6.4346,6.4346,6.4346,6.4346,6.4346,6.4346,6.4346,6.4346,6.4346,8.7797,9.0271,8.8372,8.7592,8.7386,8.5499,8.4606,8.4625,8.5151,8.538,8.538,8.5472,8.5426,8.5151,8.4135,8.4275,8.5334,8.5864,8.5681,8.5517,8.5289,8.4967,8.4856,8.527,8.6949,8.8328,8.9015,8.9826,9.0486,9.0644,9.0314,9.1198,9.1651,9.1481,9.1397,9.168,9.1962,9.1962,9.1962,9.1962,9.1962,9.1962,9.1962,9.1583,9.0786,8.9855,8.9216,8.7472,8.6232,8.5281,8.4086,8.3499,8.3994,8.304,8.2883,8.2657,8.1903,8.1394,8.2301,8.2883,8.3654,8.4032,8.4071,8.3955,8.3353,8.3538,8.3079,8.2538,8.1486,8.0624,7.9998,7.89,7.8093,7.7446,7.6808,7.6552,7.6106,7.4786,7.3887,7.3354,7.2664,7.1947,7.1364,7.0723,6.9482,6.8097,6.6774,6.5549,6.4956,6.4444,6.4346,6.4346,6.4346,6.4346,6.4346,6.4346,6.4346,6.4346,6.4346,6.4346,6.4346,6.4346,6.4346,6.4346,6.4346,6.4346,6.4346,6.4346,6.4346,6.4346,6.4346,6.4346,6.4346,6.4346,6.4346,8.9941,9.1764,8.9826,8.9031,8.8768,8.6921,8.6136,8.6318,8.6966,8.7397,8.7486,8.8224,8.8108,8.7324,8.6353,8.6353,8.7352,8.8428,8.8268,8.7575,8.7307,8.6876,8.6589,8.7011,8.7681,8.9059,8.9913,9.0957,9.1439,9.1877,9.1962,9.1848,9.1962,9.1962,9.1835,9.1919,9.1962,9.1962,9.1962,9.1962,9.1962,9.1962,9.1962,9.1903,9.1251,9.0582,8.971,8.7948,8.6803,8.5873,8.4885,8.4206,8.4177,8.4177,8.4177,8.4071,8.3186,8.3225,8.3994,8.4071,8.4139,8.4177,8.4177,8.4177,8.4177,8.4139,8.4139,8.4177,8.3225,8.2696,8.2057,8.1282,8.0421,7.9602,7.9162,7.8705,7.7826,7.6707,7.596,7.5109,7.4383,7.3937,7.3473,7.2123,7.0374,6.8759,6.7151,6.5971,6.5175,6.478,6.4697,6.4572,6.4513,6.4388,6.4346,6.4346,6.4346,6.4346,6.4346,6.4346,6.4346,6.4346,6.4346,6.4346,6.4346,6.4346,6.4346,6.4346,6.4346,6.4346,6.4346,6.4346,6.4346,6.4346,6.4346,9.2046,9.1945,9.0214,8.9451,8.9292,8.7842,8.6994,8.7218,8.8752,8.9364,8.9451,9.0871,9.0529,8.9277,8.8943,8.9249,8.9783,9.0601,9.0572,8.9523,8.932,8.8664,8.753,8.868,8.9451,8.9913,9.1156,9.1877,9.1962,9.1962,9.1962,9.1962,9.1962,9.1962,9.1962,9.1962,9.1962,9.1962,9.1962,9.1962,9.1962,9.1962,9.1962,9.1962,9.1787,9.1338,9.042,8.8762,8.7541,8.6367,8.5059,8.4206,8.4177,8.4177,8.4177,8.4177,8.4177,8.4177,8.4177,8.4177,8.4177,8.4177,8.4177,8.4177,8.4177,8.4177,8.4177,8.4177,8.4071,8.3877,8.3732,8.3887,8.3275,8.2272,8.1418,8.0705,7.9999,7.9314,7.8482,7.7657,7.7446,7.6745,7.5516,7.3381,7.1277,6.9284,6.7543,6.6417,6.5573,6.545,6.5368,6.5128,6.5029,6.4555,6.4346,6.4346,6.4346,6.4346,6.4346,6.4346,6.4346,6.4346,6.4346,6.4346,6.4346,6.4346,6.4346,6.4346,6.4346,6.4346,6.4346,6.4346,6.4346,6.4346,6.4346,9.2614,9.2976,9.2126,9.1832,9.179,9.1339,9.097,9.09,9.1113,9.1269,9.1397,9.1637,9.0871,8.9826,9.0443,9.1312,9.1397,9.1595,9.1722,9.1184,9.1142,9.1184,9.0815,9.1227,9.1227,9.1071,9.1877,9.1919,9.1962,9.1962,9.1962,9.1962,9.1962,9.1962,9.1962,9.1962,9.1962,9.1962,9.1962,9.1962,9.1962,9.1962,9.1962,9.1962,9.1962,9.1845,9.1205,8.9286,8.7919,8.7046,8.5582,8.4177,8.4177,8.4177,8.4177,8.4177,8.4177,8.4177,8.4177,8.4177,8.4177,8.4177,8.4177,8.4177,8.4177,8.4177,8.4177,8.4177,8.4177,8.4177,8.4177,8.4177,8.3916,8.3499,8.3392,8.3207,8.242,8.1635,8.0692,8.0489,8.0489,7.9482,7.7821,7.5758,7.3316,7.1317,6.9506,6.8256,6.7541,6.7139,6.6478,6.6081,6.5475,6.4921,6.4429,6.4471,6.4346,6.4346,6.4346,6.4346,6.4346,6.4346,6.4346,6.4346,6.4346,6.4346,6.4346,6.4346,6.4346,6.4346,6.4346,6.4346,6.4346,6.4346,6.4346,9.31,9.3276,9.3029,9.2905,9.2905,9.2905,9.2656,9.2268,9.2226,9.2101,9.2004,9.1919,9.1312,9.0943,9.1608,9.1919,9.1919,9.1962,9.1962,9.1962,9.1962,9.1962,9.1835,9.1877,9.1962,9.1962,9.1962,9.1962,9.1962,9.1962,9.1962,9.1962,9.1962,9.1962,9.1962,9.1962,9.1962,9.1962,9.1962,9.1962,9.1962,9.1962,9.1962,9.1962,9.1962,9.1962,9.1467,8.9431,8.8093,8.7541,8.5582,8.4468,8.4177,8.4177,8.4177,8.4177,8.4177,8.4177,8.4177,8.4177,8.4177,8.4177,8.4177,8.4177,8.4177,8.4177,8.4177,8.4177,8.4177,8.4177,8.4177,8.4177,8.4177,8.4177,8.411,8.4071,8.3916,8.3275,8.2854,8.2549,8.2238,8.1386,7.9829,7.7634,7.5355,7.3455,7.1619,7.0616,6.9826,6.9086,6.8246,6.7581,6.6666,6.5712,6.463,6.4488,6.4346,6.4346,6.4346,6.4346,6.4346,6.4346,6.4346,6.4346,6.4346,6.4346,6.4346,6.4346,6.4346,6.4346,6.4346,6.4346,6.4346,6.4346,6.4346,9.3441,9.3482,9.3441,9.34,9.34,9.34,9.3112,9.2656,9.2531,9.231,9.2088,9.1932,9.1919,9.1877,9.1962,9.1962,9.1962,9.1962,9.1962,9.1962,9.1962,9.1962,9.1962,9.1962,9.1962,9.1962,9.1962,9.1962,9.1962,9.1962,9.1962,9.1962,9.1962,9.1962,9.1962,9.1962,9.1962,9.1962,9.1962,9.1962,9.1962,9.1962,9.1962,9.1962,9.1962,9.1787,9.1118,8.9344,8.7919,8.7541,8.5437,8.441,8.4177,8.4177,8.4177,8.4177,8.4177,8.4177,8.4177,8.4177,8.4177,8.4177,8.4177,8.4177,8.4177,8.4177,8.4177,8.4177,8.4177,8.4177,8.4177,8.4177,8.4177,8.4177,8.4177,8.4177,8.4177,8.3994,8.3916,8.3693,8.3617,8.3124,8.102,7.8886,7.6844,7.5053,7.3804,7.3081,7.2365,7.1511,7.0378,6.9242,6.8113,6.6681,6.5326,6.531,6.4987,6.5128,6.4697,6.4697,6.4388,6.4388,6.4346,6.4346,6.4346,6.4346,6.4346,6.4346,6.4346,6.4346,6.4346,6.4346,6.4346,6.4346,6.4346,9.3983,9.4237,9.3942,9.3809,9.3779,9.3809,9.3564,9.3112,9.2727,9.2531,9.2364,9.2088,9.2004,9.1962,9.1962,9.1962,9.1962,9.1962,9.1962,9.1962,9.1962,9.1962,9.1962,9.1962,9.1962,9.1962,9.1962,9.1962,9.1962,9.1962,9.1962,9.1962,9.1962,9.1962,9.1962,9.1962,9.1962,9.1962,9.1962,9.1962,9.1962,9.1962,9.1962,9.1932,9.1845,9.138,9.0321,8.885,8.7512,8.6436,8.5001,8.4294,8.4177,8.4177,8.4177,8.4177,8.4177,8.4177,8.4177,8.4177,8.4177,8.4177,8.4177,8.4177,8.4177,8.4177,8.4177,8.4177,8.4177,8.4177,8.4177,8.4177,8.4177,8.4177,8.4177,8.4177,8.4177,8.4177,8.4177,8.4148,8.3896,8.2879,8.1247,7.9707,7.8259,7.6871,7.6266,7.5629,7.4999,7.4146,7.284,7.1651,7.0443,6.9125,6.7874,6.7526,6.6554,6.6172,6.5252,6.4904,6.4363,6.4388,6.4346,6.4346,6.4388,6.4346,6.4346,6.4346,6.4346,6.4346,6.4346,6.4346,6.4346,6.4346,6.4346,9.4307,9.4469,9.4237,9.4186,9.4226,9.4226,9.3983,9.3616,9.3329,9.2988,9.2531,9.2323,9.2101,9.1962,9.1962,9.1962,9.1962,9.1962,9.1962,9.1962,9.1962,9.1962,9.1962,9.1962,9.1962,9.1962,9.1962,9.1962,9.1962,9.1962,9.1962,9.1962,9.1962,9.1962,9.1962,9.1962,9.1962,9.1962,9.1962,9.1962,9.1962,9.1962,9.1962,9.1903,9.1264,9.0699,8.9826,8.8111,8.6832,8.596,8.4914,8.4177,8.4177,8.4177,8.4177,8.4177,8.4177,8.4177,8.4177,8.4177,8.4177,8.4177,8.4177,8.4177,8.4177,8.4177,8.4177,8.4177,8.4177,8.4177,8.4177,8.4177,8.4177,8.4177,8.4177,8.4177,8.4177,8.4177,8.4177,8.4061,8.3605,8.2306,8.0968,7.9615,7.8214,7.6888,7.6353,7.6289,7.5771,7.5529,7.4501,7.357,7.2552,7.1586,7.0393,6.9451,6.8601,6.7632,6.6569,6.5516,6.5103,6.4838,6.4555,6.4388,6.4363,6.4388,6.4346,6.4346,6.4346,6.4346,6.4346,6.4346,6.4346,6.4346,6.4346,9.4439,9.4439,9.4439,9.4439,9.4439,9.4439,9.4307,9.3983,9.3931,9.3482,9.2946,9.2768,9.2561,9.2268,9.231,9.2143,9.213,9.2088,9.2004,9.2004,9.1962,9.1962,9.1962,9.1962,9.1962,9.1962,9.1962,9.1962,9.1962,9.1962,9.1962,9.1962,9.1962,9.1962,9.1962,9.1962,9.1962,9.1962,9.1962,9.2004,9.2059,9.2046,9.2004,9.1984,9.0811,8.9885,8.8925,8.7181,8.6018,8.5524,8.4768,8.4177,8.4177,8.4177,8.4177,8.4177,8.4177,8.4177,8.4177,8.4177,8.4177,8.4177,8.4177,8.4177,8.4177,8.4177,8.4177,8.4177,8.4177,8.4177,8.4177,8.4177,8.4177,8.4177,8.4177,8.4177,8.4177,8.4177,8.3983,8.3635,8.2955,8.1791,8.0212,7.9078,7.8205,7.6977,7.6564,7.6564,7.6529,7.6459,7.5629,7.4819,7.411,7.3826,7.2868,7.2318,7.1148,6.9983,6.8006,6.6569,6.6366,6.6081,6.5639,6.517,6.4697,6.4363,6.4346,6.4346,6.4346,6.4346,6.4346,6.4346,6.4346,6.4346,6.4346,9.4439,9.4439,9.4439,9.4439,9.4439,9.4439,9.4398,9.4347,9.4064,9.382,9.3646,9.3359,9.3153,9.3153,9.2988,9.2864,9.2448,9.2406,9.2239,9.2059,9.1962,9.1962,9.1962,9.1962,9.1962,9.1962,9.1962,9.1962,9.1962,9.1962,9.1962,9.1962,9.1962,9.1962,9.1962,9.2004,9.1962,9.2004,9.2046,9.2226,9.2394,9.2268,9.211,9.2001,9.0743,8.9181,8.7268,8.6222,8.5553,8.441,8.4235,8.4177,8.4177,8.4177,8.4177,8.4177,8.4177,8.4177,8.4177,8.4177,8.4177,8.4177,8.4177,8.4177,8.4177,8.4177,8.4177,8.4177,8.4177,8.4177,8.4177,8.4177,8.4177,8.4177,8.4177,8.4177,8.4177,8.4177,8.3751,8.2751,8.2527,8.1151,7.9601,7.8496,7.8031,7.6745,7.66,7.66,7.66,7.66,7.6219,7.5664,7.5664,7.57,7.5279,7.4855,7.334,7.2045,6.984,6.8614,6.843,6.7766,6.7095,6.6213,6.55,6.5029,6.4763,6.4471,6.4346,6.4346,6.4346,6.4346,6.4346,6.4346,6.4346,9.4439,9.4439,9.4439,9.4439,9.4439,9.4439,9.4439,9.4398,9.4267,9.4105,9.3861,9.3698,9.3523,9.3318,9.3318,9.3153,9.2946,9.2656,9.2477,9.2268,9.2088,9.1962,9.1962,9.1962,9.1962,9.1962,9.1962,9.1962,9.1962,9.1962,9.1962,9.2004,9.1962,9.1962,9.2004,9.2143,9.2239,9.2352,9.2602,9.281,9.2976,9.2781,9.2375,9.129,9.0769,8.8994,8.6407,8.5379,8.4797,8.4323,8.4177,8.4177,8.4177,8.4177,8.4177,8.4177,8.4177,8.4177,8.4177,8.4177,8.4177,8.4177,8.4177,8.4177,8.4177,8.4177,8.4177,8.4177,8.4177,8.4177,8.4177,8.4177,8.4177,8.4177,8.4177,8.4177,8.4177,8.3547,8.2925,8.2198,8.1121,7.9601,7.8787,7.7856,7.721,7.6774,7.66,7.66,7.66,7.66,7.6459,7.6324,7.6254,7.6113,7.5729,7.5558,7.4457,7.3964,7.2393,7.1452,7.0853,7.0007,6.9256,6.8258,6.6772,6.5787,6.5524,6.5236,6.4804,6.4388,6.4346,6.4346,6.4346,6.4346,6.4346,9.4439,9.4439,9.4439,9.4439,9.4439,9.4439,9.4439,9.4439,9.4439,9.4307,9.4105,9.4064,9.3902,9.3616,9.3646,9.3564,9.3359,9.2946,9.2698,9.2519,9.2339,9.231,9.231,9.231,9.231,9.2352,9.2394,9.231,9.231,9.2352,9.2381,9.231,9.2394,9.2352,9.231,9.2614,9.2698,9.281,9.3112,9.3199,9.2956,9.2756,9.1962,9.0402,8.9713,8.8371,8.6458,8.4894,8.4216,8.4302,8.4264,8.4177,8.4177,8.4177,8.4177,8.4177,8.4177,8.4177,8.4177,8.4177,8.4177,8.4177,8.4177,8.4177,8.4177,8.4177,8.4177,8.4177,8.4177,8.4177,8.4177,8.4177,8.4177,8.4177,8.4177,8.4041,8.3547,8.2664,8.1741,8.1304,7.9725,7.867,7.7914,7.721,7.6687,7.6629,7.66,7.66,7.66,7.66,7.66,7.66,7.6564,7.6395,7.6289,7.6183,7.5942,7.5422,7.4718,7.3598,7.3053,7.2393,7.1651,7.0482,6.906,6.7326,6.6731,6.609,6.5111,6.4429,6.4388,6.4346,6.4346,6.4513,6.4555,9.4409,9.4439,9.4409,9.4229,9.4229,9.4199,9.411,9.4319,9.4289,9.4229,9.4309,9.4179,9.4298,9.4358,9.4267,9.4145,9.382,9.3411,9.297,9.2558,9.2582,9.2687,9.2687,9.2735,9.2882,9.3082,9.3112,9.3112,9.307,9.307,9.3235,9.3141,9.3112,9.3194,9.3112,9.3176,9.3088,9.3029,9.3111,9.2705,9.2038,9.1717,9.0845,8.9518,8.8103,8.7075,8.6333,8.5136,8.4485,8.4783,8.4524,8.4302,8.4254,8.4177,8.4254,8.4225,8.4177,8.4216,8.4177,8.4177,8.4177,8.4177,8.4177,8.4177,8.4177,8.4177,8.4177,8.4177,8.4177,8.4177,8.4177,8.4177,8.4032,8.4119,8.3751,8.3382,8.2585,8.1354,8.0307,7.9223,7.867,7.8082,7.6948,7.6774,7.66,7.66,7.66,7.66,7.66,7.66,7.66,7.66,7.66,7.6494,7.6459,7.636,7.6324,7.5977,7.5807,7.535,7.5107,7.4927,7.4501,7.2849,7.1245,6.9437,6.8166,6.7326,6.6407,6.5293,6.4655,6.4429,6.4513,6.478,6.4821,9.2026,9.2026,9.2026,9.2026,9.2026,9.2056,9.2056,9.2026,9.2026,9.2465,9.3123,9.3282,9.3701,9.4319,9.4439,9.4388,9.4226,9.3861,9.2716,9.1164,9.0867,9.0746,9.0835,9.1572,9.2409,9.317,9.3318,9.3318,9.3318,9.3318,9.3318,9.3288,9.3318,9.3259,9.3288,9.2783,9.2441,9.2363,9.191,9.1424,9.1115,9.0947,9.0156,8.8706,8.7929,8.7048,8.5955,8.5361,8.524,8.5476,8.5249,8.5021,8.5021,8.4991,8.4936,8.4745,8.4601,8.4456,8.4216,8.41,8.4177,8.4177,8.4177,8.4177,8.4177,8.4177,8.4177,8.4177,8.4148,8.4177,8.4148,8.4148,8.3402,8.2102,8.1957,8.1645,8.118,8.0045,7.9049,7.8525,7.7827,7.7181,7.6745,7.66,7.66,7.66,7.66,7.66,7.66,7.66,7.66,7.66,7.66,7.66,7.66,7.66,7.66,7.66,7.66,7.643,7.6295,7.6254,7.6148,7.4364,7.3284,7.1473,6.9632,6.8719,6.7661,6.6366,6.5293,6.5211,6.5227,6.5351,6.5458,9.059,9.059,9.059,9.059,9.059,9.059,9.059,9.059,9.059,9.1068,9.1816,9.1906,9.2415,9.3133,9.3282,9.3252,9.3242,9.2944,9.189,9.0422,8.9872,8.9784,8.9932,9.0702,9.1601,9.2352,9.2471,9.2441,9.2412,9.2382,9.2471,9.2471,9.2441,9.2471,9.2363,9.1851,9.1543,9.1453,9.0853,9.032,8.9991,8.9961,8.9142,8.7668,8.7451,8.6989,8.5978,8.5919,8.5994,8.6076,8.5852,8.5449,8.5011,8.4923,8.4559,8.401,8.3884,8.3667,8.3403,8.3666,8.3958,8.4008,8.4281,8.435,8.4409,8.4293,8.4177,8.4177,8.3838,8.3635,8.3556,8.3286,8.2277,8.0685,8.0481,8.0452,7.9929,7.9114,7.8409,7.7943,7.7123,7.6658,7.66,7.66,7.66,7.66,7.66,7.66,7.66,7.66,7.66,7.66,7.66,7.66,7.66,7.66,7.66,7.66,7.66,7.6465,7.6529,7.6459,7.6395,7.5664,7.4855,7.3459,7.1576,7.0135,6.8982,6.7766,6.7286,6.6827,6.6259,6.6137,6.6285,9.047,9.038,9.056,9.029,9.0231,9.0201,9.044,9.029,9.032,9.032,9.056,9.059,9.0739,9.0799,9.1068,9.0709,9.062,9.0551,9.0333,9.0162,9.0184,9.0145,9.0145,9.0316,9.0593,9.0683,9.0701,9.073,9.0832,9.0922,9.0862,9.0722,9.0862,9.0943,9.0701,9.0662,9.0551,9.0461,9.0282,8.9752,8.8825,8.8645,8.7896,8.6523,8.6329,8.6419,8.6634,8.6544,8.6269,8.6039,8.5935,8.5244,8.3919,8.3735,8.3063,8.2046,8.1692,8.1597,8.1738,8.2799,8.341,8.3491,8.4266,8.4449,8.4324,8.4039,8.3809,8.3644,8.3013,8.2439,8.2227,8.1267,8.0365,8.0394,8.0016,7.9579,7.8845,7.8525,7.8089,7.7007,7.6687,7.66,7.66,7.66,7.66,7.66,7.66,7.66,7.66,7.66,7.66,7.66,7.66,7.66,7.66,7.66,7.66,7.66,7.66,7.66,7.66,7.6564,7.6494,7.6424,7.5593,7.5243,7.3321,7.2103,7.0815,6.9464,6.9814,6.9464,6.8916,6.8364,6.8033,8.7935,8.7964,8.7964,8.7964,8.7964,8.7935,8.7964,8.7964,8.7964,8.8473,8.9154,8.9243,8.9752,9.047,9.059,8.9692,8.8084,8.7964,8.7964,8.7964,8.7964,8.7964,8.8114,8.8862,8.9281,8.9401,9.0111,9.059,9.059,9.059,9.059,9.056,9.059,9.059,9.041,8.97,8.9243,8.9072,8.8383,8.7815,8.7426,8.7336,8.7022,8.6619,8.6493,8.6567,8.6677,8.5809,8.5324,8.5095,8.4336,8.3637,8.3142,8.3083,8.2701,8.2071,8.1946,8.1839,8.161,8.1899,8.2164,8.2157,8.2306,8.2401,8.2527,8.2009,8.1853,8.1927,8.1445,8.1092,8.0685,7.9136,7.785,7.7821,7.7856,7.7617,7.7268,7.721,7.7007,7.6687,7.66,7.66,7.66,7.66,7.66,7.66,7.66,7.66,7.66,7.66,7.66,7.66,7.66,7.66,7.66,7.66,7.66,7.66,7.66,7.66,7.66,7.66,7.6564,7.6564,7.6395,7.6154,7.5422,7.4183,7.2515,7.0646,7.0903,7.1586,7.099,7.0673,7.0117,8.6677,8.6677,8.6677,8.6677,8.6677,8.6677,8.6677,8.6677,8.6677,8.7156,8.7845,8.7935,8.8413,8.9192,8.9192,8.8264,8.6767,8.6677,8.6677,8.6677,8.6677,8.6677,8.6767,8.7516,8.7964,8.8017,8.8802,8.9192,8.9192,8.9154,8.9154,8.9154,8.9192,8.9222,8.9072,8.8316,8.7897,8.7875,8.7186,8.6677,8.6707,8.6677,8.6438,8.6086,8.6026,8.578,8.5331,8.4523,8.4044,8.4044,8.329,8.2811,8.2781,8.2362,8.1809,8.1092,8.0968,8.0828,8.0582,8.0932,8.1229,8.1223,8.1351,8.1633,8.1617,8.119,8.0885,8.0863,8.0454,7.9601,7.8946,7.7617,7.66,7.66,7.6629,7.6687,7.66,7.66,7.66,7.66,7.66,7.66,7.66,7.66,7.66,7.66,7.66,7.66,7.66,7.66,7.66,7.66,7.66,7.66,7.66,7.66,7.66,7.66,7.66,7.66,7.66,7.66,7.66,7.66,7.66,7.6395,7.626,7.5143,7.4791,7.3247,7.321,7.357,7.2571,7.2365,7.1948,8.6677,8.6677,8.6677,8.6677,8.6677,8.6677,8.6677,8.6677,8.6677,8.6707,8.6767,8.6737,8.6648,8.6528,8.6528,8.6498,8.6438,8.6438,8.6468,8.6468,8.6618,8.6677,8.6677,8.6677,8.6707,8.6887,8.7007,8.6947,8.6857,8.6797,8.6677,8.6767,8.6917,8.6797,8.6887,8.6857,8.6707,8.6827,8.6737,8.6677,8.6648,8.6498,8.578,8.4762,8.4642,8.4133,8.3075,8.2776,8.2721,8.2716,8.2507,8.2542,8.2482,8.1405,8.0204,7.9034,7.8825,7.8825,7.9,7.999,8.0678,8.0827,8.1255,8.1922,8.1619,8.1098,8.0697,8.0869,7.9673,7.8534,7.7247,7.6885,7.667,7.667,7.6635,7.66,7.66,7.66,7.66,7.66,7.66,7.66,7.66,7.66,7.66,7.66,7.66,7.66,7.66,7.66,7.66,7.66,7.66,7.66,7.66,7.66,7.66,7.66,7.66,7.66,7.66,7.66,7.66,7.66,7.66,7.66,7.657,7.6244,7.5689,7.5368,7.5134,7.4847,7.3688,7.3803,7.3132,8.6677,8.6677,8.6677,8.6677,8.6677,8.6677,8.6677,8.6677,8.6677,8.6677,8.6677,8.6677,8.569,8.4068,8.3888,8.3888,8.4008,8.4852,8.5271,8.5361,8.6295,8.6648,8.6677,8.6677,8.6677,8.6677,8.6648,8.6648,8.6677,8.6677,8.6677,8.6677,8.6677,8.6677,8.6677,8.6677,8.6677,8.6677,8.6677,8.6677,8.6408,8.4882,8.3709,8.338,8.335,8.32,8.2776,8.1914,8.1405,8.1345,8.0383,7.9845,7.9845,7.9516,7.9157,7.8765,7.8705,7.8705,7.8735,7.9064,7.9337,7.9303,7.9334,7.9469,7.9474,7.8853,7.8434,7.8633,7.8587,7.8198,7.7499,7.7193,7.7025,7.699,7.6746,7.66,7.6541,7.66,7.6512,7.66,7.6338,7.66,7.657,7.6483,7.6396,7.6425,7.6483,7.66,7.66,7.6541,7.657,7.66,7.657,7.6541,7.66,7.6396,7.66,7.66,7.6396,7.6367,7.66,7.657,7.657,7.5844,7.6396,7.6512,7.6105,7.5471,7.4858,7.4776,7.4156,7.3451,7.3866,7.3373,7.2766,8.5121,8.5085,8.5121,8.5085,8.5121,8.5121,8.5085,8.5121,8.5121,8.5121,8.5121,8.5121,8.4277,8.2841,8.2811,8.2811,8.2871,8.3589,8.3954,8.4044,8.4696,8.5055,8.5091,8.5085,8.542,8.5839,8.5899,8.6139,8.6588,8.6677,8.6677,8.6677,8.6677,8.6677,8.6677,8.6677,8.6677,8.6677,8.6169,8.563,8.5001,8.3589,8.2537,8.2093,8.2033,8.1759,8.1131,8.0413,7.9995,7.9905,7.8679,7.7898,7.7961,7.7423,7.7154,7.7154,7.7124,7.7124,7.7124,7.7154,7.7363,7.7931,7.7795,7.8,7.8612,7.8164,7.7321,7.656,7.642,7.6357,7.6059,7.5857,7.5722,7.5688,7.5446,7.5241,7.5241,7.5075,7.4972,7.5001,7.5001,7.4972,7.5001,7.5001,7.4972,7.5001,7.4943,7.5175,7.5669,7.5786,7.5989,7.6309,7.5611,7.5117,7.4943,7.5001,7.4972,7.4972,7.5001,7.5001,7.4884,7.4972,7.5001,7.4913,7.4797,7.4826,7.5146,7.4279,7.3843,7.3755,7.3057,7.2675,7.2675,7.2675,7.2094,8.2871,8.2811,8.2931,8.2811,8.2931,8.2901,8.2931,8.2901,8.2841,8.2751,8.2447,8.2417,8.2422,8.2452,8.2362,8.2303,8.2297,8.2572,8.2626,8.2626,8.2781,8.2841,8.2961,8.2866,8.3439,8.4433,8.4552,8.5091,8.6049,8.6169,8.6288,8.6318,8.6348,8.6229,8.6258,8.6258,8.6258,8.6318,8.5031,8.3834,8.2721,8.2542,8.1884,8.0687,8.0687,8.0029,7.8709,7.8559,7.8466,7.8257,7.7243,7.6586,7.6496,7.5509,7.4913,7.4943,7.4913,7.4853,7.4913,7.4853,7.5419,7.6466,7.6583,7.7064,7.8077,7.8257,7.7171,7.5118,7.4078,7.4067,7.3792,7.391,7.3995,7.4083,7.3729,7.3297,7.3436,7.297,7.2742,7.2675,7.2995,7.2704,7.2995,7.2995,7.2879,7.3082,7.3169,7.3494,7.4279,7.4453,7.4831,7.532,7.4361,7.2995,7.2908,7.2704,7.3024,7.2908,7.2762,7.2966,7.3111,7.3024,7.2733,7.3431,7.2995,7.3082,7.2966,7.253,7.2621,7.2505,7.2301,7.2181,7.2297,7.2123,7.1687,8.2811,8.2811,8.2811,8.2811,8.2811,8.2811,8.2811,8.2811,8.2781,8.161,7.9815,7.9602,7.9636,7.9666,7.9666,7.9666,7.9815,8.0777,8.1315,8.1405,8.2362,8.2811,8.2811,8.2811,8.2925,8.32,8.323,8.3409,8.3649,8.3679,8.3709,8.3709,8.3679,8.3679,8.3679,8.3709,8.3709,8.3619,8.2392,8.1585,8.1285,8.0204,7.9546,7.9217,7.9217,7.8589,7.73,7.7181,7.6765,7.5778,7.5449,7.5302,7.5302,7.5003,7.4853,7.4853,7.4853,7.4853,7.4853,7.4853,7.5003,7.524,7.527,7.5389,7.5659,7.5718,7.5387,7.4845,7.4478,7.4476,7.4352,7.4221,7.4119,7.4087,7.3762,7.3413,7.33,7.3227,7.3065,7.2742,7.2675,7.265,7.2675,7.2675,7.2559,7.2534,7.2675,7.2733,7.3028,7.3116,7.3203,7.3406,7.3111,7.2559,7.2675,7.2588,7.2559,7.2675,7.2588,7.2443,7.2472,7.2588,7.2617,7.2472,7.2559,7.2443,7.2501,7.1981,7.14,7.1254,7.0673,7.0033,7.0091,7.012,7.012,8.0922,8.0952,8.0922,8.0922,8.0922,8.0922,8.0922,8.0862,7.9666,7.829,7.7064,7.7602,7.7842,7.7871,7.8436,7.8705,7.8735,7.9546,7.9845,7.9935,8.0623,8.0922,8.0952,8.0952,8.1251,8.1914,8.1944,8.2208,8.2781,8.2811,8.2811,8.2811,8.2811,8.2811,8.2811,8.2811,8.2811,8.2781,8.0862,7.9909,7.9879,7.9157,7.8436,7.7842,7.7812,7.7214,7.5958,7.5898,7.5569,7.4851,7.4253,7.3956,7.3956,7.3387,7.3058,7.3058,7.3058,7.3058,7.3058,7.3088,7.3327,7.3896,7.3924,7.3716,7.3118,7.3058,7.3058,7.3058,7.3058,7.3028,7.3027,7.2872,7.2747,7.2747,7.2433,7.2087,7.1958,7.183,7.167,7.148,7.1477,7.1448,7.1445,7.1287,7.119,7.119,7.1057,7.1254,7.1807,7.1429,7.1022,7.1022,7.1022,7.1051,7.0989,7.1018,7.1051,7.1051,7.0989,7.1022,7.1022,7.0992,7.0992,7.0989,7.0992,7.0989,7.0963,7.0469,7.0149,6.9975,6.9393,6.9102,6.9102,6.9538,7.0498,7.8167,7.82,7.82,7.8167,7.8167,7.8167,7.8167,7.7991,7.5808,7.4883,7.4911,7.6017,7.6526,7.6586,7.7659,7.82,7.82,7.82,7.8257,7.8436,7.8406,7.8559,7.8705,7.8705,7.9333,8.0508,8.0533,8.1166,8.2118,8.2213,8.2243,8.2178,8.2238,8.2213,8.2208,8.2208,8.2208,8.2178,7.9905,7.8649,7.8436,7.8436,7.7842,7.6586,7.6496,7.5898,7.4644,7.4584,7.4492,7.4285,7.3238,7.2609,7.2579,7.1562,7.0874,7.0695,7.0665,7.0575,7.0425,7.0425,7.0964,7.219,7.252,7.2071,7.0814,7.0695,7.0755,7.0964,7.1054,7.0934,7.0934,7.1054,7.1113,7.0993,7.0691,7.0419,7.0446,7.0321,7.0167,7.0103,6.9987,7.0075,7.0131,6.9826,6.973,6.9551,6.9683,6.9546,7.0336,6.9811,6.9228,6.9049,6.9017,6.8986,6.9335,6.916,6.9626,6.9277,6.9652,7.012,7.0178,7.0149,7.0149,6.9713,7.0059,6.9913,6.9855,6.9538,6.9887,6.9975,6.9945,6.9771,6.9797,7.0792,7.1836,7.5509,7.5509,7.5541,7.5539,7.5509,7.5509,7.5539,7.5479,7.5031,0.0,0.0,7.509,7.518,7.518,7.5419,7.5509,7.5539,7.5509,7.6107,7.7124,7.7091,7.7689,7.8705,7.8705,7.8855,7.9098,7.9127,7.9247,7.9456,7.9456,7.9456,7.9456,7.9456,7.9423,7.9456,7.9456,7.9456,7.9393,7.8978,7.8167,7.7184,7.7124,7.6496,7.521,7.518,7.4552,7.3297,7.3238,7.2759,7.1712,7.1443,7.1293,7.1323,7.1054,7.0485,6.9468,6.9348,6.8869,6.7792,6.7731,6.8329,6.9587,7.0695,7.0755,6.9467,6.9348,6.9797,7.0874,7.0934,7.0934,7.0934,7.0934,7.0934,7.0934,7.0904,7.0692,7.0389,7.0297,7.0235,7.0019,7.0049,7.0018,7.0018,6.9926,6.9896,6.9834,6.9585,6.9484,6.9633,6.985,6.9763,6.9516,6.9437,6.9131,6.9189,6.9887,7.0589,7.0614,7.1371,7.1977,7.2036,7.2006,7.2069,7.1803,7.2006,7.1919,7.201,7.1861,7.2036,7.2036,7.2036,7.2069,7.2123,7.3057,7.3847,7.6267,7.5739,7.577,7.5362,0.0,7.4853,7.4105,7.2879,7.2879,7.2879,7.2938,7.3567,7.3836,7.3896,7.4554,7.4853,7.4853,7.4853,7.5212,7.5778,7.5808,7.6137,7.6765,7.6765,7.6765,7.6765,7.6765,7.7094,7.7722,7.7722,7.8047,7.8705,7.8705,7.8705,7.8705,7.8705,7.8047,7.6765,7.6765,7.6466,7.5838,7.5778,7.515,7.3894,7.3866,0.0,0.0,0.0,0.0,0.0,0.0,0.0,0.0,6.9976,0.0,6.8091,6.7373,6.6654,6.6056,6.5996,6.6265,6.6924,6.8181,6.839,6.7015,6.7582,6.827,6.8929,6.8989,6.9258,6.9887,6.9947,7.0246,7.0844,7.0934,7.0874,7.0692,7.0632,7.0601,7.0509,7.0478,7.0448,7.0478,7.0326,7.0204,7.0143,6.9866,6.9711,6.977,7.0425,7.0871,7.0743,7.0863,7.1135,7.119,7.1647,7.1836,7.1865,7.233,7.2617,7.2675,7.2675,7.2675,7.2675,7.2675,7.2675,7.2675,7.2675,7.2675,7.2675,7.2675,7.2675,7.2704,7.3169,7.3668,7.7023,7.6198,7.6198,7.5504,7.4452,7.4672,7.3435,7.1295,7.1265,7.1175,7.1054,7.2041,7.252,7.2609,7.3656,7.4074,7.4104,7.4135,7.4223,7.4462,7.4462,7.4582,7.4853,7.4853,7.4853,7.4853,7.4853,7.536,7.6406,7.6436,7.6974,7.7928,7.7991,7.7958,7.7958,0.0,0.0,0.0,7.5014,7.5052,7.4812,7.4812,7.4181,7.2888,7.2643,0.0,7.1024,7.0934,7.0814,7.0635,7.0605,0.0,0.0,0.0,0.0,0.0,0.0,0.0,0.0,0.0,0.0,0.0,6.432,6.4409,6.3574,6.4769,6.5756,6.6235,6.6505,6.7103,6.8121,6.845,6.9079,7.0096,7.0186,7.0246,7.0216,7.0186,7.0336,7.0545,7.0575,7.0635,7.0874,7.0662,7.048,7.0449,7.0235,7.0081,7.0142,7.1002,7.1652,7.1675,7.1923,7.258,7.2564,7.2328,7.2156,7.2418,7.2505,7.2675,7.2675,7.2675,7.2675,7.2675,7.2675,7.2675,7.2675,7.2675,7.2675,7.2675,7.2675,7.2675,7.2675,7.2675,7.2675,7.4859,7.4752,7.4724,7.4023,7.305,7.4082,7.3723,7.2472,7.2472,7.1918,7.0934,7.1113,7.1173,7.1203,7.1383,7.1443,7.1443,7.1473,7.2041,7.3118,7.3148,7.3746,7.4853,7.4853,7.4853,7.4853,7.4853,7.4943,7.506,7.506,7.515,7.53,7.533,7.533,7.533,7.53,7.515,7.4883,7.5864,7.5809,7.4678,7.4677,7.4065,7.2781,7.1745,7.1113,7.0934,7.0934,7.0395,6.9348,6.9258,6.8091,6.5609,6.5429,6.438,0.0,6.1626,0.0,0.0,0.0,0.0,0.0,0.0,0.0,0.0,5.9361,6.1061,6.3332,6.4532,6.525,6.5429,6.6564,6.7373,6.7551,6.7581,6.7552,6.7522,6.7581,6.8,6.9109,6.9258,6.9677,7.0725,7.0934,7.0873,7.0813,7.0481,7.033,7.0752,7.1021,7.1139,7.0595,7.0712,7.1204,7.0645,7.0904,7.1316,7.1374,7.2102,7.2646,7.2675,7.2675,7.2675,7.2675,7.2675,7.2675,7.2675,7.2675,7.2675,7.2675,7.2413,7.2268,7.2268,7.221,7.2675,7.6021,7.5442,7.541,7.5148,7.4688,7.517,7.43,7.2521,7.2462,7.1782,7.0513,7.0543,7.0543,7.0488,6.9899,7.0068,7.0648,7.0153,7.0545,7.1802,7.1802,7.2101,7.2669,7.2669,7.2699,7.2669,7.2699,7.3058,7.3715,7.3776,7.4165,7.4853,7.4853,7.4765,7.4603,7.46,7.4629,7.4629,7.5154,7.4818,7.3654,7.4198,7.3948,7.2733,7.2212,7.1918,7.1888,7.0573,6.9617,6.8989,6.7552,6.5848,6.3963,6.2471,6.0856,0.0,0.0,0.0,0.0,0.0,0.0,0.0,0.0,0.0,0.0,0.0,5.7384,5.9586,6.0916,6.1989,6.2707,6.3332,6.399,6.4709,6.5262,6.5673,6.5872,6.6292,6.6944,6.7818,6.7911,6.8449,6.9707,6.9887,7.0126,7.0874,7.0186,6.9917,7.0784,7.1592,7.198,7.1856,7.2361,7.2652,7.218,7.2295,7.2414,7.2339,7.2653,7.2937,7.2708,7.2675,7.2675,7.2675,7.2675,7.2675,7.2675,7.2675,7.2675,7.2297,7.0498,6.8724,6.8491,6.8491,6.8782,7.7413,7.6557,7.5852,7.56,7.5568,7.5568,7.4344,7.2236,7.2205,7.1206,6.9631,6.96,6.9417,6.9083,6.8613,6.8845,6.9529,6.9106,6.9458,7.0392,7.0455,7.0635,7.0844,7.0935,7.0934,7.0964,7.1265,7.1746,7.2431,7.2737,7.3341,7.4274,7.3703,7.3637,7.4025,7.4016,7.4174,7.4461,7.4461,7.4104,7.3585,7.4411,7.4407,7.3585,7.3274,7.2949,7.2612,7.0548,6.8975,6.7953,6.5716,6.3533,6.1523,5.9367,0.0,0.0,0.0,0.0,0.0,0.0,0.0,0.0,0.0,4.852,5.0238,0.0,5.3883,0.0,5.7233,5.8466,5.9556,6.0001,0.0,0.0,6.2751,6.3379,6.3825,6.4291,6.5065,6.6264,6.6254,6.6743,6.833,6.854,6.8958,6.9827,6.9168,6.8899,6.9857,7.0874,7.1502,7.1503,7.2101,7.2844,7.2173,7.2125,7.169,7.1483,7.136,7.1322,7.0909,7.0905,7.0905,7.0902,7.0905,7.0934,7.076,7.0873,7.0815,7.0611,6.7851,6.5118,6.5118,6.5176,6.5467,7.7891,7.7587,7.4978,7.3871,7.3871,7.3871,7.3148,7.1955,7.1923,7.047,6.8054,6.8029,6.7289,6.6125,6.7345,0.0,6.6665,6.8031,6.8702,6.88,6.9063,6.9664,7.061,7.0812,7.0934,7.0964,7.2036,7.2067,7.1175,7.2187,7.2774,7.2805,7.0488,7.0488,7.2731,7.2874,7.3367,7.4461,7.4461,7.4928,7.589,7.6027,7.6027,7.5864,7.4874,7.3677,7.2376,7.121,6.8845,6.5144,6.3773,6.1213,5.7177,0.0,0.0,0.0,0.0,0.0,0.0,0.0,0.0,0.0,0.0,0.0,0.0,0.0,0.0,5.2166,5.3927,0.0,5.5627,5.697,0.0,0.0,0.0,6.0093,6.0708,6.0164,6.0933,6.4186,0.0,0.0,6.6892,6.7222,6.7223,6.7371,6.7253,6.7252,6.7343,6.7581,6.7551,6.7732,6.7731,6.7586,6.7743,6.7536,6.736,6.6796,6.6149,6.6263,6.6052,6.5932,6.5787,6.5932,6.5757,6.5816,6.5757,6.5904,6.5699,6.5699,6.5234,6.4972,6.4769,6.4681,6.474,7.4833,7.3992,7.285,7.1841,7.0997,7.0997,7.0215,6.8951,6.9006,6.7923,6.6083,6.6061,6.5771,6.5265,6.5835,0.0,0.0,0.0,6.6601,6.8159,6.759,6.8102,6.9311,6.8849,6.8919,6.9546,6.9996,7.0027,6.9575,6.9996,7.0151,6.9858,0.0,7.0598,7.2334,7.3052,7.4092,7.5446,7.536,7.59,7.7205,7.6545,7.6151,7.6151,7.4894,7.3644,7.2414,6.9476,6.6768,6.4521,6.1118,5.861,0.0,0.0,0.0,0.0,0.0,0.0,0.0,0.0,0.0,0.0,0.0,4.2833,4.4036,0.0,0.0,0.0,5.16,5.3057,5.4382,5.458,0.0,0.0,0.0,0.0,0.0,0.0,0.0,6.1969,6.1765,6.2241,6.4282,6.3215,6.2856,6.438,6.4619,6.5218,6.6832,0.0,6.7042,6.7042,6.7042,6.7015,6.6842,6.6842,6.6756,6.6497,6.5499,6.4565,6.4042,6.3925,6.3925,6.3983,6.3954,6.4187,6.5002,6.2672,6.0773,6.0578,6.055,6.055,6.0521,6.055,6.1017,7.0559,0.0,0.0,0.0,0.0,6.7545,6.6778,6.5812,6.5417,6.441,6.3075,6.3075,0.0,0.0,0.0,0.0,0.0,0.0,6.4145,6.5911,6.5718,6.6179,6.7214,6.6602,6.6648,6.74,6.772,6.7906,6.7844,6.6632,6.6126,6.6386,0.0,0.0,0.0,0.0,7.3667,7.5425,7.5708,7.6501,7.794,7.7137,7.6699,7.6699,7.5306,7.363,7.1595,6.7841,6.4916,6.2984,5.8381,0.0,0.0,0.0,0.0,0.0,0.0,0.0,0.0,0.0,0.0,0.0,0.0,0.0,0.0,0.0,0.0,0.0,0.0,0.0,5.1914,5.1637,5.1892,0.0,0.0,0.0,0.0,0.0,0.0,0.0,0.0,0.0,6.0935,5.9537,5.9232,0.0,0.0,6.2856,6.5517,6.6153,6.6674,6.7429,6.7858,0.0,6.6906,6.6568,6.6134,6.5268,6.3742,6.2405,6.1849,6.1794,6.1794,6.1765,6.1794,6.1766,6.1768,5.8836,5.6573,5.6515,5.6518,5.6609,5.6962,5.7026,5.7643,0.0,0.0,0.0,0.0,6.485,0.0,0.0,0.0,6.1471,6.0103,0.0,5.8755,0.0,0.0,0.0,0.0,5.7455,6.0135,0.0,0.0,6.3065,6.3931,6.4128,6.4318,6.4428,6.4531,6.5583,6.6126,6.5853,6.1862,0.0,0.0,0.0,0.0,0.0,0.0,7.1351,7.385,7.5148,7.6501,7.7874,7.7891,7.7899,7.7833,7.6495,7.3697,6.9495,6.6804,6.3695,5.9814,5.5774,0.0,0.0,0.0,0.0,0.0,0.0,0.0,0.0,0.0,0.0,0.0,0.0,0.0,0.0,0.0,0.0,0.0,0.0,0.0,0.0,4.7793,0.0,0.0,0.0,0.0,0.0,0.0,0.0,0.0,0.0,5.6556,5.6759,5.6728,5.73,5.9003,0.0,0.0,0.0,0.0,6.5716,6.8245,6.9657,6.9333,6.6498,6.5345,6.3851,6.1191,0.0,0.0,5.8563,5.8482,5.843,5.8456,5.8401,5.7609,5.5037,5.3573,5.2974,5.3922,5.4167,5.4499,5.5477,5.5497,5.5891,0.0,0.0,0.0,0.0,0.0,0.0,0.0,0.0,0.0,5.698,5.5662,5.5564,0.0,0.0,0.0,0.0,0.0,0.0,0.0,0.0,5.9445,6.0455,6.2525,6.1771,6.2402,0.0,6.3569,6.2234,0.0,0.0,0.0,0.0,0.0,0.0,0.0,0.0,6.8474,7.1263,7.335,7.5096,7.6534,7.7479,7.7479,7.6567,7.605,7.3505,6.86,6.4487,6.0998,0.0,0.0,0.0,0.0,0.0,0.0,0.0,0.0,0.0,0.0,0.0,0.0,0.0,0.0,0.0,0.0,0.0,0.0,0.0,0.0,0.0,0.0,0.0,4.874,0.0,0.0,0.0,0.0,0.0,0.0,0.0,0.0,0.0,5.3136,5.4051,5.5671,5.8026,5.824,5.919,6.1844,0.0,0.0,0.0,0.0,0.0,0.0,0.0,6.1399,5.9832,5.9551,5.8781,5.6423,5.5124,5.4394,5.4394,0.0,0.0,5.2309,5.1645,5.1474,5.1725,5.1768,5.1862,5.2303,5.2351,5.2685,0.0,0.0,0.0,0.0,0.0,0.0,0.0,0.0,0.0,5.2886,5.19,0.0,0.0,0.0,0.0,0.0,0.0,0.0,0.0,0.0,0.0,0.0,5.9617,5.878,0.0,0.0,0.0,0.0,0.0,0.0,0.0,0.0,0.0,0.0,0.0,0.0,6.58,6.9242,7.1297,7.3502,7.584,7.6358,7.631,7.5843,7.4373,7.1997,6.8625,0.0,0.0,0.0,0.0,0.0,0.0,0.0,0.0,0.0,0.0,0.0,0.0,0.0,0.0,0.0,0.0,0.0,0.0,0.0,0.0,0.0,0.0,0.0,0.0,0.0,4.7071,0.0,0.0,0.0,0.0,0.0,0.0,0.0,0.0,0.0,0.0,5.2209,5.3887,5.6264,5.6896,5.8111,6.0764,6.1302,6.1819,0.0,0.0,0.0,0.0,0.0,0.0,0.0,0.0,0.0,0.0,0.0,0.0,0.0,0.0,4.9565,4.8461,4.8336,4.8294,4.8051,0.0,0.0,0.0,0.0,0.0,0.0,0.0,0.0,0.0,0.0,0.0,0.0,0.0,0.0,0.0,4.7603,0.0,0.0,4.7406,0.0,0.0,0.0,0.0,0.0,0.0,0.0,0.0,0.0,0.0,0.0,0.0,0.0,0.0,0.0,0.0,0.0,0.0,0.0,0.0,0.0,0.0,6.3413,6.7884,6.9077,7.1693,7.5821,7.4655,7.4474,7.5482,7.1523,6.9309,6.9294,0.0,0.0,0.0,0.0,0.0,0.0,0.0,0.0,0.0,0.0,0.0,0.0,0.0,0.0,0.0,0.0,0.0,0.0,0.0,0.0,0.0,0.0,0.0,0.0,0.0,0.0,4.4236,4.5395,4.6803,0.0,0.0,0.0,0.0,0.0,0.0,0.0,0.0,0.0,5.3745,5.5093,5.6853,5.9252,6.1731,6.4017,6.6538,6.787,6.7724,6.4821,6.2023,5.9447,0.0,0.0,0.0,0.0,0.0,0.0,0.0,0.0,0.0,0.0,0.0,0.0,0.0,0.0,0.0,0.0,0.0,0.0,0.0,0.0,0.0,0.0,0.0,0.0,0.0,0.0,0.0,0.0,0.0,0.0,0.0,0.0,0.0,0.0,0.0,0.0,0.0,0.0,0.0,0.0,0.0,0.0,0.0,0.0,0.0,0.0,0.0,0.0,0.0,0.0,0.0,0.0,0.0,0.0,6.1327,6.4743,6.7776,7.0483,7.2866,7.3436,7.3446,7.2807,7.0438,6.7861,0.0,0.0,0.0,0.0,0.0,0.0,0.0,0.0,0.0,0.0,0.0,0.0,0.0,0.0,0.0,0.0,0.0,0.0,0.0,0.0,0.0,0.0,0.0,0.0,0.0,0.0,0.0,0.0,4.4491,4.496,4.5409,0.0,0.0,0.0,0.0,0.0,0.0,0.0,0.0,0.0,0.0,5.5511,5.7252,5.8488,5.9435,6.0135,6.0066,5.9632,5.8677,5.7419,5.6139,5.4885,0.0,0.0,0.0,0.0,0.0,0.0,0.0,0.0,0.0,0.0,0.0,0.0,0.0,0.0,0.0,0.0,0.0,0.0,0.0,0.0,0.0,0.0,0.0,0.0,0.0,0.0,0.0,0.0,0.0,0.0,0.0,0.0,0.0,0.0,0.0,0.0,0.0,0.0,0.0,0.0,0.0,0.0,0.0,0.0,0.0,0.0,0.0,0.0,0.0,0.0,0.0,0.0,0.0,5.964,6.2766,6.609,6.8886,7.0933,7.1936,7.1958,7.0945,6.8857,6.6018,0.0,0.0,0.0,0.0,0.0,0.0,0.0,0.0,0.0,0.0,0.0,0.0,0.0,0.0,0.0,0.0,0.0,0.0,0.0,0.0,0.0,0.0,0.0,0.0,0.0,0.0,0.0,0.0,4.4135,4.4135,4.4135,0.0,0.0,0.0,0.0,0.0,0.0,0.0,0.0,0.0,0.0,5.4242,5.5546,5.6547,0.0,0.0,5.6497,5.6145,5.6054,5.4983,5.3929,5.3079,5.2341,0.0,0.0,0.0,0.0,0.0,0.0,0.0,0.0,0.0,0.0,0.0,0.0,0.0,0.0,0.0,0.0,0.0,0.0,0.0,0.0,0.0,0.0,0.0,0.0,0.0,0.0,0.0,0.0,0.0,0.0,0.0,0.0,0.0,0.0,0.0,0.0,0.0,0.0,0.0,0.0,0.0,0.0,0.0,0.0,0.0,0.0,0.0,0.0,0.0,0.0,0.0,0.0,5.8368,6.1593,6.4332,6.7123,6.9875,7.0212,7.0195,6.9789,6.6884,6.4083,0.0,0.0,0.0,0.0,0.0,0.0,0.0,0.0,0.0,0.0,0.0,0.0,0.0,0.0,0.0,0.0,0.0,0.0,0.0,0.0,0.0,0.0,0.0,0.0,0.0,0.0,0.0,0.0,0.0,0.0,0.0,0.0,0.0,0.0,0.0,0.0,0.0,0.0,0.0,0.0,0.0,5.2826,5.401,5.5469,5.6429,0.0,5.6351,5.6371,5.6114,5.4169,5.2461,5.1736,0.0,0.0,0.0,0.0,0.0,0.0,0.0,0.0,0.0,0.0,0.0,0.0,0.0,0.0,0.0,0.0,0.0,0.0,0.0,0.0,0.0,0.0,0.0,0.0,0.0,0.0,0.0,0.0,0.0,0.0,0.0,0.0,0.0,0.0,0.0,0.0,0.0,0.0,0.0,0.0,0.0,0.0,0.0,0.0,0.0,0.0,0.0,0.0,0.0,0.0,0.0,0.0,0.0,0.0,5.966,6.3508,6.6384,6.8072,6.9408,6.9454,6.8108,6.6273,0.0,0.0,0.0,0.0,0.0,0.0,0.0,0.0,0.0,0.0,0.0,0.0,0.0,0.0,0.0,0.0,0.0,0.0,0.0,0.0,0.0,0.0,0.0,0.0,0.0,0.0,0.0,4.2962,0.0,0.0,0.0,0.0,0.0,0.0,0.0,0.0,0.0,0.0,0.0,0.0,0.0,0.0,4.9951,5.1357,5.2771,5.4006,0.0,0.0,5.4955,5.3679,5.2061,5.053,0.0,0.0,0.0,0.0,0.0,0.0,0.0,0.0,0.0,0.0,0.0,0.0,0.0,0.0,0.0,0.0,0.0,0.0,0.0,0.0,0.0,0.0,0.0,0.0,0.0,0.0,0.0,0.0,0.0,0.0,0.0,0.0,0.0,0.0,0.0,0.0,0.0,0.0,0.0,0.0,0.0,0.0,0.0,0.0,0.0,0.0,0.0,0.0,0.0,0.0,0.0,0.0,0.0,0.0,5.747,5.8351,6.2543,6.5467,6.693,6.7863,6.7917,6.6964,6.4725,6.1891,0.0,0.0,0.0,0.0,0.0,0.0,0.0,0.0,0.0,0.0,0.0,0.0,0.0,0.0,0.0,0.0,0.0,0.0,0.0,0.0,0.0,0.0,0.0,0.0,0.0,0.0,0.0,0.0,0.0,0.0,0.0,0.0,0.0,0.0,0.0,0.0,0.0,0.0,0.0,0.0,0.0,0.0,4.9409,5.0875,0.0,0.0,0.0,5.2518,5.0822,0.0,0.0,0.0,0.0,0.0,0.0,0.0,0.0,0.0,0.0,0.0,0.0,0.0,0.0,0.0,0.0,0.0,0.0,0.0,0.0,0.0,0.0,0.0,0.0,0.0,0.0,0.0,0.0,0.0,0.0,0.0,0.0,0.0,0.0,0.0,0.0,0.0,0.0,0.0,0.0,0.0,0.0,0.0,0.0,0.0,0.0,0.0,0.0,0.0,0.0,0.0,0.0,0.0,0.0,0.0,0.0,0.0,5.7473,6.1433,6.4408,6.6119,6.6272,6.6258,6.6186,6.2989,6.0019,0.0,0.0,0.0,0.0,0.0,0.0,0.0,0.0,0.0,0.0,0.0,0.0,0.0,0.0,0.0,0.0,0.0,0.0,0.0,0.0,0.0,0.0,0.0,0.0,0.0,0.0,0.0,0.0,0.0,0.0,0.0,0.0,0.0,0.0,0.0,0.0,0.0,0.0,0.0,0.0,0.0,4.6514,4.7935,4.9358,4.9716,0.0,0.0,4.9736,4.8082,4.7806,0.0,0.0,0.0,0.0,0.0,0.0,0.0,0.0,0.0,0.0,0.0,0.0,0.0,0.0,0.0,0.0,0.0,0.0,0.0,0.0,0.0,0.0,0.0,0.0,0.0,0.0,0.0,0.0,0.0,0.0,0.0,0.0,0.0,0.0,0.0,0.0,0.0,0.0,0.0,0.0,0.0,0.0,0.0,0.0,0.0,0.0,0.0,0.0,0.0,0.0,0.0,0.0,0.0,0.0,0.0,0.0,5.7255,6.0484,6.3446,6.5859,6.6181,6.6181,6.594,6.2955,6.0088,0.0,0.0,0.0,0.0,0.0,0.0,0.0,0.0,0.0,0.0,0.0,0.0,0.0,0.0,0.0,0.0,0.0,0.0,0.0,0.0,0.0,0.0,0.0,0.0,0.0,0.0,0.0,0.0,0.0,0.0,0.0,0.0,0.0,0.0,0.0,0.0,0.0,0.0,0.0,0.0,0.0,4.5081,4.6494,4.6956,0.0,0.0,0.0,0.0,4.686,4.6593,0.0,0.0,0.0,0.0,0.0,0.0,0.0,0.0,0.0,0.0,0.0,0.0,0.0,0.0,0.0,0.0,0.0,0.0,0.0,0.0,0.0,0.0,0.0,0.0,0.0,0.0,0.0,0.0,0.0,0.0,0.0,0.0,0.0,0.0,0.0,0.0,0.0,0.0,0.0,0.0,0.0,0.0,0.0,0.0,0.0,0.0,0.0,0.0,0.0,0.0,0.0,0.0,0.0,0.0,0.0,0.0,5.7239,5.9447,6.2023,6.4847,6.4406,6.4425,6.4847,6.1312,5.8657,0.0,0.0,0.0,0.0,0.0,0.0,0.0,0.0,0.0,0.0,0.0,0.0,0.0,0.0,0.0,0.0,0.0,0.0,0.0,0.0,0.0,0.0,0.0,0.0,0.0,0.0,0.0,0.0,0.0,0.0,0.0,0.0,0.0,0.0,0.0,0.0,0.0,0.0,0.0,0.0,4.4135,4.439,4.5114,0.0,0.0,0.0,0.0,0.0,0.0,4.5228,4.4993,0.0,0.0,0.0,0.0,0.0,0.0,0.0,0.0,0.0,0.0,0.0,0.0,0.0,0.0,0.0,0.0,0.0,0.0,0.0,0.0,0.0,0.0,0.0,0.0,0.0,0.0,0.0,0.0,0.0,0.0,0.0,0.0,0.0,0.0,0.0,0.0,0.0,0.0,0.0,0.0,0.0,0.0,0.0,0.0,0.0,0.0,0.0,0.0,0.0,0.0,0.0,0.0,0.0,0.0,0.0,5.6954,5.8292,6.0466,6.3453,6.2417,6.2484,6.3736,5.9512,5.7105,5.6769,0.0,0.0,0.0,0.0,0.0,0.0,0.0,0.0,0.0,0.0,0.0,0.0,0.0,0.0,0.0,0.0,0.0,0.0,0.0,0.0,0.0,0.0,0.0,0.0,0.0,0.0,0.0,0.0,0.0,0.0,0.0,0.0,0.0,0.0,0.0,0.0,0.0,0.0,0.0,4.4135,4.4135,0.0,0.0,0.0,0.0,0.0,0.0,0.0,0.0,4.4135,0.0,0.0,0.0,0.0,0.0,0.0,0.0,0.0,0.0,0.0,0.0,0.0,0.0,0.0,0.0,0.0,0.0,0.0,0.0,0.0,0.0,0.0,0.0,0.0,0.0,0.0,0.0,0.0,0.0,0.0,0.0,0.0,0.0,0.0,0.0,0.0,0.0,0.0,0.0,0.0,0.0,0.0,0.0,0.0,0.0,0.0,0.0,0.0,0.0,0.0,0.0,0.0,0.0,0.0,0.0,0.0,5.6904,5.9046,6.1819,6.1861,6.2479,6.365,5.9475,5.667,5.5512,0.0,0.0,0.0,0.0,0.0,0.0,0.0,0.0,0.0,0.0,0.0,0.0,0.0,0.0,0.0,0.0,0.0,0.0,0.0,0.0,0.0,0.0,0.0,0.0,0.0,0.0,0.0,0.0,0.0,0.0,0.0,0.0,0.0,0.0,0.0,0.0,0.0,0.0,4.4135,4.4135,0.0,0.0,0.0,0.0,0.0,0.0,0.0,0.0,4.4135,0.0,0.0,0.0,0.0,0.0,0.0,0.0,0.0,0.0,0.0,0.0,0.0,0.0,0.0,0.0,0.0,0.0,0.0,0.0,0.0,0.0,0.0,0.0,0.0,0.0,0.0,0.0,0.0,0.0,0.0,0.0,0.0,0.0,0.0,0.0,0.0,0.0,0.0,0.0,0.0,0.0,0.0,0.0,0.0,0.0,0.0,0.0,0.0,0.0,0.0,0.0,0.0,0.0,0.0,0.0,0.0,0.0,0.0,5.8746,6.1025,6.1887,6.2276,6.2004,5.8426,5.5605,0.0,0.0,0.0,0.0,0.0,0.0,0.0,0.0,0.0,0.0,0.0,0.0,0.0,0.0,0.0,0.0,0.0,0.0,0.0,0.0,0.0,0.0,0.0,0.0,0.0,0.0,0.0,0.0,0.0,0.0,0.0,0.0,0.0,0.0,0.0,0.0,0.0,0.0,0.0,0.0,0.0,0.0,0.0,0.0,0.0,0.0,0.0,0.0,0.0,0.0,0.0,0.0,0.0,0.0,0.0,0.0,0.0,0.0,0.0,0.0,0.0,0.0,0.0,0.0,0.0,0.0,0.0,0.0,0.0,0.0,0.0,0.0,0.0,0.0,0.0,0.0,0.0,0.0,0.0,0.0,0.0,0.0,0.0,0.0,0.0,0.0,0.0,0.0,0.0,0.0,0.0,0.0,0.0,0.0,0.0,0.0,0.0,0.0,0.0,0.0,0.0,0.0,0.0,0.0,0.0,0.0,0.0,0.0,5.8357,5.9616,6.1162,6.1367,6.0095,5.7156,5.4649,0.0,0.0,0.0,0.0,0.0,0.0,0.0,0.0,0.0,0.0,0.0,0.0,0.0,0.0,0.0,0.0,0.0,0.0,0.0,0.0,0.0,0.0,0.0,0.0,0.0,0.0,0.0,0.0,0.0,0.0,0.0,0.0,0.0,0.0,0.0,0.0,0.0,0.0,0.0,0.0,0.0,0.0,0.0,0.0,0.0,0.0,0.0,0.0,4.4135,0.0,0.0,0.0,0.0,0.0,0.0,0.0,0.0,0.0,0.0,0.0,0.0,0.0,0.0,0.0,0.0,0.0,0.0,0.0,0.0,0.0,0.0,0.0,0.0,0.0,0.0,0.0,0.0,0.0,0.0,0.0,0.0,0.0,0.0,0.0,0.0,0.0,0.0,0.0,0.0,0.0,0.0,0.0,0.0,0.0,0.0,0.0,0.0,0.0,0.0,0.0,0.0,0.0,0.0,0.0,0.0,0.0,0.0,0.0,5.6814,5.6361,5.8366,5.9073,5.8202,5.6086,5.4104,0.0,0.0,0.0,0.0,0.0,0.0,0.0,0.0,0.0,0.0,0.0,0.0,0.0,0.0,0.0,0.0,0.0,0.0,0.0,0.0,0.0,0.0,0.0,0.0,0.0,0.0,0.0,0.0,0.0,0.0,0.0,0.0,0.0,0.0,0.0,0.0,0.0,0.0,0.0,0.0,0.0,0.0,0.0,0.0,0.0,0.0,0.0,0.0,0.0,0.0,0.0,0.0,0.0,0.0,0.0,0.0,0.0,0.0,0.0,0.0,0.0,0.0,0.0,0.0,0.0,0.0,0.0,0.0,0.0,0.0,0.0,0.0,0.0,0.0,0.0,0.0,0.0,0.0,0.0,0.0,0.0,0.0,0.0,0.0,0.0,0.0,0.0,0.0,0.0,0.0,0.0,0.0,0.0,0.0,0.0,0.0,0.0,0.0,0.0,0.0,0.0,0.0,0.0,0.0,0.0,0.0,0.0,0.0,5.6619,5.704,5.8476,5.792,5.5301,5.4404,5.2456,0.0,0.0,0.0,0.0,0.0,0.0,0.0,0.0,0.0,0.0,0.0,0.0,0.0,0.0,0.0,0.0,0.0,0.0,0.0,0.0,0.0,0.0,0.0,0.0,0.0,0.0,0.0,0.0,0.0,0.0,0.0,0.0,0.0,0.0,0.0,0.0,0.0,0.0,0.0,0.0,0.0,0.0,0.0,0.0,0.0,0.0,0.0,0.0,0.0,0.0,0.0,0.0,0.0,0.0,0.0,0.0,0.0,0.0,0.0,0.0,0.0,0.0,0.0,0.0,0.0,0.0,0.0,0.0,0.0,0.0,0.0,0.0,0.0,0.0,0.0,0.0,0.0,0.0,0.0,0.0,0.0,0.0,0.0,0.0,0.0,0.0,0.0,0.0,0.0,0.0,0.0,0.0,0.0,0.0,0.0,0.0,0.0,0.0,0.0,0.0,0.0,0.0,0.0,0.0,0.0,0.0,0.0,0.0,0.0,5.7282,5.7559,5.6361,5.3563,5.2542,5.0581,0.0,0.0,0.0,0.0,0.0,0.0,0.0,0.0,0.0,0.0,0.0,0.0,0.0,0.0,0.0,0.0,0.0,0.0,0.0,0.0,0.0,0.0,0.0,0.0,0.0,0.0,0.0,0.0,0.0,0.0,0.0,0.0,0.0,0.0,0.0,0.0,0.0,0.0,0.0,0.0,0.0,0.0,0.0,0.0,0.0,0.0,0.0,0.0,0.0,0.0,0.0,0.0,0.0,0.0,0.0,0.0,0.0,0.0,0.0,0.0,0.0,0.0,0.0,0.0,0.0,0.0,0.0,0.0,0.0,0.0,0.0,0.0,0.0,0.0,0.0,0.0,0.0,0.0,0.0,0.0,0.0,0.0,0.0,0.0,0.0,0.0,0.0,0.0,0.0,0.0,0.0,0.0,0.0,0.0,0.0,0.0,0.0,0.0,0.0,0.0,0.0,0.0,0.0,0.0,0.0,0.0,0.0,0.0,0.0,5.5702,5.435,5.3716,5.3878,5.0649,4.8721,0.0,0.0,0.0,0.0,0.0,0.0,0.0,0.0,0.0,0.0,0.0,0.0,0.0,0.0,0.0,0.0,0.0,0.0,0.0,0.0,0.0,0.0,0.0,0.0,0.0,0.0,0.0,0.0,0.0,0.0,0.0,0.0,0.0,0.0,0.0,0.0,0.0,0.0,0.0,0.0,0.0,0.0,0.0,0.0,0.0,0.0,0.0,0.0,0.0,0.0,0.0,0.0,0.0,0.0,0.0,0.0,0.0,0.0,0.0,0.0,0.0,0.0,0.0,0.0,0.0,0.0,0.0,0.0,0.0,0.0,0.0,0.0,0.0,0.0,0.0,0.0,0.0,0.0,0.0,0.0,0.0,0.0,0.0,0.0,0.0,0.0,0.0,0.0,0.0,0.0,0.0,0.0,0.0,0.0,0.0,0.0,0.0,0.0,0.0,0.0,0.0,0.0,0.0,0.0,0.0,0.0,0.0,0.0,0.0,5.315,5.2605,5.1909,5.1134,4.9806,4.8457,4.719,0.0,0.0,0.0,0.0,0.0,0.0,0.0,0.0,0.0,0.0,0.0,0.0,0.0,0.0,0.0,0.0,0.0,0.0,0.0,0.0,0.0,0.0,0.0,0.0,0.0,0.0,0.0,0.0,0.0,0.0,0.0,0.0,0.0,0.0,0.0,0.0,0.0,0.0,0.0,0.0,0.0,0.0,0.0,0.0,0.0,0.0,0.0,0.0,0.0,0.0,0.0,0.0,0.0,0.0,0.0,0.0,0.0,0.0,0.0,0.0,0.0,0.0,0.0,0.0,0.0,0.0,0.0,0.0,0.0,0.0,0.0,0.0,0.0,0.0,0.0,0.0,0.0,0.0,0.0,0.0,0.0,0.0,0.0,0.0,0.0,0.0,0.0,0.0,0.0,0.0,0.0,0.0,0.0,0.0,0.0,0.0,0.0,0.0,0.0,0.0,0.0,0.0,0.0,0.0,0.0,0.0,0.0,0.0,5.0961,5.0981,5.0482,4.9405,4.8905,4.7891,0.0,0.0,0.0,0.0,0.0,0.0,0.0,0.0,0.0,0.0,0.0,0.0,0.0,0.0,0.0,0.0,0.0,0.0,0.0,0.0,0.0,0.0,0.0,0.0,0.0,0.0,0.0,0.0,0.0,0.0,0.0,0.0,0.0,0.0,0.0,0.0,0.0,0.0,0.0,0.0,0.0,0.0,0.0,0.0,0.0,0.0,0.0,0.0,0.0,0.0,0.0,0.0,0.0,0.0,0.0,0.0,0.0,0.0,0.0,0.0,0.0,0.0,0.0,0.0,0.0,0.0,0.0,0.0,0.0,0.0,0.0,0.0,0.0,0.0,0.0,0.0,0.0,0.0,0.0,0.0,0.0,0.0,0.0,0.0,0.0,0.0,0.0,0.0,0.0,0.0,0.0,0.0,0.0,0.0,0.0,0.0,0.0,0.0,0.0,0.0,0.0,0.0,0.0,0.0,0.0,0.0,0.0,0.0,4.6271,4.9181,4.9334,4.9288,4.9334,4.7896,4.6841,0.0,0.0,0.0,0.0,0.0,0.0,0.0,0.0,0.0,0.0,0.0,0.0,0.0,0.0,0.0,0.0,0.0,0.0,0.0,0.0,0.0,0.0,0.0,0.0,0.0,0.0,0.0,0.0,0.0,0.0,0.0,0.0,0.0,0.0,0.0,0.0,0.0,0.0,0.0,0.0,0.0,0.0,0.0,0.0,0.0,0.0,0.0,0.0,0.0,0.0,0.0,0.0,0.0,0.0,0.0,0.0,0.0,0.0,0.0,0.0,0.0,0.0,0.0,0.0,0.0,0.0,0.0,0.0,0.0,0.0,0.0,0.0,0.0,0.0,0.0,0.0,0.0,0.0,0.0,0.0,0.0,0.0,0.0,0.0,0.0,0.0,0.0,0.0,0.0,0.0,0.0,0.0,0.0,0.0,0.0,0.0,0.0,0.0,0.0,0.0,0.0,0.0,0.0,0.0,0.0,0.0,0.0,0.0,0.0,4.4568,0.0,4.6736,4.7708,4.728,4.6965,0.0,0.0,0.0,0.0,0.0,0.0,0.0,0.0,0.0,0.0,0.0,0.0,0.0,0.0,0.0,0.0,0.0,0.0,0.0,0.0,0.0,0.0,0.0,0.0,0.0,0.0,0.0,0.0,0.0,0.0,0.0,0.0,0.0,0.0,0.0,0.0,0.0,0.0,0.0,0.0,0.0,0.0,0.0,0.0,0.0,0.0,0.0,0.0,0.0,0.0,0.0,0.0,0.0,0.0,0.0,0.0,0.0,0.0,0.0,0.0,0.0,0.0,0.0,0.0,0.0,0.0,0.0,0.0,0.0,0.0,0.0,0.0,0.0,0.0,0.0,0.0,0.0,0.0,0.0,0.0,0.0,0.0,0.0,0.0,0.0,0.0,0.0,0.0,0.0,0.0,0.0,0.0,0.0,0.0,0.0,0.0,0.0,0.0,0.0,0.0,0.0,0.0,0.0,0.0,0.0,0.0,0.0,0.0,0.0,4.1491,4.3632,4.5442,4.6959,4.703,4.703,0.0,0.0,0.0,0.0,0.0,0.0,0.0,0.0,0.0,0.0,0.0,0.0,0.0,0.0,0.0,0.0,0.0,0.0,0.0,0.0,0.0,0.0,0.0,0.0,0.0,0.0,0.0,0.0,0.0,0.0,0.0,0.0,0.0,0.0,0.0,0.0,0.0,0.0,0.0,0.0,0.0,0.0,0.0,0.0,0.0,0.0,0.0,0.0,0.0,0.0,0.0,0.0,0.0,0.0,0.0,0.0,0.0,0.0,0.0,0.0,0.0,0.0,0.0,0.0,0.0,0.0,0.0,0.0,0.0,0.0,0.0,0.0,0.0,0.0,0.0,0.0,0.0,0.0,0.0,0.0,0.0,0.0,0.0,0.0,0.0,0.0,0.0,0.0,0.0,0.0,0.0,0.0,0.0,0.0,0.0,0.0,0.0,0.0,0.0,0.0,0.0,0.0,0.0,0.0,0.0,0.0,0.0,0.0,0.0,3.9826,4.283,4.5219,4.6709,4.6995,4.703,0.0,0.0,0.0,0.0,0.0,0.0,0.0,0.0,0.0,0.0,0.0,0.0,0.0,0.0,0.0,0.0,0.0,0.0,0.0,0.0,0.0,0.0,0.0,0.0,0.0,0.0,0.0,0.0,0.0,0.0,0.0,0.0,0.0,0.0,0.0,0.0,0.0,0.0,0.0,0.0,0.0,0.0,0.0,0.0,0.0,0.0,0.0,0.0,0.0,0.0,0.0,0.0,0.0,0.0,0.0,0.0,0.0,0.0,0.0,0.0,0.0,0.0,0.0,0.0,0.0,0.0,0.0,0.0,0.0,0.0,0.0,0.0,0.0,0.0,0.0,0.0,0.0,0.0,0.0,0.0,0.0,0.0,0.0,0.0,0.0,0.0,0.0,0.0,0.0,0.0,0.0,0.0,0.0,0.0,0.0,0.0,0.0,0.0,0.0,0.0,0.0,0.0,0.0,0.0,0.0,0.0,0.0,0.0,0.0,0.0,4.0155,4.1974,4.3649,4.5862,4.703,4.703,0.0,0.0,0.0,0.0,0.0,0.0,0.0,0.0,0.0,0.0,0.0,0.0,0.0,0.0,0.0,0.0,0.0,0.0,0.0,0.0,0.0,0.0,0.0,0.0,0.0,0.0,0.0,0.0,0.0,0.0,0.0,0.0,0.0,0.0,0.0,0.0,0.0,0.0,0.0,0.0,0.0,0.0,0.0,0.0,0.0,0.0,0.0,0.0,0.0,0.0,0.0,0.0,0.0,0.0,0.0,0.0,0.0,0.0,0.0,0.0,0.0,0.0,0.0,0.0,0.0,0.0,0.0,0.0,0.0,0.0,0.0,0.0,0.0,0.0,0.0,0.0,0.0,0.0,0.0,0.0,0.0,0.0,0.0,0.0,0.0,0.0,0.0,0.0,0.0,0.0,0.0,0.0,0.0,0.0,0.0,0.0,0.0,0.0,0.0,0.0,0.0,0.0,0.0,0.0,0.0,0.0,0.0,0.0,0.0,0.0,4.0627,4.2329,4.4773,4.6379,0.0,0.0,0.0,0.0,0.0,0.0,0.0,0.0,0.0,0.0,0.0,0.0,0.0,0.0,0.0,0.0,0.0,0.0,0.0,0.0,0.0,0.0,0.0,0.0,0.0,0.0,0.0,0.0,0.0,0.0,0.0,0.0,0.0,0.0,0.0,0.0,0.0,0.0,0.0,0.0,0.0,0.0,0.0,0.0,0.0,0.0,0.0,0.0,0.0,0.0,0.0,0.0,0.0,0.0,0.0,0.0,0.0,0.0,0.0,0.0,0.0,0.0,0.0,0.0,0.0,0.0,0.0,0.0,0.0,0.0,0.0,0.0,0.0,0.0,0.0,0.0,0.0,0.0,0.0,0.0,0.0,0.0,0.0,0.0,0.0,0.0,0.0,0.0,0.0,0.0,0.0,0.0,0.0,0.0,0.0,0.0,0.0,0.0,0.0,0.0,0.0,0.0,0.0,0.0,0.0,0.0,0.0,0.0,0.0,0.0,0.0,4.052,4.2337,4.3774,0.0,4.6888,0.0,0.0,0.0,0.0,0.0,0.0,0.0,0.0,0.0,0.0,0.0,0.0,0.0,0.0,0.0,0.0,0.0,0.0,0.0,0.0,0.0,0.0,0.0,0.0,0.0,0.0,0.0,0.0,0.0,0.0,0.0,0.0,0.0,0.0,0.0,0.0,0.0,0.0,0.0,0.0,0.0,0.0,0.0,0.0,0.0,0.0,0.0,0.0,0.0,0.0,0.0,0.0,0.0,0.0,0.0,0.0,0.0,0.0,0.0,0.0,0.0,0.0,0.0,0.0,0.0,0.0,0.0,0.0,0.0,0.0,0.0,0.0,0.0,0.0,0.0,0.0,0.0,0.0,0.0,0.0,0.0,0.0,0.0,0.0,0.0,0.0,0.0,0.0,0.0,0.0,0.0,0.0,0.0,0.0,0.0,0.0,0.0,0.0,0.0,0.0,0.0,0.0,0.0,0.0,0.0,0.0,0.0,0.0,0.0,0.0,0.0,0.0,4.2713,4.4176,4.6888,0.0,0.0,0.0,0.0,0.0,0.0,0.0,0.0,0.0,0.0,0.0,0.0,0.0,0.0,0.0,0.0,0.0,0.0,0.0,0.0,0.0,0.0,0.0,0.0,0.0,0.0,0.0,0.0,0.0,0.0,0.0,0.0,0.0,0.0,0.0,0.0,0.0,0.0,0.0,0.0,0.0,0.0,0.0,0.0,0.0,0.0,0.0,0.0,0.0,0.0,0.0,0.0,0.0,0.0,0.0,0.0,0.0,0.0,0.0,0.0,0.0,0.0,0.0,0.0,0.0,0.0,0.0,0.0,0.0,0.0,0.0,0.0,0.0,0.0,0.0,0.0,0.0,0.0,0.0,0.0,0.0,0.0,0.0,0.0,0.0,0.0,0.0,0.0,0.0,0.0,0.0,0.0,0.0,0.0,0.0,0.0,0.0,0.0,0.0,0.0,0.0,0.0,0.0,0.0,0.0,0.0,0.0,0.0,0.0,0.0,3.9787,4.2301,4.3078,4.4559,4.6914,0.0,0.0,0.0,0.0,0.0,0.0,0.0,0.0,0.0,0.0,0.0,0.0,0.0,0.0,0.0,0.0,0.0,0.0,0.0,0.0,0.0,0.0,0.0,0.0,0.0,0.0,0.0,0.0,0.0,0.0,0.0,0.0,0.0,0.0,0.0,0.0,0.0,0.0,0.0,0.0,0.0,0.0,0.0,0.0,0.0,0.0,0.0,0.0,0.0,0.0,0.0,0.0,0.0,0.0,0.0,0.0,0.0,0.0,0.0,0.0,0.0,0.0,0.0,0.0,0.0,0.0,0.0,0.0,0.0,0.0,0.0,0.0,0.0,0.0,0.0,0.0,0.0,0.0,0.0,0.0,0.0,0.0,0.0,0.0,0.0,0.0,0.0,0.0,0.0,0.0,0.0,0.0,0.0,0.0,0.0,0.0,0.0,0.0,0.0,0.0,0.0,0.0,0.0,0.0,0.0,0.0,0.0,0.0,0.0,0.0,0.0,0.0,0.0,0.0,4.695,0.0,0.0,0.0,0.0,0.0,0.0,0.0,0.0,0.0,0.0,0.0,0.0,0.0,0.0,0.0,0.0,0.0,0.0,0.0,0.0,0.0,0.0,0.0,0.0,0.0,0.0,0.0,0.0,0.0,0.0,0.0,0.0,0.0,0.0,0.0,0.0,0.0,0.0,0.0,0.0,0.0,0.0,0.0,0.0,0.0,0.0,0.0,0.0,0.0,0.0,0.0,0.0,0.0,0.0,0.0,0.0,0.0,0.0,0.0,0.0,0.0,0.0,0.0,0.0,0.0,0.0,0.0,0.0,0.0,0.0,0.0,0.0,0.0,0.0,0.0,0.0,0.0,0.0,0.0,0.0,0.0,0.0,0.0,0.0,0.0,0.0,0.0,0.0,0.0,0.0,0.0,0.0,0.0,0.0,0.0,0.0,0.0,0.0,0.0,0.0,0.0,0.0,0.0,0.0,0.0,0.0,0.0,0.0,0.0,0.0,0.0,0.0,0.0,0.0,0.0,0.0,0.0,0.0,0.0,0.0,0.0,0.0,0.0,0.0,0.0,0.0,0.0,0.0,0.0,0.0,0.0,0.0,0.0,0.0,0.0,0.0,0.0,0.0,0.0,0.0,0.0,0.0,0.0,0.0,0.0,0.0,0.0,0.0,0.0,0.0,0.0,0.0,0.0,0.0,0.0,0.0,0.0,0.0,0.0,0.0,0.0,0.0,0.0,0.0,0.0,0.0,0.0,0.0,0.0,0.0,0.0,0.0,0.0,0.0,0.0,0.0,0.0,0.0,0.0,0.0,0.0,0.0,0.0,0.0,0.0,0.0,0.0,0.0,0.0,0.0,0.0,0.0,0.0,0.0,0.0,0.0,0.0,0.0,0.0,0.0,0.0,0.0,0.0,0.0,0.0,0.0,0.0,0.0,0.0,0.0,0.0,0.0,0.0,0.0,0.0,0.0,0.0,0.0,0.0,0.0,0.0,0.0,0.0,0.0,0.0,0.0,0.0,0.0,0.0,0.0,0.0,0.0,0.0,0.0,0.0,0.0,0.0,0.0,0.0,0.0,0.0,0.0,0.0,0.0,0.0,0.0,0.0,0.0,0.0,0.0,0.0,0.0,0.0,0.0,0.0,0.0,0.0,0.0,0.0,0.0,0.0,0.0,0.0,0.0,0.0,0.0,0.0,0.0,0.0,0.0,0.0,0.0,0.0,0.0,0.0,0.0,0.0,0.0,0.0,0.0,0.0,0.0,0.0,0.0,0.0,0.0,0.0,0.0,0.0,0.0,0.0,0.0,0.0,0.0,0.0,0.0,0.0,0.0,0.0,0.0,0.0,0.0,0.0,0.0,0.0,0.0,0.0,0.0,0.0,0.0,0.0,0.0,0.0,0.0,0.0,0.0,0.0,0.0,0.0,0.0,0.0,0.0,0.0,0.0,0.0,0.0,0.0,0.0,0.0,0.0,0.0,0.0,0.0,0.0,0.0,0.0,0.0,0.0,0.0,0.0,0.0,0.0,0.0,0.0,0.0,0.0,0.0,0.0,0.0,0.0,0.0,0.0,0.0,0.0,0.0,0.0,0.0,0.0,0.0,0.0,0.0,0.0,0.0,0.0,0.0,0.0,0.0,0.0,0.0,0.0,0.0,0.0,0.0,0.0,0.0,0.0,0.0,0.0,0.0,0.0,0.0,0.0,0.0,0.0,0.0,0.0,0.0,0.0,0.0,0.0,0.0,0.0,0.0,0.0,0.0,0.0,0.0,0.0,0.0,0.0,0.0,0.0,0.0,0.0,0.0,0.0,0.0,0.0,0.0,0.0,0.0,0.0,0.0,0.0,0.0,0.0,0.0,0.0,0.0,0.0,0.0,0.0,0.0,0.0,0.0,0.0,0.0,0.0,0.0,0.0,0.0,0.0,0.0,0.0,0.0,0.0,0.0,0.0,0.0,0.0,0.0,0.0,0.0,0.0,0.0,0.0,0.0,0.0,0.0,0.0,0.0,0.0,0.0,0.0,0.0,0.0,0.0,0.0,0.0,0.0,0.0,0.0,0.0,0.0,0.0,0.0,0.0,0.0,0.0,0.0,0.0,0.0,0.0,0.0,0.0,0.0,0.0,0.0,0.0,0.0,0.0,0.0,0.0,0.0,0.0,0.0,0.0,0.0,0.0,0.0,0.0,0.0,0.0,0.0,0.0,0.0,0.0,0.0,0.0,0.0,0.0,0.0,0.0,0.0,0.0,0.0,0.0,0.0,0.0,0.0,0.0,0.0,0.0,0.0,0.0,0.0,0.0,0.0,0.0,0.0,0.0,0.0,0.0,0.0,0.0,0.0,0.0,0.0,0.0,0.0,0.0,0.0,0.0,0.0,0.0,0.0,0.0,0.0,0.0,0.0,0.0,0.0,0.0,0.0,0.0,0.0,0.0,0.0,0.0,0.0,0.0,0.0,0.0,0.0,0.0,0.0,0.0,0.0,0.0,0.0,0.0,0.0,0.0,0.0,0.0,0.0,0.0,0.0,0.0,0.0,0.0,0.0,0.0,0.0,0.0,0.0,0.0,0.0,0.0,0.0,0.0,0.0,0.0,0.0,0.0,0.0,0.0,0.0,0.0,0.0,0.0,0.0,0.0,0.0,0.0,0.0,0.0,0.0,0.0,0.0,0.0,0.0,0.0,0.0,0.0,0.0,0.0,0.0,0.0,0.0,0.0,0.0,0.0,0.0,0.0,0.0,0.0,0.0,0.0,0.0,0.0,0.0,0.0,0.0,0.0,0.0,0.0,0.0,0.0,0.0,0.0,0.0,0.0,0.0,0.0,0.0,0.0,0.0,0.0,0.0,0.0,0.0,0.0,0.0,0.0,0.0,0.0,0.0,0.0,0.0,0.0,0.0,0.0,0.0,0.0,0.0,0.0,0.0,0.0,0.0,0.0,0.0,0.0,0.0,0.0,0.0,0.0,0.0,0.0,0.0,0.0,0.0,0.0,0.0,0.0,0.0,0.0,0.0,0.0,0.0,0.0,0.0,0.0,0.0,0.0,0.0,0.0,0.0,0.0,0.0,0.0,0.0,0.0,0.0,0.0,0.0,0.0,0.0,0.0,0.0,0.0,0.0,0.0,0.0,0.0,0.0,0.0,0.0,0.0,0.0,0.0,0.0,0.0,0.0,0.0,0.0,0.0,0.0,0.0,0.0,0.0,0.0,0.0,0.0,0.0,0.0,0.0,0.0,0.0,0.0,0.0,0.0,0.0,0.0,0.0,0.0,0.0,0.0,0.0,0.0,0.0,0.0,0.0,0.0,0.0,0.0,0.0,0.0,0.0,0.0,0.0,0.0,0.0,0.0,0.0,0.0,0.0,0.0,0.0,0.0,0.0,0.0,0.0,0.0,0.0,0.0,0.0,0.0,0.0,0.0,0.0,0.0,0.0,0.0,0.0,0.0,0.0,0.0,0.0,0.0,0.0,0.0,0.0,0.0,0.0,0.0,0.0,0.0,0.0,0.0,0.0,0.0,0.0,0.0,0.0,0.0,0.0,0.0,0.0,0.0,0.0,0.0,0.0,0.0,0.0,0.0,0.0,0.0,0.0,0.0,0.0,0.0,0.0,0.0,0.0,0.0,0.0,0.0,0.0,0.0,0.0,0.0,0.0,0.0,0.0,0.0,0.0,0.0,0.0,0.0,0.0,0.0,0.0,0.0,0.0,0.0,0.0,0.0,0.0,0.0,0.0,0.0,0.0,0.0,0.0,0.0,0.0,0.0,0.0,0.0,0.0,0.0,0.0,0.0,0.0,0.0,0.0,0.0,0.0,0.0,0.0,0.0,0.0,0.0,0.0,0.0,0.0,0.0,0.0,0.0,0.0,0.0,0.0,0.0,0.0,0.0,0.0,0.0,0.0,0.0,0.0,0.0,0.0,0.0,0.0,0.0,0.0,0.0,0.0,0.0,0.0,0.0,0.0,0.0,0.0,0.0,0.0,0.0,0.0,0.0,0.0,0.0,0.0,0.0,0.0,0.0,0.0,0.0,0.0,0.0,0.0,0.0,0.0,0.0,0.0,0.0,0.0,0.0,0.0,0.0,0.0,0.0,0.0,0.0,0.0,0.0,0.0,0.0,0.0,0.0,0.0,0.0,0.0,0.0,0.0,0.0,0.0,0.0,0.0,0.0,0.0,0.0,0.0,0.0,0.0,0.0,0.0,0.0,0.0,0.0,0.0,0.0,0.0,0.0,0.0,0.0,0.0,0.0,0.0,0.0,0.0,0.0,0.0,0.0,0.0,0.0,0.0,0.0,0.0,0.0,0.0,0.0,0.0,0.0,0.0,0.0,0.0,0.0,0.0,0.0,0.0,0.0,0.0,0.0,0.0,0.0,0.0,0.0]}],[{"header":{"parameterUnit":"kt","parameterCategory":2,"dx":1,"dy":1,"la1":29.587661999999998,"la2":31.0,"lo1":-88.76705300000003,"lo2":-86.6583820000003,"nx":115,"ny":88,"refTime":"2022-10-29T18:00:00:Z","depth":0,"parameterNumber":2,"parameterNumberName":"V-component_of_WINDS"},"data":[8.9228,8.9228,8.9228,8.9228,8.9228,8.9228,8.9228,8.9228,8.9228,8.9228,8.9228,8.9228,8.9228,8.9228,8.9228,8.9228,8.9228,8.9228,8.9228,8.9228,8.9272,8.9272,8.9316,8.9447,8.9462,8.968,9.0055,9.0501,9.0601,9.0801,9.1084,9.149,9.0358,8.9337,8.8129,8.6785,8.5524,8.4943,8.4623,8.4177,8.4177,8.4177,8.4177,8.4177,8.4177,8.4177,8.4177,8.4177,8.4177,8.4177,8.4177,8.4177,8.4177,8.4177,8.4177,8.4177,8.4177,8.4177,8.4177,8.4177,8.4177,8.4177,8.4177,8.4177,8.4177,8.4177,8.4177,8.4177,8.4177,8.4177,8.4177,8.4177,8.4177,8.4177,8.4177,8.4177,8.4177,8.4177,8.4177,8.4177,8.4177,8.4177,8.4177,8.4177,8.4177,8.4177,8.4177,8.4177,8.4177,8.4177,8.4177,8.4177,8.4177,8.4177,8.4177,8.4177,8.4177,8.4177,8.4177,8.4177,8.4148,8.4119,8.3751,8.3353,8.2867,8.1936,8.1005,7.9841,7.8816,7.7914,7.7007,7.6629,7.66,7.66,7.66,8.9228,8.9228,8.9228,8.9228,8.9228,8.9228,8.9228,8.9228,8.9228,8.9228,8.9228,8.9228,8.9228,8.9228,8.9228,8.9228,8.9228,8.9228,8.9228,8.9228,8.9228,8.9228,8.9228,8.9228,8.9272,8.9403,8.949,8.9766,9.0128,9.0214,9.0458,9.0853,9.0342,8.9571,8.8989,8.7675,8.6008,8.5446,8.4972,8.4381,8.4177,8.4177,8.4148,8.4148,8.4177,8.4177,8.4177,8.4177,8.4177,8.4177,8.4177,8.4177,8.4177,8.4177,8.4177,8.4177,8.4177,8.4177,8.4177,8.4177,8.4177,8.4177,8.4177,8.4177,8.4177,8.4177,8.4177,8.4177,8.4177,8.4177,8.4177,8.4177,8.4177,8.4177,8.4177,8.4177,8.4177,8.4177,8.4177,8.4177,8.4177,8.4177,8.4177,8.4177,8.4177,8.4177,8.4177,8.4177,8.4177,8.4177,8.4177,8.4177,8.4177,8.4177,8.4177,8.4177,8.4177,8.4177,8.4177,8.4177,8.4041,8.3469,8.2984,8.2635,8.1674,8.054,7.9543,7.8845,7.8031,7.7094,7.6687,7.66,7.66,7.66,7.66,8.9228,8.9228,8.9228,8.9228,8.9228,8.9228,8.9228,8.9228,8.9228,8.9228,8.9228,8.9228,8.9228,8.9228,8.9228,8.9228,8.9228,8.9228,8.9228,8.9228,8.9228,8.9228,8.9228,8.9228,8.9228,8.9228,8.9272,8.9403,8.9825,8.9868,9.007,9.0629,9.047,8.9807,8.9011,8.8521,8.7371,8.5905,8.5533,8.4758,8.3839,8.3994,8.411,8.3965,8.4032,8.4177,8.4177,8.4177,8.4177,8.4177,8.4177,8.4177,8.4177,8.4177,8.4177,8.4177,8.4177,8.4177,8.4177,8.4177,8.4177,8.4177,8.4177,8.4177,8.4177,8.4177,8.4177,8.4177,8.4177,8.4177,8.4177,8.4177,8.4177,8.4177,8.4177,8.4177,8.4177,8.4177,8.4177,8.4177,8.4177,8.4177,8.4177,8.4177,8.4177,8.4177,8.4177,8.4177,8.4177,8.4177,8.4177,8.4177,8.4177,8.4177,8.4177,8.4177,8.409,8.4119,8.4177,8.3945,8.3576,8.2867,8.2003,8.1238,8.0336,7.9223,7.8496,7.7885,7.7065,7.6745,7.6658,7.66,7.66,7.66,7.66,8.9228,8.9228,8.9228,8.9228,8.9228,8.9228,8.9228,8.9228,8.9228,8.9228,8.9228,8.9228,8.9228,8.9228,8.9228,8.9228,8.9228,8.9228,8.9228,8.9228,8.9228,8.9228,8.9228,8.9228,8.9228,8.9228,8.9272,8.9359,8.9549,8.968,8.9897,9.0329,9.0257,9.0042,8.9438,8.8917,8.7998,8.6457,8.6075,8.5395,8.4209,8.4088,8.38,8.3654,8.3742,8.3955,8.4032,8.4071,8.4177,8.4177,8.4177,8.4177,8.4177,8.4177,8.4177,8.4177,8.4177,8.4177,8.4177,8.4177,8.4177,8.4177,8.4177,8.4177,8.4177,8.4177,8.4177,8.4177,8.4177,8.4177,8.4177,8.4177,8.4177,8.4177,8.4177,8.4177,8.4177,8.4177,8.4177,8.4177,8.4177,8.4177,8.4177,8.4177,8.4177,8.4177,8.4177,8.4177,8.4177,8.4177,8.4177,8.4177,8.4177,8.4061,8.4177,8.4119,8.3809,8.378,8.3489,8.3286,8.314,8.216,8.1092,8.0132,7.923,7.838,7.7623,7.7036,7.689,7.6716,7.66,7.66,7.66,7.66,7.66,8.9228,8.9228,8.9228,8.9228,8.9228,8.9228,8.9228,8.9228,8.9228,8.9228,8.9228,8.9228,8.9228,8.9228,8.9228,8.9228,8.9228,8.9228,8.9228,8.9228,8.9228,8.9228,8.9228,8.9228,8.9228,8.9228,8.9228,8.9272,8.9316,8.9403,8.9549,8.9825,8.9897,8.9913,8.9743,8.9313,8.8405,8.7164,8.672,8.6007,8.4836,8.3814,8.3068,8.3018,8.3186,8.347,8.3548,8.381,8.4177,8.4177,8.4177,8.4139,8.411,8.4148,8.4177,8.4177,8.4177,8.4177,8.4177,8.4177,8.4177,8.4177,8.4177,8.4177,8.4177,8.4177,8.4177,8.4177,8.4177,8.4177,8.4177,8.4177,8.4177,8.4177,8.4177,8.4177,8.4177,8.4177,8.4177,8.4177,8.4177,8.4177,8.4177,8.4177,8.4177,8.4177,8.4177,8.4177,8.4177,8.4177,8.4177,8.4177,8.3983,8.3722,8.3693,8.3344,8.3237,8.2946,8.2576,8.2314,8.1928,8.1113,8.019,7.923,7.8234,7.7449,7.7036,7.6861,7.6687,7.66,7.66,7.66,7.66,7.66,7.66,8.9228,8.9228,8.9228,8.9228,8.9228,8.9228,8.9228,8.9228,8.9228,8.9228,8.9228,8.9228,8.9228,8.9228,8.9228,8.9228,8.9228,8.9228,8.9228,8.9228,8.9228,8.9228,8.9228,8.9228,8.9228,8.9228,8.9228,8.9228,8.9228,8.9272,8.9272,8.9462,8.949,8.9577,8.9566,8.9256,8.8573,8.7973,8.7231,8.6206,8.5233,8.428,8.2582,8.1595,8.1342,8.1474,8.1526,8.1567,8.2448,8.3332,8.3761,8.3839,8.381,8.4042,8.4148,8.4177,8.4177,8.4177,8.4177,8.4177,8.4177,8.4177,8.4177,8.4177,8.4177,8.4177,8.4177,8.4177,8.4177,8.4177,8.4177,8.4177,8.4177,8.4177,8.4177,8.4177,8.4177,8.4177,8.4177,8.4177,8.4177,8.4177,8.4177,8.4177,8.4177,8.4177,8.4177,8.4177,8.4177,8.4041,8.3925,8.3809,8.3518,8.3091,8.2664,8.2256,8.1849,8.1442,8.1238,8.1005,8.0627,7.995,7.9223,7.8321,7.7355,7.7065,7.6803,7.6629,7.66,7.66,7.66,7.66,7.66,7.66,7.66,8.9228,8.9228,8.9228,8.9228,8.9228,8.9228,8.9228,8.9228,8.9228,8.9228,8.9228,8.9228,8.9228,8.9228,8.9228,8.9228,8.9228,8.9228,8.9228,8.9228,8.9228,8.9228,8.9228,8.9228,8.9228,8.9228,8.9228,8.9228,8.9228,8.9228,8.9228,8.9228,8.9272,8.9272,8.9156,8.8852,8.8551,8.8173,8.7792,8.6757,8.5776,8.4593,8.2653,8.1063,8.051,8.0341,8.0463,8.0476,8.1515,8.2675,8.3293,8.3421,8.346,8.3771,8.3965,8.3994,8.4139,8.4177,8.4177,8.4177,8.4177,8.4177,8.4177,8.4177,8.4177,8.4177,8.4177,8.4177,8.4177,8.4177,8.4177,8.4177,8.4177,8.4177,8.4177,8.4177,8.4177,8.4177,8.4177,8.4177,8.4177,8.4177,8.4177,8.4177,8.4177,8.4177,8.4177,8.4177,8.4061,8.3635,8.344,8.3207,8.28,8.1965,8.1442,8.1092,8.051,7.9987,7.9929,7.9717,7.9165,7.8641,7.8205,7.7646,7.7094,7.6774,7.66,7.66,7.66,7.66,7.66,7.66,7.66,7.66,7.66,8.9228,8.9228,8.9228,8.9228,8.9228,8.9228,8.9228,8.9228,8.9228,8.9228,8.9228,8.9228,8.9228,8.9228,8.9228,8.9228,8.9228,8.9228,8.9228,8.9228,8.9228,8.9228,8.9228,8.9228,8.9228,8.9228,8.9228,8.9228,8.9228,8.9228,8.9228,8.9228,8.8893,8.8645,8.8042,8.7452,8.7045,8.744,8.7305,8.678,8.5811,8.4645,8.2689,8.0573,7.9312,7.8947,7.8829,7.9244,8.0517,8.1903,8.2822,8.29,8.3136,8.3382,8.3538,8.3693,8.3994,8.4071,8.4148,8.4177,8.4177,8.4071,8.411,8.4177,8.4177,8.4177,8.4177,8.4177,8.4177,8.4177,8.4177,8.4177,8.4177,8.4177,8.4177,8.4177,8.4177,8.4177,8.4177,8.4177,8.4177,8.4177,8.4177,8.4177,8.4177,8.4061,8.3896,8.3867,8.3527,8.3091,8.2393,8.219,8.1587,8.0743,8.0336,8.0016,7.9434,7.8641,7.8554,7.8438,7.7588,7.6977,7.7123,7.7152,7.6745,7.66,7.66,7.66,7.66,7.66,7.66,7.66,7.66,7.66,7.66,8.9228,8.9228,8.9228,8.9228,8.9228,8.9228,8.9228,8.9228,8.9228,8.9228,8.9228,8.9228,8.9228,8.9228,8.9228,8.9228,8.9228,8.9228,8.9228,8.9228,8.9228,8.9228,8.9228,8.9228,8.8937,8.9228,8.9228,8.9141,8.8981,8.9141,8.9228,8.8893,8.7909,8.7569,8.6571,8.5453,8.4764,8.5436,8.6366,8.6106,8.5305,8.4231,8.2427,7.9769,7.7738,7.6504,7.5962,7.6175,7.7091,7.9492,8.0776,8.1358,8.2415,8.2979,8.3303,8.3509,8.3771,8.3887,8.3965,8.4032,8.347,8.3431,8.4042,8.4148,8.4177,8.3877,8.3916,8.4071,8.4177,8.4148,8.4148,8.4177,8.4177,8.4177,8.4177,8.4177,8.4177,8.4177,8.4177,8.4177,8.4177,8.4177,8.4177,8.4177,8.4071,8.3809,8.3556,8.3207,8.2867,8.1936,8.1084,8.0772,8.0219,7.955,7.9049,7.8816,7.8234,7.7449,7.7268,7.7239,7.66,7.66,7.66,7.66,7.66,7.66,7.66,7.66,7.66,7.66,7.66,7.66,7.66,7.66,7.66,8.9228,8.9228,8.9228,8.9228,8.9228,8.9228,8.9228,8.9228,8.9228,8.9228,8.9228,8.9228,8.9228,8.9228,8.9228,8.9228,8.9228,8.9228,8.9228,8.9228,8.9228,8.9228,8.8849,8.8513,8.8042,8.8131,8.8131,8.797,8.8175,8.8981,8.9141,8.9025,8.8175,8.6526,8.4948,8.3295,8.271,8.3322,8.4175,8.4781,8.4071,8.3341,8.169,7.8572,7.6365,7.5106,7.4634,7.4199,7.5449,7.7753,7.9327,7.9602,7.9849,8.2454,8.2516,8.2142,8.3303,8.346,8.3605,8.2352,8.1926,8.1607,8.1458,8.1767,8.2764,8.2815,8.3275,8.3499,8.38,8.3926,8.4003,8.4032,8.4148,8.4148,8.4177,8.4177,8.4177,8.4177,8.4177,8.4177,8.4177,8.4177,8.4177,8.4177,8.378,8.3469,8.3071,8.2664,8.1733,8.0743,7.9776,7.9434,7.8961,7.8321,7.7791,7.7617,7.7123,7.6948,7.6774,7.66,7.66,7.66,7.66,7.66,7.66,7.66,7.66,7.66,7.66,7.66,7.66,7.66,7.66,7.66,7.66,8.9228,8.9228,8.9228,8.9141,8.8965,8.9184,8.9228,8.9228,8.9228,8.9228,8.9228,8.9228,8.9228,8.9228,8.9228,8.9228,8.9228,8.9228,8.9228,8.9228,8.9228,8.9228,8.8645,8.7792,8.7273,8.6363,8.6408,8.6526,8.6091,8.7256,8.8496,8.8513,8.7614,8.6254,8.3181,8.1064,8.1112,8.2663,8.2851,8.3081,8.2712,8.1934,8.0672,7.8307,7.6137,7.4615,7.3961,7.3377,7.3938,7.5873,7.7372,7.7711,7.7415,8.0137,8.0776,8.0055,8.1691,8.2584,8.2516,7.9465,7.8441,7.8413,7.8996,7.9245,7.9999,8.0435,8.0801,8.1755,8.2775,8.3207,8.3587,8.3839,8.4032,8.4148,8.4177,8.4177,8.4177,8.4177,8.4177,8.4177,8.4177,8.4177,8.4177,8.4032,8.3586,8.3042,8.2585,8.1683,8.051,7.9514,7.8612,7.8176,7.7798,7.7326,7.7152,7.6716,7.66,7.66,7.66,7.66,7.66,7.66,7.66,7.66,7.66,7.66,7.66,7.66,7.66,7.66,7.66,7.66,7.66,7.66,7.66,8.9228,8.9228,8.9228,8.8408,8.7318,8.8601,8.9228,8.9228,8.9184,8.9228,8.9228,8.9228,8.9228,8.9228,8.9184,8.9141,8.9053,8.8937,8.9097,8.9097,8.9053,8.9228,8.9025,8.8219,8.6869,8.6318,8.6046,8.5105,8.4135,8.4671,8.5754,8.6209,8.559,8.381,8.109,7.915,7.8288,7.9224,8.0052,8.0994,8.0994,8.0557,7.9628,7.8368,7.5837,7.4298,7.3381,7.2722,7.2935,7.3982,7.4986,7.5457,7.6321,7.7176,7.7769,7.8426,7.9217,8.0041,7.9161,7.7557,7.6851,7.6568,7.6894,7.7473,7.8189,7.8399,7.8524,7.9465,8.0598,8.1366,8.1698,8.2628,8.3207,8.3509,8.3577,8.38,8.3839,8.4177,8.4177,8.4071,8.4177,8.4177,8.4177,8.4119,8.3527,8.2809,8.1645,7.995,7.9078,7.8351,7.7565,7.7239,7.6919,7.6774,7.66,7.66,7.66,7.66,7.66,7.66,7.66,7.66,7.66,7.66,7.66,7.66,7.66,7.66,7.66,7.66,7.66,7.66,7.66,7.66,7.66,8.6897,8.6987,8.7731,8.7273,8.6272,8.8336,8.9228,8.9141,8.838,8.8042,8.7953,8.8042,8.8042,8.7998,8.7998,8.7998,8.7953,8.739,8.7435,8.7731,8.8247,8.8557,8.8336,8.7614,8.6372,8.5013,8.3949,8.2966,8.2258,8.3275,8.379,8.2919,8.1713,8.0489,7.9883,7.8461,7.7591,7.7716,7.8362,7.8978,7.8978,7.8928,7.8653,7.7951,7.5407,7.4137,7.2919,7.1916,7.1899,7.2459,7.3251,7.3513,7.3975,7.5631,7.6063,7.5821,7.733,7.7838,7.7133,7.6046,7.4891,7.4865,7.4821,7.5153,7.5787,7.596,7.6192,7.7149,7.8288,7.8928,7.9382,8.0474,8.1886,8.247,8.2815,8.3079,8.3392,8.3955,8.4071,8.3849,8.3955,8.4139,8.4177,8.4119,8.3315,8.2402,8.0183,7.8344,7.7821,7.7152,7.7007,7.6774,7.6745,7.6629,7.66,7.66,7.66,7.66,7.66,7.66,7.66,7.66,7.66,7.66,7.66,7.66,7.66,7.66,7.66,7.66,7.66,7.66,7.66,7.66,7.66,8.3014,8.2946,8.4829,8.5517,8.5636,8.7909,8.8717,8.8114,8.6644,8.5955,8.5909,8.5909,8.5909,8.6,8.6182,8.6318,8.5864,8.3996,8.4718,8.559,8.6,8.6824,8.6734,8.5388,8.3462,8.2731,8.183,8.0801,8.0344,8.126,8.0994,8.0027,7.8978,7.8929,7.8609,7.7965,7.7265,7.7265,7.7441,7.7541,7.7491,7.7491,7.7392,7.7023,7.6141,7.5115,7.4041,7.2772,7.2122,7.143,7.2343,7.2689,7.2239,7.3754,7.417,7.3994,7.5117,7.5657,7.5135,7.3887,7.2509,7.1427,7.129,7.2239,7.3379,7.3405,7.4045,7.524,7.5993,7.6568,7.6867,7.7334,7.8996,7.9849,8.0583,8.0975,8.1486,8.2391,8.3196,8.3431,8.3732,8.3994,8.4071,8.3501,8.2785,8.1762,7.9696,7.8111,7.7384,7.6832,7.6658,7.66,7.66,7.66,7.66,7.66,7.66,7.66,7.66,7.66,7.66,7.66,7.66,7.66,7.66,7.66,7.66,7.66,7.66,7.66,7.66,7.66,7.66,7.66,7.66,8.1426,7.8905,8.0801,8.1591,8.1756,8.3836,8.4791,8.4718,8.4135,8.3903,8.3903,8.381,8.3856,8.4135,8.5151,8.5013,8.3949,8.3462,8.3649,8.3763,8.3996,8.4321,8.4487,8.4069,8.2331,8.0849,8.015,7.9297,7.8658,7.8535,7.8856,7.7891,7.7416,7.7616,7.7716,7.7441,7.7165,7.7165,7.7165,7.7165,7.7165,7.7165,7.7165,7.6848,7.6263,7.5481,7.4944,7.3479,7.2357,7.1718,7.1895,7.1472,7.0949,7.1947,7.2128,7.2329,7.3182,7.3691,7.2734,7.2128,7.129,7.0903,7.0857,7.0995,7.1584,7.1427,7.1902,7.2464,7.3532,7.4365,7.4926,7.6027,7.691,7.7615,7.8246,7.8497,7.8982,8.0285,8.1165,8.1647,8.2312,8.304,8.264,8.2441,8.1803,8.0886,7.9667,7.8118,7.7326,7.6716,7.66,7.66,7.66,7.66,7.66,7.66,7.66,7.66,7.66,7.66,7.66,7.66,7.66,7.66,7.66,7.66,7.66,7.66,7.66,7.66,7.66,7.66,7.66,7.66,7.66,7.9224,7.7341,7.9297,8.0076,8.0366,8.2305,8.3181,8.2993,8.2258,8.1856,8.176,8.102,8.109,8.1877,8.2846,8.2846,8.1903,8.0852,8.0971,8.1665,8.1951,8.2353,8.271,8.221,8.1496,8.0101,7.9199,7.8114,7.7666,7.7265,7.7165,7.7241,7.7165,7.7165,7.7315,7.7215,7.7165,7.7165,7.7165,7.7165,7.7165,7.7165,7.7165,7.7116,7.6653,7.6092,7.5359,7.3797,7.2917,7.2136,7.1306,7.0814,7.079,7.079,7.079,7.0857,7.1836,7.1791,7.0949,7.0857,7.0836,7.079,7.079,7.079,7.079,7.0836,7.0836,7.079,7.1791,7.2284,7.2837,7.3589,7.4584,7.5457,7.5864,7.6338,7.7234,7.8399,7.9175,7.9931,8.0555,7.9985,7.9483,7.9228,7.876,7.8061,7.7249,7.6563,7.6395,7.6183,7.6254,7.636,7.6459,7.6564,7.66,7.66,7.66,7.66,7.66,7.66,7.66,7.66,7.66,7.66,7.66,7.66,7.66,7.66,7.66,7.66,7.66,7.66,7.66,7.66,7.66,7.7065,7.7066,7.8855,7.9663,7.9784,8.1378,8.2284,8.2046,8.044,7.976,7.9663,7.8213,7.8609,7.9858,8.0173,7.9832,7.9346,7.8585,7.856,7.9639,7.9809,8.0537,8.1713,8.0463,7.9663,7.9199,7.794,7.7265,7.7165,7.7165,7.7165,7.7165,7.7165,7.7165,7.7165,7.7165,7.7165,7.7165,7.7165,7.7165,7.7165,7.7165,7.7165,7.7165,7.7019,7.6727,7.5872,7.4481,7.3456,7.2551,7.1452,7.0814,7.079,7.079,7.079,7.079,7.079,7.079,7.079,7.079,7.079,7.079,7.079,7.079,7.079,7.079,7.079,7.079,7.0857,7.1086,7.1199,7.1016,7.1675,7.2709,7.3551,7.4277,7.5092,7.5761,7.6621,7.7404,7.7615,7.7081,7.6428,7.6072,7.5769,7.5445,7.5179,7.5318,7.535,7.5458,7.5529,7.5836,7.5971,7.6424,7.66,7.66,7.66,7.66,7.66,7.66,7.66,7.66,7.66,7.66,7.66,7.66,7.66,7.66,7.66,7.66,7.66,7.66,7.66,7.66,7.66,7.6261,7.588,7.6791,7.7142,7.7192,7.7667,7.804,7.8238,7.799,7.7865,7.7716,7.7491,7.8213,7.9297,7.8708,7.7816,7.7716,7.7541,7.7391,7.7965,7.8015,7.7965,7.8337,7.7915,7.7915,7.804,7.7265,7.7215,7.7165,7.7165,7.7165,7.7165,7.7165,7.7165,7.7165,7.7165,7.7165,7.7165,7.7165,7.7165,7.7165,7.7165,7.7165,7.7165,7.7165,7.7067,7.653,7.492,7.3773,7.3041,7.1892,7.079,7.079,7.079,7.079,7.079,7.079,7.079,7.079,7.079,7.079,7.079,7.079,7.079,7.079,7.079,7.079,7.079,7.079,7.079,7.079,7.079,7.104,7.1472,7.1539,7.1696,7.2599,7.3424,7.4347,7.4566,7.4566,7.4199,7.3528,7.3159,7.3316,7.3049,7.2687,7.2877,7.3386,7.3753,7.4401,7.4855,7.5486,7.6013,7.6529,7.6494,7.66,7.66,7.66,7.66,7.66,7.66,7.66,7.66,7.66,7.66,7.66,7.66,7.66,7.66,7.66,7.66,7.66,7.66,7.66,7.5728,7.545,7.5754,7.5907,7.5907,7.5907,7.621,7.6739,7.6789,7.694,7.7115,7.7215,7.7816,7.8189,7.7466,7.7215,7.7215,7.7165,7.7165,7.7165,7.7165,7.7165,7.7315,7.7265,7.7165,7.7165,7.7165,7.7165,7.7165,7.7165,7.7165,7.7165,7.7165,7.7165,7.7165,7.7165,7.7165,7.7165,7.7165,7.7165,7.7165,7.7165,7.7165,7.7165,7.7165,7.7165,7.675,7.5042,7.3919,7.3456,7.1892,7.1034,7.079,7.079,7.079,7.079,7.079,7.079,7.079,7.079,7.079,7.079,7.079,7.079,7.079,7.079,7.079,7.079,7.079,7.079,7.079,7.079,7.079,7.079,7.0811,7.0857,7.104,7.1675,7.2103,7.2394,7.2518,7.2163,7.1172,7.0828,7.0887,7.0625,7.0227,7.0539,7.1055,7.1775,7.2627,7.3349,7.4284,7.5179,7.626,7.643,7.66,7.66,7.66,7.66,7.66,7.66,7.66,7.66,7.66,7.66,7.66,7.66,7.66,7.66,7.66,7.66,7.66,7.66,7.66,7.5246,7.5195,7.5246,7.5297,7.5297,7.5297,7.5653,7.621,7.6362,7.6688,7.7014,7.7141,7.7215,7.7265,7.7165,7.7165,7.7165,7.7165,7.7165,7.7165,7.7165,7.7165,7.7165,7.7165,7.7165,7.7165,7.7165,7.7165,7.7165,7.7165,7.7165,7.7165,7.7165,7.7165,7.7165,7.7165,7.7165,7.7165,7.7165,7.7165,7.7165,7.7165,7.7165,7.7165,7.7165,7.7019,7.6457,7.4969,7.3773,7.3456,7.1769,7.0985,7.079,7.079,7.079,7.079,7.079,7.079,7.079,7.079,7.079,7.079,7.079,7.079,7.079,7.079,7.079,7.079,7.079,7.079,7.079,7.079,7.079,7.079,7.079,7.079,7.079,7.0949,7.104,7.1244,7.0865,7.0448,6.9581,6.9029,6.8586,6.8024,6.7703,6.7926,6.8522,6.9359,7.0455,7.1624,7.2803,7.4219,7.5565,7.5629,7.6006,7.5836,7.6254,7.6254,7.6564,7.6564,7.66,7.66,7.66,7.66,7.66,7.66,7.66,7.66,7.66,7.66,7.66,7.66,7.66,7.4507,7.4124,7.4558,7.4786,7.4763,7.4786,7.5093,7.5653,7.6184,7.6362,7.6563,7.7014,7.7115,7.7165,7.7165,7.7165,7.7165,7.7165,7.7165,7.7165,7.7165,7.7165,7.7165,7.7165,7.7165,7.7165,7.7165,7.7165,7.7165,7.7165,7.7165,7.7165,7.7165,7.7165,7.7165,7.7165,7.7165,7.7165,7.7165,7.7165,7.7165,7.7165,7.7165,7.7141,7.7067,7.6677,7.5872,7.4554,7.3431,7.2528,7.1403,7.0888,7.079,7.079,7.079,7.079,7.079,7.079,7.079,7.079,7.079,7.079,7.079,7.079,7.079,7.079,7.079,7.079,7.079,7.079,7.079,7.079,7.079,7.079,7.079,7.079,7.079,7.079,7.079,7.0765,7.0475,6.9621,6.8553,6.7551,6.6324,6.5436,6.5209,6.531,6.5917,6.6762,6.8073,6.9269,7.0443,7.1737,7.3025,7.345,7.4486,7.4876,7.5729,7.6077,7.6535,7.6564,7.66,7.66,7.6564,7.66,7.66,7.66,7.66,7.66,7.66,7.66,7.66,7.66,7.66,7.4096,7.389,7.4124,7.425,7.4199,7.4199,7.4507,7.4967,7.5324,7.5805,7.6362,7.6614,7.694,7.7165,7.7165,7.7165,7.7165,7.7165,7.7165,7.7165,7.7165,7.7165,7.7165,7.7165,7.7165,7.7165,7.7165,7.7165,7.7165,7.7165,7.7165,7.7165,7.7165,7.7165,7.7165,7.7165,7.7165,7.7165,7.7165,7.7165,7.7165,7.7165,7.7165,7.7116,7.6579,7.6189,7.5457,7.4016,7.2942,7.2209,7.133,7.079,7.079,7.079,7.079,7.079,7.079,7.079,7.079,7.079,7.079,7.079,7.079,7.079,7.079,7.079,7.079,7.079,7.079,7.079,7.079,7.079,7.079,7.079,7.079,7.079,7.079,7.079,7.079,7.0692,7.0231,6.9063,6.794,6.6953,6.5848,6.4947,6.4638,6.4655,6.5145,6.5368,6.6422,6.734,6.8325,6.9281,7.0547,7.1527,7.2448,7.3405,7.4421,7.545,7.5807,7.6084,7.6424,7.6564,7.6535,7.6564,7.66,7.66,7.66,7.66,7.66,7.66,7.66,7.66,7.66,7.3867,7.3867,7.3867,7.3867,7.3867,7.3867,7.4096,7.4507,7.4633,7.5195,7.5856,7.6133,7.6386,7.6739,7.6688,7.689,7.6964,7.7014,7.7115,7.7115,7.7165,7.7165,7.7165,7.7165,7.7165,7.7165,7.7165,7.7165,7.7165,7.7165,7.7165,7.7165,7.7165,7.7165,7.7165,7.7165,7.7165,7.7165,7.7165,7.7115,7.699,7.7065,7.7115,7.6842,7.6115,7.5506,7.47,7.3235,7.2258,7.1843,7.1208,7.079,7.079,7.079,7.079,7.079,7.079,7.079,7.079,7.079,7.079,7.079,7.079,7.079,7.079,7.079,7.079,7.079,7.079,7.079,7.079,7.079,7.079,7.079,7.079,7.079,7.079,7.079,7.0548,7.0255,6.953,6.8555,6.7306,6.6354,6.5622,6.4663,6.4388,6.4388,6.4429,6.4513,6.531,6.6122,6.6802,6.7059,6.8099,6.8627,6.984,7.106,7.3007,7.4421,7.4602,7.4855,7.5343,7.58,7.6254,7.6535,7.66,7.66,7.66,7.66,7.66,7.66,7.66,7.66,7.66,7.3867,7.3867,7.3867,7.3867,7.3867,7.3867,7.3918,7.4044,7.4404,7.4711,7.4991,7.5348,7.5602,7.5602,7.5805,7.5957,7.6463,7.6513,7.6714,7.699,7.7165,7.7165,7.7165,7.7165,7.7165,7.7165,7.7165,7.7165,7.7165,7.7165,7.7165,7.7165,7.7165,7.7165,7.7165,7.7115,7.7165,7.7115,7.7065,7.6789,7.6588,7.6739,7.6692,7.6347,7.5722,7.4749,7.3308,7.2429,7.1867,7.0985,7.0839,7.079,7.079,7.079,7.079,7.079,7.079,7.079,7.079,7.079,7.079,7.079,7.079,7.079,7.079,7.079,7.079,7.079,7.079,7.079,7.079,7.079,7.079,7.079,7.079,7.079,7.079,7.079,7.0353,6.9359,6.9095,6.8018,6.6793,6.5866,6.5475,6.4468,6.4346,6.4346,6.4346,6.4346,6.4738,6.5269,6.5269,6.5227,6.5655,6.6081,6.7646,6.8969,7.1148,7.2383,7.2505,7.3229,7.3947,7.484,7.5515,7.5971,7.6247,7.6494,7.66,7.66,7.66,7.66,7.66,7.66,7.66,7.3867,7.3867,7.3867,7.3867,7.3867,7.3867,7.3867,7.3918,7.4147,7.4353,7.466,7.4865,7.5144,7.5399,7.5399,7.5602,7.5856,7.621,7.6487,7.6739,7.7014,7.7165,7.7165,7.7165,7.7165,7.7165,7.7165,7.7165,7.7165,7.7165,7.7165,7.7115,7.7165,7.7165,7.7115,7.689,7.6714,7.6638,7.6335,7.6083,7.588,7.6058,7.5894,7.5421,7.5157,7.4262,7.2504,7.1721,7.1232,7.0912,7.079,7.079,7.079,7.079,7.079,7.079,7.079,7.079,7.079,7.079,7.079,7.079,7.079,7.079,7.079,7.079,7.079,7.079,7.079,7.079,7.079,7.079,7.079,7.079,7.079,7.079,7.079,7.0182,6.9506,6.8896,6.7994,6.6793,6.611,6.5329,6.4859,6.4492,6.4346,6.4346,6.4346,6.4346,6.4513,6.4613,6.4697,6.4863,6.5252,6.5392,6.6529,6.6964,6.8548,6.9529,7.0085,7.093,7.1717,7.2719,7.4239,7.5264,7.5544,7.5793,7.6212,7.6564,7.66,7.66,7.66,7.66,7.66,7.3867,7.3867,7.3867,7.3867,7.3867,7.3867,7.3867,7.3867,7.3867,7.4096,7.4353,7.4404,7.4609,7.4967,7.4991,7.5093,7.5348,7.5856,7.616,7.6436,7.6713,7.6688,7.6688,7.6688,7.6688,7.6638,7.6588,7.6688,7.6688,7.6638,7.6662,7.6688,7.6588,7.6638,7.6688,7.6261,7.616,7.6083,7.5653,7.5303,7.4939,7.4945,7.4719,7.4109,7.3871,7.3172,7.2146,7.1235,7.0744,7.0582,7.0628,7.079,7.079,7.079,7.079,7.079,7.079,7.079,7.079,7.079,7.079,7.079,7.079,7.079,7.079,7.079,7.079,7.079,7.079,7.079,7.079,7.079,7.079,7.079,7.079,7.0597,7.0182,6.9286,6.8437,6.8071,6.6823,6.6012,6.5378,6.4859,6.4419,6.437,6.4346,6.4346,6.4346,6.4346,6.4346,6.4346,6.4388,6.453,6.4655,6.478,6.5004,6.5491,6.6178,6.7366,6.79,6.8548,6.9269,7.0405,7.1905,7.3634,7.4276,7.4948,7.59,7.6529,7.6564,7.66,7.66,7.6459,7.6424,7.3843,7.3867,7.3843,7.3703,7.3703,7.3679,7.3609,7.3773,7.375,7.3703,7.3848,7.3829,7.3923,7.3969,7.4147,7.4301,7.4711,7.5222,7.5706,7.5791,7.5642,7.5392,7.5392,7.5515,7.5635,7.5629,7.5653,7.5653,7.5704,7.5704,7.55,7.5677,7.5653,7.5551,7.5653,7.5453,7.5381,7.5333,7.5232,7.4404,7.3292,7.3693,7.3565,7.249,7.2063,7.17,7.1405,7.0886,7.0422,7.0123,7.0376,7.0582,7.0698,7.079,7.0698,7.0674,7.079,7.0744,7.079,7.079,7.079,7.079,7.079,7.079,7.079,7.079,7.079,7.079,7.079,7.079,7.079,7.079,7.0668,7.0741,7.0353,6.9966,6.9144,6.8189,6.7311,6.6476,6.6012,6.5591,6.4639,6.4492,6.4346,6.4346,6.4346,6.4346,6.4346,6.4346,6.4346,6.4346,6.4346,6.4471,6.4513,6.4572,6.4613,6.4963,6.5103,6.5573,6.5794,6.5999,6.6422,6.8008,6.9632,7.1435,7.2701,7.3634,7.4566,7.5693,7.6289,7.6529,7.6459,7.6183,7.6148,7.1898,7.1898,7.1898,7.1898,7.1898,7.1922,7.1922,7.1898,7.1898,7.2323,7.2837,7.288,7.3207,7.3773,7.3867,7.3993,7.4199,7.466,7.4329,7.3412,7.3418,7.3567,7.3639,7.4236,7.4831,7.5279,7.5399,7.5399,7.5399,7.5399,7.5399,7.5375,7.5399,7.5351,7.5375,7.4549,7.3944,7.3798,7.3027,7.2234,7.1829,7.1858,7.1633,7.0956,7.065,7.0412,7.0072,6.9898,6.9567,6.9217,6.9496,6.9775,6.9775,6.9751,6.9938,7.0169,7.0283,7.0398,7.0744,7.0646,7.079,7.079,7.079,7.079,7.079,7.079,7.079,7.079,7.0765,7.079,7.0765,7.0765,7.006,6.8892,6.877,6.8433,6.8042,6.7091,6.633,6.589,6.5305,6.4834,6.4468,6.4346,6.4346,6.4346,6.4346,6.4346,6.4346,6.4346,6.4346,6.4346,6.4346,6.4346,6.4346,6.4346,6.4346,6.4346,6.4346,6.4488,6.4589,6.4697,6.4821,6.6519,6.7595,6.9398,7.1245,7.2178,7.3275,7.4602,7.5693,7.5764,7.57,7.5593,7.5551,7.0776,7.0776,7.0776,7.0776,7.0776,7.0776,7.0776,7.0776,7.0776,7.115,7.1735,7.1805,7.2202,7.2763,7.288,7.2857,7.2931,7.3189,7.2685,7.1603,7.1808,7.1978,7.2097,7.2715,7.3353,7.3873,7.3967,7.3944,7.392,7.3896,7.3967,7.3967,7.3944,7.3967,7.3798,7.2979,7.2329,7.2258,7.1302,7.0566,7.0309,7.0286,7.0038,6.9578,6.9484,6.9272,6.8774,6.8726,6.8633,6.8468,6.8749,6.8887,6.8764,6.8693,6.878,6.8792,6.8765,6.897,6.9289,6.9507,6.975,6.9868,7.0252,7.0465,7.0514,7.0652,7.079,7.079,7.0426,7.0255,7.0112,6.9962,6.9038,6.7628,6.7457,6.7433,6.6994,6.6311,6.5793,6.5402,6.4785,6.4395,6.4346,6.4346,6.4346,6.4346,6.4346,6.4346,6.4346,6.4346,6.4346,6.4346,6.4346,6.4346,6.4346,6.4346,6.4346,6.4346,6.4346,6.4447,6.4429,6.4513,6.453,6.5269,6.6081,6.7461,6.9347,7.075,7.198,7.3229,7.3671,7.4138,7.4646,7.4754,7.4675,7.0683,7.0613,7.0753,7.0543,7.0496,7.0473,7.066,7.0543,7.0566,7.0566,7.0753,7.0776,7.0893,7.094,7.115,7.087,7.08,7.0826,7.0735,7.0522,7.0618,7.0667,7.0667,7.088,7.1018,7.1088,7.0943,7.0966,7.1206,7.1276,7.1229,7.1039,7.1229,7.1372,7.0943,7.0992,7.0826,7.0756,7.0615,7.0122,6.9397,6.9257,6.8982,6.8516,6.8516,6.828,6.7762,6.7691,6.7857,6.8209,6.8279,6.8111,6.7578,6.7505,6.7188,6.6514,6.6227,6.6224,6.6412,6.7274,6.7846,6.7987,6.9078,6.9692,6.9666,7.0127,7.0402,7.0185,6.9579,6.9022,6.892,6.8116,6.736,6.7384,6.7067,6.6701,6.6159,6.589,6.5524,6.4688,6.4419,6.4346,6.4346,6.4346,6.4346,6.4346,6.4346,6.4346,6.4346,6.4346,6.4346,6.4346,6.4346,6.4346,6.4346,6.4346,6.4346,6.4346,6.4346,6.4346,6.4346,6.4388,6.4471,6.4555,6.5351,6.5696,6.7555,6.8798,7.0123,7.1462,7.112,7.1462,7.1991,7.2515,7.2877,6.8625,6.8648,6.8648,6.8648,6.8648,6.8625,6.8648,6.8648,6.8648,6.9045,6.9654,6.9725,7.0122,7.0683,7.0776,7.0075,6.8742,6.8648,6.8648,6.8648,6.8648,6.8648,6.8765,6.9349,6.9676,6.9769,7.0402,7.0776,7.0776,7.0776,7.0776,7.0753,7.0776,7.0776,7.0636,7.0003,6.9725,6.9512,6.8975,6.8531,6.8228,6.8158,6.8066,6.7903,6.788,6.7785,6.7644,6.6966,6.6663,6.6708,6.6262,6.586,6.5691,6.5644,6.5636,6.5575,6.5549,6.5683,6.6087,6.6394,6.6609,6.6678,6.7397,6.77,6.7427,6.8055,6.8303,6.8214,6.7962,6.7969,6.7628,6.6403,6.5396,6.5372,6.5329,6.5201,6.4908,6.4859,6.4688,6.4419,6.4346,6.4346,6.4346,6.4346,6.4346,6.4346,6.4346,6.4346,6.4346,6.4346,6.4346,6.4346,6.4346,6.4346,6.4346,6.4346,6.4346,6.4346,6.4346,6.4346,6.4346,6.4346,6.4388,6.4388,6.453,6.4755,6.5491,6.6721,6.8364,7.0186,6.9981,6.9281,6.9838,7.0212,7.05,6.7644,6.7644,6.7644,6.7644,6.7644,6.7644,6.7644,6.7644,6.7644,6.8017,6.8555,6.8625,6.8999,6.9606,6.9606,6.8882,6.7714,6.7644,6.7644,6.7644,6.7644,6.7644,6.7714,6.8298,6.8648,6.8766,6.9302,6.9606,6.9606,6.9654,6.9654,6.9654,6.9606,6.9629,6.9512,6.9,6.8673,6.8578,6.8041,6.7644,6.7667,6.7644,6.7457,6.7106,6.706,6.6943,6.6593,6.5962,6.5588,6.5588,6.5073,6.4699,6.4676,6.4349,6.4132,6.3999,6.3973,6.415,6.4458,6.481,6.5047,6.5115,6.5803,6.6179,6.6018,6.6483,6.6973,6.6881,6.6838,6.6498,6.6097,6.5201,6.4346,6.4346,6.437,6.4419,6.4346,6.4346,6.4346,6.4346,6.4346,6.4346,6.4346,6.4346,6.4346,6.4346,6.4346,6.4346,6.4346,6.4346,6.4346,6.4346,6.4346,6.4346,6.4346,6.4346,6.4346,6.4346,6.4346,6.4346,6.4346,6.4346,6.4346,6.4346,6.4346,6.453,6.463,6.5753,6.6096,6.7635,6.7675,6.734,6.8194,6.8522,6.8575,6.7644,6.7644,6.7644,6.7644,6.7644,6.7644,6.7644,6.7644,6.7644,6.7667,6.7714,6.769,6.762,6.7527,6.7527,6.7504,6.7457,6.7457,6.748,6.748,6.7597,6.7644,6.7644,6.7644,6.7667,6.7807,6.7901,6.7854,6.7784,6.7737,6.7644,6.7714,6.7831,6.7737,6.7807,6.7784,6.7667,6.7761,6.769,6.7644,6.762,6.7504,6.6943,6.6149,6.6055,6.5658,6.4978,6.4744,6.4629,6.4698,6.4534,6.4489,6.4442,6.3601,6.2733,6.1887,6.1723,6.1723,6.193,6.2636,6.3174,6.3291,6.4344,6.5091,6.4923,6.5452,6.6006,6.6515,6.5459,6.4811,6.446,6.43,6.4262,6.4262,6.4304,6.4346,6.4346,6.4346,6.4346,6.4346,6.4346,6.4346,6.4346,6.4346,6.4346,6.4346,6.4346,6.4346,6.4346,6.4346,6.4346,6.4346,6.4346,6.4346,6.4346,6.4346,6.4346,6.4346,6.4346,6.4346,6.4346,6.4346,6.4346,6.4346,6.4346,6.4346,6.4321,6.4474,6.4716,6.4798,6.4954,6.4706,6.5051,6.6234,6.6355,6.7644,6.7644,6.7644,6.7644,6.7644,6.7644,6.7644,6.7644,6.7644,6.7644,6.7644,6.7644,6.6873,6.5681,6.5541,6.5541,6.5634,6.6219,6.6546,6.6616,6.727,6.762,6.7644,6.7644,6.7644,6.7644,6.762,6.762,6.7644,6.7644,6.7644,6.7644,6.7644,6.7644,6.7644,6.7644,6.7644,6.7644,6.7644,6.7644,6.7434,6.6242,6.54,6.5143,6.512,6.5003,6.4744,6.3998,6.3601,6.3554,6.2873,6.2452,6.2452,6.2195,6.1914,6.1676,6.163,6.163,6.1653,6.191,6.2054,6.2098,6.2612,6.293,6.2863,6.364,6.4155,6.4032,6.3426,6.3182,6.3319,6.3633,6.3777,6.3819,6.4112,6.4346,6.4297,6.4346,6.4273,6.4346,6.4126,6.4346,6.4321,6.4248,6.4175,6.4199,6.4248,6.4346,6.4346,6.4297,6.4321,6.4346,6.4321,6.4297,6.4346,6.4175,6.4346,6.4346,6.4175,6.4151,6.4346,6.4321,6.4321,6.3711,6.4175,6.4273,6.3931,6.3328,6.3232,6.3093,6.2709,6.2249,6.2463,6.2459,6.27,6.6429,6.6476,6.6429,6.6476,6.6429,6.6429,6.6476,6.6429,6.6429,6.6429,6.6429,6.6429,6.5844,6.4723,6.4699,6.4699,6.4746,6.5307,6.5518,6.5588,6.6172,6.6452,6.6406,6.6476,6.6663,6.699,6.7036,6.7223,6.7574,6.7644,6.7644,6.7644,6.7644,6.7644,6.7644,6.7644,6.7644,6.7644,6.7247,6.6826,6.6336,6.5307,6.4557,6.4138,6.4091,6.3949,6.3458,6.2896,6.2569,6.2499,6.154,6.0998,6.0978,6.0557,6.0347,6.0347,6.0324,6.0324,6.0324,6.0347,6.0511,6.0955,6.1191,6.1421,6.1626,6.2314,6.2334,6.1584,6.1334,6.1352,6.166,6.1909,6.2074,6.2116,6.2469,6.2716,6.2716,6.2856,6.2978,6.3003,6.3003,6.2978,6.3003,6.3003,6.2978,6.3003,6.2954,6.3149,6.3564,6.3662,6.3833,6.4102,6.3516,6.31,6.2954,6.3003,6.2978,6.2978,6.3003,6.3003,6.2905,6.2978,6.3003,6.293,6.2832,6.2856,6.3125,6.2327,6.1961,6.1888,6.1302,6.1049,6.1049,6.1049,6.0561,6.4746,6.4699,6.4793,6.4699,6.4793,6.4769,6.4793,6.4769,6.4723,6.4652,6.4487,6.4464,6.4395,6.4419,6.4349,6.4302,6.437,6.4512,6.4627,6.4627,6.4676,6.4723,6.4816,6.4814,6.519,6.5892,6.5985,6.6406,6.7153,6.7247,6.734,6.7363,6.7387,6.7293,6.7317,6.7317,6.7317,6.7363,6.6359,6.5425,6.4629,6.4489,6.3975,6.304,6.304,6.2525,6.1563,6.1446,6.1442,6.1278,6.0417,5.9903,5.9832,5.906,5.8528,5.8552,5.8528,5.8482,5.8528,5.8482,5.899,5.9809,5.9968,6.0277,6.1138,6.1278,6.0632,5.9618,5.9521,5.9777,5.9755,5.9851,5.9987,6.0058,6.0373,6.0421,6.067,6.0756,6.097,6.1049,6.1318,6.1074,6.1318,6.1318,6.122,6.1391,6.1464,6.1668,6.2327,6.2474,6.2791,6.3271,6.2466,6.1318,6.1245,6.1074,6.1342,6.1245,6.1122,6.1293,6.1416,6.1342,6.1098,6.1684,6.1318,6.1391,6.1293,6.0927,6.0936,6.0839,6.0668,6.0634,6.0732,6.0585,6.0219,6.4699,6.4699,6.4699,6.4699,6.4699,6.4699,6.4699,6.4699,6.4676,6.3832,6.2429,6.2332,6.2288,6.2312,6.2312,6.2312,6.2429,6.311,6.353,6.3601,6.4349,6.4699,6.4699,6.4699,6.4861,6.5003,6.5026,6.5167,6.5354,6.5377,6.54,6.54,6.5377,6.5377,6.5377,6.54,6.54,6.533,6.4372,6.3741,6.3507,6.2733,6.2218,6.1961,6.1961,6.147,6.0529,6.0436,6.0043,5.9271,5.9014,5.8832,5.8832,5.8599,5.8482,5.8482,5.8482,5.8482,5.8482,5.8482,5.8599,5.885,5.8873,5.8967,5.9177,5.9224,5.9031,5.8739,5.8714,5.8778,5.8812,5.9038,5.9288,5.9328,5.9731,5.9981,6.0357,6.0565,6.07,6.097,6.1049,6.0961,6.1049,6.1049,6.0952,6.0863,6.1049,6.1098,6.1278,6.1351,6.1424,6.1595,6.1416,6.0952,6.1049,6.0976,6.0952,6.1049,6.0976,6.0854,6.0878,6.0976,6.1,6.0878,6.0952,6.0854,6.0903,6.0399,5.9911,5.9789,5.9301,5.8764,5.8813,5.8838,5.8838,6.3294,6.3318,6.3294,6.3294,6.3294,6.3294,6.3294,6.3247,6.2312,6.1236,6.0277,6.0698,6.0885,6.0908,6.1419,6.163,6.1653,6.2218,6.2452,6.2522,6.306,6.3294,6.3318,6.3318,6.3551,6.3998,6.4021,6.43,6.4676,6.4699,6.4699,6.4699,6.4699,6.4699,6.4699,6.4699,6.4699,6.4676,6.3247,6.2432,6.2409,6.1914,6.1419,6.0885,6.0862,6.0394,5.9411,5.9365,5.9107,5.8546,5.8078,5.778,5.778,5.7336,5.7079,5.7079,5.7079,5.7079,5.7079,5.7103,5.729,5.7734,5.7821,5.7593,5.7126,5.7079,5.7079,5.7079,5.7079,5.7056,5.7119,5.7255,5.7414,5.7414,5.781,5.818,5.84,5.8557,5.8753,5.8924,5.8987,5.8963,5.9026,5.9157,5.9274,5.9274,5.9492,5.9789,6.0253,5.9936,5.9594,5.9594,5.9594,5.9619,5.9633,5.9657,5.9619,5.9619,5.9633,5.9594,5.9594,5.957,5.957,5.9633,5.957,5.9633,5.9545,5.913,5.8862,5.8716,5.8228,5.7984,5.7984,5.835,5.9155,6.1208,6.1166,6.1166,6.1208,6.1208,6.1208,6.1208,6.1002,5.9294,5.8505,5.8593,5.9458,5.9856,5.9903,6.081,6.1166,6.1166,6.1166,6.1278,6.1419,6.1395,6.1446,6.163,6.163,6.2121,6.2899,6.299,6.3414,6.423,6.4232,6.4255,6.4277,6.4323,6.4232,6.43,6.43,6.43,6.4277,6.2499,6.1516,6.1419,6.1419,6.0885,5.9903,5.9832,5.9365,5.8318,5.8271,5.8265,5.8038,5.7219,5.6729,5.6705,5.5911,5.5373,5.5171,5.5209,5.5139,5.4961,5.4961,5.5381,5.6401,5.6659,5.6308,5.5326,5.5171,5.5217,5.5443,5.5513,5.542,5.542,5.5513,5.556,5.5529,5.5729,5.5951,5.6161,5.6438,5.663,5.6769,5.6611,5.6683,5.6855,5.705,5.7226,5.7206,5.7762,5.8163,5.8758,5.8319,5.7833,5.7811,5.7848,5.7886,5.8179,5.8032,5.8423,5.813,5.851,5.8838,5.8886,5.8862,5.8862,5.8496,5.8851,5.8729,5.8681,5.835,5.8642,5.8716,5.8691,5.8545,5.8632,5.9336,6.0277,5.906,5.906,5.9019,5.9084,5.906,5.906,5.9084,5.9037,5.8686,0.0,0.0,5.8733,5.8803,5.8803,5.899,5.906,5.9084,5.906,5.9528,6.0324,6.0366,6.0834,6.163,6.163,6.1747,6.1867,6.1891,6.1984,6.2148,6.2148,6.2148,6.2148,6.2148,6.2191,6.2148,6.2148,6.2148,6.2168,6.1774,6.1208,6.037,6.0324,5.9832,5.8827,5.8803,5.8312,5.7266,5.7219,5.6846,5.6027,5.5755,5.5638,5.5661,5.5513,5.5007,5.4213,5.412,5.3746,5.2905,5.2798,5.3265,5.4307,5.5171,5.5217,5.4152,5.412,5.447,5.5311,5.542,5.542,5.542,5.542,5.542,5.542,5.5458,5.5667,5.5927,5.6042,5.6181,5.6511,5.6535,5.6573,5.6573,5.6625,5.6663,5.674,5.7044,5.7406,5.7465,5.726,5.7126,5.7368,5.7879,5.8008,5.8057,5.8642,5.9165,5.9253,5.9887,6.0463,6.0512,6.0488,6.0473,6.0317,6.0488,6.0414,6.0424,6.0365,6.0512,6.0512,6.0512,6.0473,6.0585,6.1302,6.1897,5.637,5.7203,5.7226,5.7762,0.0,5.8482,5.7897,5.6939,5.6939,5.6939,5.6986,5.7477,5.7687,5.7734,5.8248,5.8482,5.8482,5.8482,5.8762,5.9271,5.9294,5.9552,6.0043,6.0043,6.0043,6.0043,6.0043,6.03,6.0791,6.0791,6.1115,6.163,6.163,6.163,6.163,6.163,6.1115,6.0043,6.0043,5.9809,5.9318,5.9271,5.878,5.7797,5.771,0.0,0.0,0.0,0.0,0.0,0.0,0.0,0.0,5.461,0.0,5.3139,5.2578,5.2017,5.155,5.1504,5.1714,5.2228,5.3209,5.3372,5.2358,5.2742,5.3279,5.3793,5.3839,5.405,5.454,5.4587,5.482,5.535,5.542,5.5435,5.5667,5.5682,5.5782,5.596,5.5998,5.5975,5.5998,5.6128,5.6281,5.6296,5.664,5.683,5.6878,5.7156,5.739,5.7607,5.8479,5.9162,5.9274,5.9853,6.0277,6.0302,6.0692,6.1,6.1049,6.1049,6.1049,6.1049,6.1049,6.1049,6.1049,6.1049,6.1049,6.1049,6.1049,6.1049,6.1074,6.1464,6.1815,5.3557,5.4855,5.4855,5.587,5.7388,5.7039,5.6158,5.4954,5.4931,5.511,5.5451,5.6285,5.6659,5.6729,5.7547,5.7938,5.7961,5.7921,5.8055,5.8242,5.8242,5.8335,5.8482,5.8482,5.8482,5.8482,5.8482,5.8944,5.9762,5.9786,6.0207,6.1021,6.1002,6.1044,6.1044,0.0,0.0,0.0,5.8213,5.7916,5.773,5.773,5.7243,5.6246,5.65,0.0,5.5428,5.542,5.5326,5.5124,5.5101,0.0,0.0,0.0,0.0,0.0,0.0,0.0,0.0,0.0,0.0,0.0,5.0196,5.0266,4.967,5.0546,5.1317,5.169,5.1901,5.2368,5.3162,5.3419,5.3909,5.4704,5.4774,5.482,5.4797,5.4774,5.489,5.5054,5.5077,5.5186,5.5373,5.5643,5.5874,5.5913,5.6181,5.6434,5.6358,5.6985,5.7571,5.7783,5.8503,5.9499,5.9817,6.0221,6.0546,6.0766,6.0839,6.1049,6.1049,6.1049,6.1049,6.1049,6.1049,6.1049,6.1049,6.1049,6.1049,6.1049,6.1049,6.1049,6.1049,6.1049,6.1049,5.0671,5.0897,5.0938,5.1952,5.344,5.1933,5.1982,5.32,5.32,5.401,5.542,5.556,5.5607,5.563,5.577,5.5817,5.5755,5.5778,5.6285,5.7126,5.7149,5.7617,5.8482,5.8482,5.8482,5.8482,5.8482,5.8552,5.871,5.871,5.878,5.8897,5.892,5.892,5.892,5.8897,5.878,5.8505,5.7038,5.584,5.5007,5.4944,5.4431,5.3549,5.4804,5.556,5.542,5.542,5.4999,5.412,5.405,5.3139,5.1259,5.1119,5.0242,0.0,4.8093,0.0,0.0,0.0,0.0,0.0,0.0,0.0,0.0,4.643,4.7706,4.9425,5.0418,5.0979,5.1119,5.1947,5.2578,5.2658,5.2681,5.2718,5.2695,5.2681,5.3008,5.3933,5.405,5.4377,5.5194,5.542,5.5497,5.5512,5.575,5.588,5.5652,5.5801,5.6081,5.6217,5.6436,5.7339,5.7848,5.8905,5.9775,5.9824,6.0433,6.1025,6.1049,6.1049,6.1049,6.1049,6.1049,6.1049,6.1049,6.1049,6.1049,6.1049,6.0829,6.0707,6.0707,6.0659,6.1049,4.785,4.8759,4.8738,4.921,4.9905,4.9108,4.9529,5.0721,5.0739,5.0848,5.1054,5.1077,5.1077,5.1154,5.2018,5.268,5.3298,5.4135,5.5116,5.6098,5.6098,5.6331,5.6775,5.6775,5.6799,5.6775,5.6799,5.7079,5.7657,5.764,5.7944,5.8482,5.8482,5.6917,5.4016,5.389,5.3849,5.3849,5.3114,5.2998,5.3513,5.2559,5.2322,5.2843,5.3617,5.401,5.3987,5.4336,5.433,5.3839,5.2718,5.1446,4.9974,4.8862,4.7599,0.0,0.0,0.0,0.0,0.0,0.0,0.0,0.0,0.0,0.0,0.0,4.3834,4.6449,4.7646,4.8431,4.8992,4.9425,4.9939,5.0499,4.9908,4.9995,5.1292,5.081,5.1021,5.2747,5.2999,5.3358,5.44,5.454,5.4727,5.5311,5.5082,5.4933,5.5303,5.5934,5.63,5.652,5.7045,5.7596,5.8125,5.9068,5.976,6.003,6.0425,6.0796,6.101,6.1049,6.1049,6.1049,6.1049,6.1049,6.1049,6.1049,6.1049,6.0732,5.9155,5.7666,5.7471,5.7471,5.7715,4.5713,4.6914,4.6539,4.6442,4.6422,4.6422,4.7021,4.8039,4.8018,4.7804,4.7355,4.7333,4.7264,4.7147,4.8491,4.9733,5.0922,5.2253,5.3357,5.4136,5.4737,5.4815,5.4545,5.511,5.542,5.5381,5.4993,5.5427,5.6526,5.6193,5.6404,5.7121,5.6618,5.4116,4.9872,4.9748,4.9854,5.0107,5.0107,5.0633,5.1584,5.025,5.0188,5.1584,5.2025,5.2154,5.1973,5.28,5.2926,5.2201,5.0998,4.9414,4.7422,4.6174,0.0,0.0,0.0,0.0,0.0,0.0,0.0,0.0,0.0,3.7611,3.8116,0.0,3.9644,0.0,4.3719,4.5168,4.6426,4.672,0.0,0.0,4.7502,4.7489,4.8974,4.8612,4.8974,5.0846,5.1357,5.2028,5.3326,5.3489,5.3755,5.4493,5.398,5.3769,5.4517,5.5373,5.5864,5.5801,5.6331,5.7168,5.7344,5.7951,5.8248,5.8861,5.889,5.9055,5.9433,5.9497,5.9497,5.956,5.9497,5.9521,5.9375,5.9535,5.9486,5.9315,5.6934,5.464,5.464,5.4689,5.4873,4.497,4.4964,4.3561,4.2972,4.2972,4.2972,4.3897,4.54,4.538,4.5819,4.65,4.6537,4.6139,4.5553,4.6393,0.0,4.9049,4.9883,5.0317,5.0504,5.2874,5.3214,5.1951,5.4275,5.542,5.5319,5.3853,5.3938,5.5358,5.3905,5.3238,5.326,5.1154,4.9586,4.8597,4.852,4.908,5.0107,5.0107,4.9476,4.8057,4.7912,4.7912,4.8098,4.9558,5.0047,4.9395,5.0735,5.0249,4.7656,4.8604,4.7077,4.2405,0.0,0.0,0.0,0.0,0.0,0.0,0.0,0.0,0.0,0.0,0.0,0.0,0.0,0.0,3.5228,3.8156,0.0,4.3315,4.4061,0.0,0.0,0.0,4.5541,4.4717,4.5698,4.6756,4.7549,0.0,0.0,5.2145,5.2401,5.2461,5.2518,5.2485,5.2425,5.2555,5.2681,5.2658,5.2858,5.2798,5.2983,5.3704,5.372,5.4062,5.4757,5.4529,5.4867,5.524,5.5323,5.5201,5.5323,5.5177,5.5226,5.5177,5.5239,5.5128,5.5128,5.4738,5.4518,5.4347,5.4274,5.4263,4.3205,4.2612,4.2007,4.1477,4.1042,4.1042,4.1102,4.1225,4.1207,4.1166,4.1043,4.1079,4.0899,4.0634,4.0939,0.0,0.0,0.0,4.6797,4.7948,4.9843,5.0681,5.0705,5.2592,5.3062,5.211,5.1441,5.1463,5.2072,5.1441,4.9406,4.6129,0.0,4.4706,4.3409,4.4057,4.4905,4.5894,4.618,4.617,4.5989,4.7079,4.7642,4.7642,4.7713,4.8111,4.8729,4.7917,4.7351,4.7093,4.5122,4.2827,0.0,0.0,0.0,0.0,0.0,0.0,0.0,0.0,0.0,0.0,0.0,3.2424,3.1884,0.0,0.0,0.0,3.4437,3.5536,3.83,3.9655,0.0,0.0,0.0,0.0,0.0,0.0,0.0,4.4663,4.5651,4.7169,4.9997,4.9389,4.9109,5.0242,5.0429,5.0896,5.2098,0.0,5.2261,5.2261,5.2261,5.2358,5.2517,5.2517,5.2626,5.2953,5.2863,5.2987,5.3559,5.3699,5.3699,5.3688,5.3664,5.3859,5.4483,5.2298,5.0544,5.0718,5.0751,5.0751,5.0727,5.0751,5.1199,4.0737,0.0,0.0,0.0,0.0,3.9047,3.8554,3.7949,3.7721,3.7187,3.6462,3.6462,0.0,0.0,0.0,0.0,0.0,0.0,4.286,4.4248,4.6337,4.7587,4.8165,4.9961,5.028,4.9138,4.8696,4.8437,4.8393,4.6819,4.4132,4.0333,0.0,0.0,0.0,0.0,4.1572,4.2782,4.3435,4.4112,4.4885,4.6177,4.6829,4.6829,4.5978,4.573,4.6107,4.4637,4.389,4.4153,4.126,0.0,0.0,0.0,0.0,0.0,0.0,0.0,0.0,0.0,0.0,0.0,0.0,0.0,0.0,0.0,0.0,0.0,0.0,0.0,3.3192,3.4994,3.5831,0.0,0.0,0.0,0.0,0.0,0.0,0.0,0.0,0.0,4.6441,4.5581,4.5605,0.0,0.0,4.9109,5.113,5.0991,5.0873,5.1449,5.1134,0.0,5.0189,5.0448,5.0517,5.0025,5.0194,5.0591,5.1268,5.1394,5.1394,5.137,5.1394,5.1427,5.1543,4.8716,4.6687,4.7055,4.711,4.7238,4.7585,4.7745,4.8368,0.0,0.0,0.0,0.0,3.7488,0.0,0.0,0.0,3.5445,3.4701,0.0,3.3922,0.0,0.0,0.0,0.0,3.6295,3.7667,0.0,0.0,4.2288,4.3785,4.3766,4.6143,4.7349,4.7208,4.5603,4.4813,4.4471,3.9411,0.0,0.0,0.0,0.0,0.0,0.0,3.9958,4.1942,4.3114,4.4112,4.4847,4.497,4.5032,4.4994,4.4275,4.2818,4.0528,4.0887,3.985,3.7105,3.7004,0.0,0.0,0.0,0.0,0.0,0.0,0.0,0.0,0.0,0.0,0.0,0.0,0.0,0.0,0.0,0.0,0.0,0.0,0.0,0.0,3.0192,0.0,0.0,0.0,0.0,0.0,0.0,0.0,0.0,0.0,4.1327,4.1049,4.1026,4.2303,4.5839,0.0,0.0,0.0,0.0,4.7581,4.9526,4.8323,4.6711,4.5277,4.6075,4.6337,4.4765,0.0,0.0,4.7371,4.7411,4.7475,4.7443,4.7451,4.686,4.5268,4.382,4.3233,4.4351,4.4652,4.5025,4.5986,4.6259,4.6794,0.0,0.0,0.0,0.0,0.0,0.0,0.0,0.0,0.0,3.2897,3.2218,3.2161,0.0,0.0,0.0,0.0,0.0,0.0,0.0,0.0,3.7552,3.9073,3.9642,4.1763,4.2389,0.0,4.0547,3.8606,0.0,0.0,0.0,0.0,0.0,0.0,0.0,0.0,3.8102,3.996,4.1976,4.3357,4.4131,4.462,4.462,4.415,4.3907,4.2921,4.1219,3.8556,3.6697,0.0,0.0,0.0,0.0,0.0,0.0,0.0,0.0,0.0,0.0,0.0,0.0,0.0,0.0,0.0,0.0,0.0,0.0,0.0,0.0,0.0,0.0,0.0,2.8034,0.0,0.0,0.0,0.0,0.0,0.0,0.0,0.0,0.0,3.459,3.6372,3.871,4.1104,4.159,4.2415,4.4317,0.0,0.0,0.0,0.0,0.0,0.0,0.0,4.5123,4.5446,4.5438,4.5257,4.4881,4.4439,4.4195,4.4195,0.0,0.0,4.2123,4.1496,4.1405,4.212,4.2249,4.2373,4.2733,4.2915,4.3286,0.0,0.0,0.0,0.0,0.0,0.0,0.0,0.0,0.0,3.0496,3.0002,0.0,0.0,0.0,0.0,0.0,0.0,0.0,0.0,0.0,0.0,0.0,3.6265,3.7537,0.0,0.0,0.0,0.0,0.0,0.0,0.0,0.0,0.0,0.0,0.0,0.0,3.6427,3.8283,4.0441,4.2169,4.3511,4.3753,4.3836,4.3733,4.2939,4.204,4.1031,0.0,0.0,0.0,0.0,0.0,0.0,0.0,0.0,0.0,0.0,0.0,0.0,0.0,0.0,0.0,0.0,0.0,0.0,0.0,0.0,0.0,0.0,0.0,0.0,0.0,2.5094,0.0,0.0,0.0,0.0,0.0,0.0,0.0,0.0,0.0,0.0,3.2941,3.5246,3.7639,3.8332,3.9381,4.1421,4.2181,4.2836,0.0,0.0,0.0,0.0,0.0,0.0,0.0,0.0,0.0,0.0,0.0,0.0,0.0,0.0,3.978,3.8547,3.8277,3.8329,3.8694,0.0,0.0,0.0,0.0,0.0,0.0,0.0,0.0,0.0,0.0,0.0,0.0,0.0,0.0,0.0,2.7345,0.0,0.0,2.7232,0.0,0.0,0.0,0.0,0.0,0.0,0.0,0.0,0.0,0.0,0.0,0.0,0.0,0.0,0.0,0.0,0.0,0.0,0.0,0.0,0.0,0.0,3.5015,3.705,3.8735,4.0665,4.3007,4.2292,4.2458,4.3524,4.1346,3.9864,3.9355,0.0,0.0,0.0,0.0,0.0,0.0,0.0,0.0,0.0,0.0,0.0,0.0,0.0,0.0,0.0,0.0,0.0,0.0,0.0,0.0,0.0,0.0,0.0,0.0,0.0,0.0,2.3552,2.4201,2.4951,0.0,0.0,0.0,0.0,0.0,0.0,0.0,0.0,0.0,3.5531,3.6725,3.7988,4.0202,3.9897,4.0051,4.2033,4.1033,3.9495,3.7992,3.8944,3.9021,0.0,0.0,0.0,0.0,0.0,0.0,0.0,0.0,0.0,0.0,0.0,0.0,0.0,0.0,0.0,0.0,0.0,0.0,0.0,0.0,0.0,0.0,0.0,0.0,0.0,0.0,0.0,0.0,0.0,0.0,0.0,0.0,0.0,0.0,0.0,0.0,0.0,0.0,0.0,0.0,0.0,0.0,0.0,0.0,0.0,0.0,0.0,0.0,0.0,0.0,0.0,0.0,0.0,0.0,3.4081,3.5749,3.8492,4.0489,4.1752,4.2132,4.2191,4.193,4.0719,3.9032,0.0,0.0,0.0,0.0,0.0,0.0,0.0,0.0,0.0,0.0,0.0,0.0,0.0,0.0,0.0,0.0,0.0,0.0,0.0,0.0,0.0,0.0,0.0,0.0,0.0,0.0,0.0,0.0,2.3719,2.3969,2.4176,0.0,0.0,0.0,0.0,0.0,0.0,0.0,0.0,0.0,0.0,3.3149,3.4528,3.571,3.678,3.7667,3.799,3.8036,3.7697,3.6845,3.624,3.6284,0.0,0.0,0.0,0.0,0.0,0.0,0.0,0.0,0.0,0.0,0.0,0.0,0.0,0.0,0.0,0.0,0.0,0.0,0.0,0.0,0.0,0.0,0.0,0.0,0.0,0.0,0.0,0.0,0.0,0.0,0.0,0.0,0.0,0.0,0.0,0.0,0.0,0.0,0.0,0.0,0.0,0.0,0.0,0.0,0.0,0.0,0.0,0.0,0.0,0.0,0.0,0.0,0.0,3.2974,3.4301,3.7154,3.9073,4.0081,4.0544,4.066,4.0292,3.9355,3.7589,0.0,0.0,0.0,0.0,0.0,0.0,0.0,0.0,0.0,0.0,0.0,0.0,0.0,0.0,0.0,0.0,0.0,0.0,0.0,0.0,0.0,0.0,0.0,0.0,0.0,0.0,0.0,0.0,2.3498,2.3498,2.3498,0.0,0.0,0.0,0.0,0.0,0.0,0.0,0.0,0.0,0.0,3.0338,3.1427,3.2812,0.0,0.0,3.4962,3.5382,3.5668,3.4734,3.3985,3.3978,3.4072,0.0,0.0,0.0,0.0,0.0,0.0,0.0,0.0,0.0,0.0,0.0,0.0,0.0,0.0,0.0,0.0,0.0,0.0,0.0,0.0,0.0,0.0,0.0,0.0,0.0,0.0,0.0,0.0,0.0,0.0,0.0,0.0,0.0,0.0,0.0,0.0,0.0,0.0,0.0,0.0,0.0,0.0,0.0,0.0,0.0,0.0,0.0,0.0,0.0,0.0,0.0,0.0,3.1898,3.2879,3.5157,3.7016,3.8235,3.8172,3.8361,3.8784,3.7601,3.5842,0.0,0.0,0.0,0.0,0.0,0.0,0.0,0.0,0.0,0.0,0.0,0.0,0.0,0.0,0.0,0.0,0.0,0.0,0.0,0.0,0.0,0.0,0.0,0.0,0.0,0.0,0.0,0.0,0.0,0.0,0.0,0.0,0.0,0.0,0.0,0.0,0.0,0.0,0.0,0.0,0.0,2.9056,3.0286,3.0945,3.1561,0.0,3.2085,3.1974,3.2194,3.2508,3.203,3.0058,0.0,0.0,0.0,0.0,0.0,0.0,0.0,0.0,0.0,0.0,0.0,0.0,0.0,0.0,0.0,0.0,0.0,0.0,0.0,0.0,0.0,0.0,0.0,0.0,0.0,0.0,0.0,0.0,0.0,0.0,0.0,0.0,0.0,0.0,0.0,0.0,0.0,0.0,0.0,0.0,0.0,0.0,0.0,0.0,0.0,0.0,0.0,0.0,0.0,0.0,0.0,0.0,0.0,0.0,3.2858,3.5158,3.6939,3.8122,3.8375,3.8449,3.8289,3.7448,0.0,0.0,0.0,0.0,0.0,0.0,0.0,0.0,0.0,0.0,0.0,0.0,0.0,0.0,0.0,0.0,0.0,0.0,0.0,0.0,0.0,0.0,0.0,0.0,0.0,0.0,0.0,2.2874,0.0,0.0,0.0,0.0,0.0,0.0,0.0,0.0,0.0,0.0,0.0,0.0,0.0,0.0,2.7192,2.8103,2.8839,2.9667,0.0,0.0,3.0227,3.0023,2.9568,2.888,0.0,0.0,0.0,0.0,0.0,0.0,0.0,0.0,0.0,0.0,0.0,0.0,0.0,0.0,0.0,0.0,0.0,0.0,0.0,0.0,0.0,0.0,0.0,0.0,0.0,0.0,0.0,0.0,0.0,0.0,0.0,0.0,0.0,0.0,0.0,0.0,0.0,0.0,0.0,0.0,0.0,0.0,0.0,0.0,0.0,0.0,0.0,0.0,0.0,0.0,0.0,0.0,0.0,0.0,3.1325,3.193,3.4312,3.6009,3.6814,3.7087,3.7068,3.6833,3.6016,3.4395,0.0,0.0,0.0,0.0,0.0,0.0,0.0,0.0,0.0,0.0,0.0,0.0,0.0,0.0,0.0,0.0,0.0,0.0,0.0,0.0,0.0,0.0,0.0,0.0,0.0,0.0,0.0,0.0,0.0,0.0,0.0,0.0,0.0,0.0,0.0,0.0,0.0,0.0,0.0,0.0,0.0,0.0,2.6757,2.7479,0.0,0.0,0.0,2.8589,2.8207,0.0,0.0,0.0,0.0,0.0,0.0,0.0,0.0,0.0,0.0,0.0,0.0,0.0,0.0,0.0,0.0,0.0,0.0,0.0,0.0,0.0,0.0,0.0,0.0,0.0,0.0,0.0,0.0,0.0,0.0,0.0,0.0,0.0,0.0,0.0,0.0,0.0,0.0,0.0,0.0,0.0,0.0,0.0,0.0,0.0,0.0,0.0,0.0,0.0,0.0,0.0,0.0,0.0,0.0,0.0,0.0,0.0,3.068,3.3096,3.4698,3.5202,3.5238,3.5184,3.5238,3.4289,3.2757,0.0,0.0,0.0,0.0,0.0,0.0,0.0,0.0,0.0,0.0,0.0,0.0,0.0,0.0,0.0,0.0,0.0,0.0,0.0,0.0,0.0,0.0,0.0,0.0,0.0,0.0,0.0,0.0,0.0,0.0,0.0,0.0,0.0,0.0,0.0,0.0,0.0,0.0,0.0,0.0,0.0,2.4927,2.5891,2.6452,2.6748,0.0,0.0,2.711,2.6652,2.6601,0.0,0.0,0.0,0.0,0.0,0.0,0.0,0.0,0.0,0.0,0.0,0.0,0.0,0.0,0.0,0.0,0.0,0.0,0.0,0.0,0.0,0.0,0.0,0.0,0.0,0.0,0.0,0.0,0.0,0.0,0.0,0.0,0.0,0.0,0.0,0.0,0.0,0.0,0.0,0.0,0.0,0.0,0.0,0.0,0.0,0.0,0.0,0.0,0.0,0.0,0.0,0.0,0.0,0.0,0.0,0.0,3.1006,3.2457,3.4002,3.5526,3.5328,3.5328,3.5616,3.4271,3.271,0.0,0.0,0.0,0.0,0.0,0.0,0.0,0.0,0.0,0.0,0.0,0.0,0.0,0.0,0.0,0.0,0.0,0.0,0.0,0.0,0.0,0.0,0.0,0.0,0.0,0.0,0.0,0.0,0.0,0.0,0.0,0.0,0.0,0.0,0.0,0.0,0.0,0.0,0.0,0.0,0.0,2.4065,2.4884,2.5066,0.0,0.0,0.0,0.0,2.5245,2.5101,0.0,0.0,0.0,0.0,0.0,0.0,0.0,0.0,0.0,0.0,0.0,0.0,0.0,0.0,0.0,0.0,0.0,0.0,0.0,0.0,0.0,0.0,0.0,0.0,0.0,0.0,0.0,0.0,0.0,0.0,0.0,0.0,0.0,0.0,0.0,0.0,0.0,0.0,0.0,0.0,0.0,0.0,0.0,0.0,0.0,0.0,0.0,0.0,0.0,0.0,0.0,0.0,0.0,0.0,0.0,0.0,3.0796,3.19,3.3282,3.4844,3.4381,3.4345,3.4844,3.316,3.1765,0.0,0.0,0.0,0.0,0.0,0.0,0.0,0.0,0.0,0.0,0.0,0.0,0.0,0.0,0.0,0.0,0.0,0.0,0.0,0.0,0.0,0.0,0.0,0.0,0.0,0.0,0.0,0.0,0.0,0.0,0.0,0.0,0.0,0.0,0.0,0.0,0.0,0.0,0.0,0.0,2.3498,2.3665,2.4082,0.0,0.0,0.0,0.0,0.0,0.0,2.4111,2.3986,0.0,0.0,0.0,0.0,0.0,0.0,0.0,0.0,0.0,0.0,0.0,0.0,0.0,0.0,0.0,0.0,0.0,0.0,0.0,0.0,0.0,0.0,0.0,0.0,0.0,0.0,0.0,0.0,0.0,0.0,0.0,0.0,0.0,0.0,0.0,0.0,0.0,0.0,0.0,0.0,0.0,0.0,0.0,0.0,0.0,0.0,0.0,0.0,0.0,0.0,0.0,0.0,0.0,0.0,0.0,3.0363,3.1321,3.249,3.3827,3.3188,3.3224,3.4023,3.2019,3.0724,3.0224,0.0,0.0,0.0,0.0,0.0,0.0,0.0,0.0,0.0,0.0,0.0,0.0,0.0,0.0,0.0,0.0,0.0,0.0,0.0,0.0,0.0,0.0,0.0,0.0,0.0,0.0,0.0,0.0,0.0,0.0,0.0,0.0,0.0,0.0,0.0,0.0,0.0,0.0,0.0,2.3498,2.3498,0.0,0.0,0.0,0.0,0.0,0.0,0.0,0.0,2.3498,0.0,0.0,0.0,0.0,0.0,0.0,0.0,0.0,0.0,0.0,0.0,0.0,0.0,0.0,0.0,0.0,0.0,0.0,0.0,0.0,0.0,0.0,0.0,0.0,0.0,0.0,0.0,0.0,0.0,0.0,0.0,0.0,0.0,0.0,0.0,0.0,0.0,0.0,0.0,0.0,0.0,0.0,0.0,0.0,0.0,0.0,0.0,0.0,0.0,0.0,0.0,0.0,0.0,0.0,0.0,0.0,3.0456,3.1602,3.326,3.3022,3.3396,3.4424,3.2167,3.049,2.9516,0.0,0.0,0.0,0.0,0.0,0.0,0.0,0.0,0.0,0.0,0.0,0.0,0.0,0.0,0.0,0.0,0.0,0.0,0.0,0.0,0.0,0.0,0.0,0.0,0.0,0.0,0.0,0.0,0.0,0.0,0.0,0.0,0.0,0.0,0.0,0.0,0.0,0.0,2.3498,2.3498,0.0,0.0,0.0,0.0,0.0,0.0,0.0,0.0,2.3498,0.0,0.0,0.0,0.0,0.0,0.0,0.0,0.0,0.0,0.0,0.0,0.0,0.0,0.0,0.0,0.0,0.0,0.0,0.0,0.0,0.0,0.0,0.0,0.0,0.0,0.0,0.0,0.0,0.0,0.0,0.0,0.0,0.0,0.0,0.0,0.0,0.0,0.0,0.0,0.0,0.0,0.0,0.0,0.0,0.0,0.0,0.0,0.0,0.0,0.0,0.0,0.0,0.0,0.0,0.0,0.0,0.0,0.0,3.0297,3.1261,3.1576,3.1817,3.1848,3.0172,2.9178,0.0,0.0,0.0,0.0,0.0,0.0,0.0,0.0,0.0,0.0,0.0,0.0,0.0,0.0,0.0,0.0,0.0,0.0,0.0,0.0,0.0,0.0,0.0,0.0,0.0,0.0,0.0,0.0,0.0,0.0,0.0,0.0,0.0,0.0,0.0,0.0,0.0,0.0,0.0,0.0,0.0,0.0,0.0,0.0,0.0,0.0,0.0,0.0,0.0,0.0,0.0,0.0,0.0,0.0,0.0,0.0,0.0,0.0,0.0,0.0,0.0,0.0,0.0,0.0,0.0,0.0,0.0,0.0,0.0,0.0,0.0,0.0,0.0,0.0,0.0,0.0,0.0,0.0,0.0,0.0,0.0,0.0,0.0,0.0,0.0,0.0,0.0,0.0,0.0,0.0,0.0,0.0,0.0,0.0,0.0,0.0,0.0,0.0,0.0,0.0,0.0,0.0,0.0,0.0,0.0,0.0,0.0,0.0,2.862,2.9157,2.9624,2.9724,2.9473,2.7877,2.721,0.0,0.0,0.0,0.0,0.0,0.0,0.0,0.0,0.0,0.0,0.0,0.0,0.0,0.0,0.0,0.0,0.0,0.0,0.0,0.0,0.0,0.0,0.0,0.0,0.0,0.0,0.0,0.0,0.0,0.0,0.0,0.0,0.0,0.0,0.0,0.0,0.0,0.0,0.0,0.0,0.0,0.0,0.0,0.0,0.0,0.0,0.0,0.0,2.3498,0.0,0.0,0.0,0.0,0.0,0.0,0.0,0.0,0.0,0.0,0.0,0.0,0.0,0.0,0.0,0.0,0.0,0.0,0.0,0.0,0.0,0.0,0.0,0.0,0.0,0.0,0.0,0.0,0.0,0.0,0.0,0.0,0.0,0.0,0.0,0.0,0.0,0.0,0.0,0.0,0.0,0.0,0.0,0.0,0.0,0.0,0.0,0.0,0.0,0.0,0.0,0.0,0.0,0.0,0.0,0.0,0.0,0.0,0.0,2.6568,2.7947,2.7372,2.7742,2.9019,2.6153,2.4372,0.0,0.0,0.0,0.0,0.0,0.0,0.0,0.0,0.0,0.0,0.0,0.0,0.0,0.0,0.0,0.0,0.0,0.0,0.0,0.0,0.0,0.0,0.0,0.0,0.0,0.0,0.0,0.0,0.0,0.0,0.0,0.0,0.0,0.0,0.0,0.0,0.0,0.0,0.0,0.0,0.0,0.0,0.0,0.0,0.0,0.0,0.0,0.0,0.0,0.0,0.0,0.0,0.0,0.0,0.0,0.0,0.0,0.0,0.0,0.0,0.0,0.0,0.0,0.0,0.0,0.0,0.0,0.0,0.0,0.0,0.0,0.0,0.0,0.0,0.0,0.0,0.0,0.0,0.0,0.0,0.0,0.0,0.0,0.0,0.0,0.0,0.0,0.0,0.0,0.0,0.0,0.0,0.0,0.0,0.0,0.0,0.0,0.0,0.0,0.0,0.0,0.0,0.0,0.0,0.0,0.0,0.0,0.0,2.6177,2.5247,2.6035,2.5977,2.4766,2.3409,2.2843,0.0,0.0,0.0,0.0,0.0,0.0,0.0,0.0,0.0,0.0,0.0,0.0,0.0,0.0,0.0,0.0,0.0,0.0,0.0,0.0,0.0,0.0,0.0,0.0,0.0,0.0,0.0,0.0,0.0,0.0,0.0,0.0,0.0,0.0,0.0,0.0,0.0,0.0,0.0,0.0,0.0,0.0,0.0,0.0,0.0,0.0,0.0,0.0,0.0,0.0,0.0,0.0,0.0,0.0,0.0,0.0,0.0,0.0,0.0,0.0,0.0,0.0,0.0,0.0,0.0,0.0,0.0,0.0,0.0,0.0,0.0,0.0,0.0,0.0,0.0,0.0,0.0,0.0,0.0,0.0,0.0,0.0,0.0,0.0,0.0,0.0,0.0,0.0,0.0,0.0,0.0,0.0,0.0,0.0,0.0,0.0,0.0,0.0,0.0,0.0,0.0,0.0,0.0,0.0,0.0,0.0,0.0,0.0,0.0,2.3216,2.4432,2.3852,2.1167,2.1062,2.1438,0.0,0.0,0.0,0.0,0.0,0.0,0.0,0.0,0.0,0.0,0.0,0.0,0.0,0.0,0.0,0.0,0.0,0.0,0.0,0.0,0.0,0.0,0.0,0.0,0.0,0.0,0.0,0.0,0.0,0.0,0.0,0.0,0.0,0.0,0.0,0.0,0.0,0.0,0.0,0.0,0.0,0.0,0.0,0.0,0.0,0.0,0.0,0.0,0.0,0.0,0.0,0.0,0.0,0.0,0.0,0.0,0.0,0.0,0.0,0.0,0.0,0.0,0.0,0.0,0.0,0.0,0.0,0.0,0.0,0.0,0.0,0.0,0.0,0.0,0.0,0.0,0.0,0.0,0.0,0.0,0.0,0.0,0.0,0.0,0.0,0.0,0.0,0.0,0.0,0.0,0.0,0.0,0.0,0.0,0.0,0.0,0.0,0.0,0.0,0.0,0.0,0.0,0.0,0.0,0.0,0.0,0.0,0.0,0.0,2.2364,2.2062,2.1193,1.981,1.976,1.9777,0.0,0.0,0.0,0.0,0.0,0.0,0.0,0.0,0.0,0.0,0.0,0.0,0.0,0.0,0.0,0.0,0.0,0.0,0.0,0.0,0.0,0.0,0.0,0.0,0.0,0.0,0.0,0.0,0.0,0.0,0.0,0.0,0.0,0.0,0.0,0.0,0.0,0.0,0.0,0.0,0.0,0.0,0.0,0.0,0.0,0.0,0.0,0.0,0.0,0.0,0.0,0.0,0.0,0.0,0.0,0.0,0.0,0.0,0.0,0.0,0.0,0.0,0.0,0.0,0.0,0.0,0.0,0.0,0.0,0.0,0.0,0.0,0.0,0.0,0.0,0.0,0.0,0.0,0.0,0.0,0.0,0.0,0.0,0.0,0.0,0.0,0.0,0.0,0.0,0.0,0.0,0.0,0.0,0.0,0.0,0.0,0.0,0.0,0.0,0.0,0.0,0.0,0.0,0.0,0.0,0.0,0.0,0.0,0.0,2.0236,1.9963,1.944,1.858,1.856,1.8692,1.9006,0.0,0.0,0.0,0.0,0.0,0.0,0.0,0.0,0.0,0.0,0.0,0.0,0.0,0.0,0.0,0.0,0.0,0.0,0.0,0.0,0.0,0.0,0.0,0.0,0.0,0.0,0.0,0.0,0.0,0.0,0.0,0.0,0.0,0.0,0.0,0.0,0.0,0.0,0.0,0.0,0.0,0.0,0.0,0.0,0.0,0.0,0.0,0.0,0.0,0.0,0.0,0.0,0.0,0.0,0.0,0.0,0.0,0.0,0.0,0.0,0.0,0.0,0.0,0.0,0.0,0.0,0.0,0.0,0.0,0.0,0.0,0.0,0.0,0.0,0.0,0.0,0.0,0.0,0.0,0.0,0.0,0.0,0.0,0.0,0.0,0.0,0.0,0.0,0.0,0.0,0.0,0.0,0.0,0.0,0.0,0.0,0.0,0.0,0.0,0.0,0.0,0.0,0.0,0.0,0.0,0.0,0.0,0.0,1.8611,1.8556,1.8374,1.789,1.7709,1.7936,0.0,0.0,0.0,0.0,0.0,0.0,0.0,0.0,0.0,0.0,0.0,0.0,0.0,0.0,0.0,0.0,0.0,0.0,0.0,0.0,0.0,0.0,0.0,0.0,0.0,0.0,0.0,0.0,0.0,0.0,0.0,0.0,0.0,0.0,0.0,0.0,0.0,0.0,0.0,0.0,0.0,0.0,0.0,0.0,0.0,0.0,0.0,0.0,0.0,0.0,0.0,0.0,0.0,0.0,0.0,0.0,0.0,0.0,0.0,0.0,0.0,0.0,0.0,0.0,0.0,0.0,0.0,0.0,0.0,0.0,0.0,0.0,0.0,0.0,0.0,0.0,0.0,0.0,0.0,0.0,0.0,0.0,0.0,0.0,0.0,0.0,0.0,0.0,0.0,0.0,0.0,0.0,0.0,0.0,0.0,0.0,0.0,0.0,0.0,0.0,0.0,0.0,0.0,0.0,0.0,0.0,0.0,0.0,1.6956,1.784,1.7865,1.7879,1.7865,1.7374,1.7601,0.0,0.0,0.0,0.0,0.0,0.0,0.0,0.0,0.0,0.0,0.0,0.0,0.0,0.0,0.0,0.0,0.0,0.0,0.0,0.0,0.0,0.0,0.0,0.0,0.0,0.0,0.0,0.0,0.0,0.0,0.0,0.0,0.0,0.0,0.0,0.0,0.0,0.0,0.0,0.0,0.0,0.0,0.0,0.0,0.0,0.0,0.0,0.0,0.0,0.0,0.0,0.0,0.0,0.0,0.0,0.0,0.0,0.0,0.0,0.0,0.0,0.0,0.0,0.0,0.0,0.0,0.0,0.0,0.0,0.0,0.0,0.0,0.0,0.0,0.0,0.0,0.0,0.0,0.0,0.0,0.0,0.0,0.0,0.0,0.0,0.0,0.0,0.0,0.0,0.0,0.0,0.0,0.0,0.0,0.0,0.0,0.0,0.0,0.0,0.0,0.0,0.0,0.0,0.0,0.0,0.0,0.0,0.0,0.0,1.6194,0.0,1.701,1.7335,1.7179,1.7268,0.0,0.0,0.0,0.0,0.0,0.0,0.0,0.0,0.0,0.0,0.0,0.0,0.0,0.0,0.0,0.0,0.0,0.0,0.0,0.0,0.0,0.0,0.0,0.0,0.0,0.0,0.0,0.0,0.0,0.0,0.0,0.0,0.0,0.0,0.0,0.0,0.0,0.0,0.0,0.0,0.0,0.0,0.0,0.0,0.0,0.0,0.0,0.0,0.0,0.0,0.0,0.0,0.0,0.0,0.0,0.0,0.0,0.0,0.0,0.0,0.0,0.0,0.0,0.0,0.0,0.0,0.0,0.0,0.0,0.0,0.0,0.0,0.0,0.0,0.0,0.0,0.0,0.0,0.0,0.0,0.0,0.0,0.0,0.0,0.0,0.0,0.0,0.0,0.0,0.0,0.0,0.0,0.0,0.0,0.0,0.0,0.0,0.0,0.0,0.0,0.0,0.0,0.0,0.0,0.0,0.0,0.0,0.0,0.0,1.5102,1.5881,1.6568,1.7063,1.7089,1.7089,0.0,0.0,0.0,0.0,0.0,0.0,0.0,0.0,0.0,0.0,0.0,0.0,0.0,0.0,0.0,0.0,0.0,0.0,0.0,0.0,0.0,0.0,0.0,0.0,0.0,0.0,0.0,0.0,0.0,0.0,0.0,0.0,0.0,0.0,0.0,0.0,0.0,0.0,0.0,0.0,0.0,0.0,0.0,0.0,0.0,0.0,0.0,0.0,0.0,0.0,0.0,0.0,0.0,0.0,0.0,0.0,0.0,0.0,0.0,0.0,0.0,0.0,0.0,0.0,0.0,0.0,0.0,0.0,0.0,0.0,0.0,0.0,0.0,0.0,0.0,0.0,0.0,0.0,0.0,0.0,0.0,0.0,0.0,0.0,0.0,0.0,0.0,0.0,0.0,0.0,0.0,0.0,0.0,0.0,0.0,0.0,0.0,0.0,0.0,0.0,0.0,0.0,0.0,0.0,0.0,0.0,0.0,0.0,0.0,1.4569,1.5642,1.6514,1.6972,1.7076,1.7089,0.0,0.0,0.0,0.0,0.0,0.0,0.0,0.0,0.0,0.0,0.0,0.0,0.0,0.0,0.0,0.0,0.0,0.0,0.0,0.0,0.0,0.0,0.0,0.0,0.0,0.0,0.0,0.0,0.0,0.0,0.0,0.0,0.0,0.0,0.0,0.0,0.0,0.0,0.0,0.0,0.0,0.0,0.0,0.0,0.0,0.0,0.0,0.0,0.0,0.0,0.0,0.0,0.0,0.0,0.0,0.0,0.0,0.0,0.0,0.0,0.0,0.0,0.0,0.0,0.0,0.0,0.0,0.0,0.0,0.0,0.0,0.0,0.0,0.0,0.0,0.0,0.0,0.0,0.0,0.0,0.0,0.0,0.0,0.0,0.0,0.0,0.0,0.0,0.0,0.0,0.0,0.0,0.0,0.0,0.0,0.0,0.0,0.0,0.0,0.0,0.0,0.0,0.0,0.0,0.0,0.0,0.0,0.0,0.0,0.0,1.4665,1.5329,1.5833,1.6636,1.7089,1.7089,0.0,0.0,0.0,0.0,0.0,0.0,0.0,0.0,0.0,0.0,0.0,0.0,0.0,0.0,0.0,0.0,0.0,0.0,0.0,0.0,0.0,0.0,0.0,0.0,0.0,0.0,0.0,0.0,0.0,0.0,0.0,0.0,0.0,0.0,0.0,0.0,0.0,0.0,0.0,0.0,0.0,0.0,0.0,0.0,0.0,0.0,0.0,0.0,0.0,0.0,0.0,0.0,0.0,0.0,0.0,0.0,0.0,0.0,0.0,0.0,0.0,0.0,0.0,0.0,0.0,0.0,0.0,0.0,0.0,0.0,0.0,0.0,0.0,0.0,0.0,0.0,0.0,0.0,0.0,0.0,0.0,0.0,0.0,0.0,0.0,0.0,0.0,0.0,0.0,0.0,0.0,0.0,0.0,0.0,0.0,0.0,0.0,0.0,0.0,0.0,0.0,0.0,0.0,0.0,0.0,0.0,0.0,0.0,0.0,0.0,1.4812,1.5354,1.6296,1.6881,0.0,0.0,0.0,0.0,0.0,0.0,0.0,0.0,0.0,0.0,0.0,0.0,0.0,0.0,0.0,0.0,0.0,0.0,0.0,0.0,0.0,0.0,0.0,0.0,0.0,0.0,0.0,0.0,0.0,0.0,0.0,0.0,0.0,0.0,0.0,0.0,0.0,0.0,0.0,0.0,0.0,0.0,0.0,0.0,0.0,0.0,0.0,0.0,0.0,0.0,0.0,0.0,0.0,0.0,0.0,0.0,0.0,0.0,0.0,0.0,0.0,0.0,0.0,0.0,0.0,0.0,0.0,0.0,0.0,0.0,0.0,0.0,0.0,0.0,0.0,0.0,0.0,0.0,0.0,0.0,0.0,0.0,0.0,0.0,0.0,0.0,0.0,0.0,0.0,0.0,0.0,0.0,0.0,0.0,0.0,0.0,0.0,0.0,0.0,0.0,0.0,0.0,0.0,0.0,0.0,0.0,0.0,0.0,0.0,0.0,0.0,1.4773,1.5331,1.5933,0.0,1.7037,0.0,0.0,0.0,0.0,0.0,0.0,0.0,0.0,0.0,0.0,0.0,0.0,0.0,0.0,0.0,0.0,0.0,0.0,0.0,0.0,0.0,0.0,0.0,0.0,0.0,0.0,0.0,0.0,0.0,0.0,0.0,0.0,0.0,0.0,0.0,0.0,0.0,0.0,0.0,0.0,0.0,0.0,0.0,0.0,0.0,0.0,0.0,0.0,0.0,0.0,0.0,0.0,0.0,0.0,0.0,0.0,0.0,0.0,0.0,0.0,0.0,0.0,0.0,0.0,0.0,0.0,0.0,0.0,0.0,0.0,0.0,0.0,0.0,0.0,0.0,0.0,0.0,0.0,0.0,0.0,0.0,0.0,0.0,0.0,0.0,0.0,0.0,0.0,0.0,0.0,0.0,0.0,0.0,0.0,0.0,0.0,0.0,0.0,0.0,0.0,0.0,0.0,0.0,0.0,0.0,0.0,0.0,0.0,0.0,0.0,0.0,0.0,1.552,1.6051,1.7037,0.0,0.0,0.0,0.0,0.0,0.0,0.0,0.0,0.0,0.0,0.0,0.0,0.0,0.0,0.0,0.0,0.0,0.0,0.0,0.0,0.0,0.0,0.0,0.0,0.0,0.0,0.0,0.0,0.0,0.0,0.0,0.0,0.0,0.0,0.0,0.0,0.0,0.0,0.0,0.0,0.0,0.0,0.0,0.0,0.0,0.0,0.0,0.0,0.0,0.0,0.0,0.0,0.0,0.0,0.0,0.0,0.0,0.0,0.0,0.0,0.0,0.0,0.0,0.0,0.0,0.0,0.0,0.0,0.0,0.0,0.0,0.0,0.0,0.0,0.0,0.0,0.0,0.0,0.0,0.0,0.0,0.0,0.0,0.0,0.0,0.0,0.0,0.0,0.0,0.0,0.0,0.0,0.0,0.0,0.0,0.0,0.0,0.0,0.0,0.0,0.0,0.0,0.0,0.0,0.0,0.0,0.0,0.0,0.0,0.0,1.4457,1.5318,1.5626,1.6218,1.7075,0.0,0.0,0.0,0.0,0.0,0.0,0.0,0.0,0.0,0.0,0.0,0.0,0.0,0.0,0.0,0.0,0.0,0.0,0.0,0.0,0.0,0.0,0.0,0.0,0.0,0.0,0.0,0.0,0.0,0.0,0.0,0.0,0.0,0.0,0.0,0.0,0.0,0.0,0.0,0.0,0.0,0.0,0.0,0.0,0.0,0.0,0.0,0.0,0.0,0.0,0.0,0.0,0.0,0.0,0.0,0.0,0.0,0.0,0.0,0.0,0.0,0.0,0.0,0.0,0.0,0.0,0.0,0.0,0.0,0.0,0.0,0.0,0.0,0.0,0.0,0.0,0.0,0.0,0.0,0.0,0.0,0.0,0.0,0.0,0.0,0.0,0.0,0.0,0.0,0.0,0.0,0.0,0.0,0.0,0.0,0.0,0.0,0.0,0.0,0.0,0.0,0.0,0.0,0.0,0.0,0.0,0.0,0.0,0.0,0.0,0.0,0.0,0.0,0.0,1.7088,0.0,0.0,0.0,0.0,0.0,0.0,0.0,0.0,0.0,0.0,0.0,0.0,0.0,0.0,0.0,0.0,0.0,0.0,0.0,0.0,0.0,0.0,0.0,0.0,0.0,0.0,0.0,0.0,0.0,0.0,0.0,0.0,0.0,0.0,0.0,0.0,0.0,0.0,0.0,0.0,0.0,0.0,0.0,0.0,0.0,0.0,0.0,0.0,0.0,0.0,0.0,0.0,0.0,0.0,0.0,0.0,0.0,0.0,0.0,0.0,0.0,0.0,0.0,0.0,0.0,0.0,0.0,0.0,0.0,0.0,0.0,0.0,0.0,0.0,0.0,0.0,0.0,0.0,0.0,0.0,0.0,0.0,0.0,0.0,0.0,0.0,0.0,0.0,0.0,0.0,0.0,0.0,0.0,0.0,0.0,0.0,0.0,0.0,0.0,0.0,0.0,0.0,0.0,0.0,0.0,0.0,0.0,0.0,0.0,0.0,0.0,0.0,0.0,0.0,0.0,0.0,0.0,0.0,0.0,0.0,0.0,0.0,0.0,0.0,0.0,0.0,0.0,0.0,0.0,0.0,0.0,0.0,0.0,0.0,0.0,0.0,0.0,0.0,0.0,0.0,0.0,0.0,0.0,0.0,0.0,0.0,0.0,0.0,0.0,0.0,0.0,0.0,0.0,0.0,0.0,0.0,0.0,0.0,0.0,0.0,0.0,0.0,0.0,0.0,0.0,0.0,0.0,0.0,0.0,0.0,0.0,0.0,0.0,0.0,0.0,0.0,0.0,0.0,0.0,0.0,0.0,0.0,0.0,0.0,0.0,0.0,0.0,0.0,0.0,0.0,0.0,0.0,0.0,0.0,0.0,0.0,0.0,0.0,0.0,0.0,0.0,0.0,0.0,0.0,0.0,0.0,0.0,0.0,0.0,0.0,0.0,0.0,0.0,0.0,0.0,0.0,0.0,0.0,0.0,0.0,0.0,0.0,0.0,0.0,0.0,0.0,0.0,0.0,0.0,0.0,0.0,0.0,0.0,0.0,0.0,0.0,0.0,0.0,0.0,0.0,0.0,0.0,0.0,0.0,0.0,0.0,0.0,0.0,0.0,0.0,0.0,0.0,0.0,0.0,0.0,0.0,0.0,0.0,0.0,0.0,0.0,0.0,0.0,0.0,0.0,0.0,0.0,0.0,0.0,0.0,0.0,0.0,0.0,0.0,0.0,0.0,0.0,0.0,0.0,0.0,0.0,0.0,0.0,0.0,0.0,0.0,0.0,0.0,0.0,0.0,0.0,0.0,0.0,0.0,0.0,0.0,0.0,0.0,0.0,0.0,0.0,0.0,0.0,0.0,0.0,0.0,0.0,0.0,0.0,0.0,0.0,0.0,0.0,0.0,0.0,0.0,0.0,0.0,0.0,0.0,0.0,0.0,0.0,0.0,0.0,0.0,0.0,0.0,0.0,0.0,0.0,0.0,0.0,0.0,0.0,0.0,0.0,0.0,0.0,0.0,0.0,0.0,0.0,0.0,0.0,0.0,0.0,0.0,0.0,0.0,0.0,0.0,0.0,0.0,0.0,0.0,0.0,0.0,0.0,0.0,0.0,0.0,0.0,0.0,0.0,0.0,0.0,0.0,0.0,0.0,0.0,0.0,0.0,0.0,0.0,0.0,0.0,0.0,0.0,0.0,0.0,0.0,0.0,0.0,0.0,0.0,0.0,0.0,0.0,0.0,0.0,0.0,0.0,0.0,0.0,0.0,0.0,0.0,0.0,0.0,0.0,0.0,0.0,0.0,0.0,0.0,0.0,0.0,0.0,0.0,0.0,0.0,0.0,0.0,0.0,0.0,0.0,0.0,0.0,0.0,0.0,0.0,0.0,0.0,0.0,0.0,0.0,0.0,0.0,0.0,0.0,0.0,0.0,0.0,0.0,0.0,0.0,0.0,0.0,0.0,0.0,0.0,0.0,0.0,0.0,0.0,0.0,0.0,0.0,0.0,0.0,0.0,0.0,0.0,0.0,0.0,0.0,0.0,0.0,0.0,0.0,0.0,0.0,0.0,0.0,0.0,0.0,0.0,0.0,0.0,0.0,0.0,0.0,0.0,0.0,0.0,0.0,0.0,0.0,0.0,0.0,0.0,0.0,0.0,0.0,0.0,0.0,0.0,0.0,0.0,0.0,0.0,0.0,0.0,0.0,0.0,0.0,0.0,0.0,0.0,0.0,0.0,0.0,0.0,0.0,0.0,0.0,0.0,0.0,0.0,0.0,0.0,0.0,0.0,0.0,0.0,0.0,0.0,0.0,0.0,0.0,0.0,0.0,0.0,0.0,0.0,0.0,0.0,0.0,0.0,0.0,0.0,0.0,0.0,0.0,0.0,0.0,0.0,0.0,0.0,0.0,0.0,0.0,0.0,0.0,0.0,0.0,0.0,0.0,0.0,0.0,0.0,0.0,0.0,0.0,0.0,0.0,0.0,0.0,0.0,0.0,0.0,0.0,0.0,0.0,0.0,0.0,0.0,0.0,0.0,0.0,0.0,0.0,0.0,0.0,0.0,0.0,0.0,0.0,0.0,0.0,0.0,0.0,0.0,0.0,0.0,0.0,0.0,0.0,0.0,0.0,0.0,0.0,0.0,0.0,0.0,0.0,0.0,0.0,0.0,0.0,0.0,0.0,0.0,0.0,0.0,0.0,0.0,0.0,0.0,0.0,0.0,0.0,0.0,0.0,0.0,0.0,0.0,0.0,0.0,0.0,0.0,0.0,0.0,0.0,0.0,0.0,0.0,0.0,0.0,0.0,0.0,0.0,0.0,0.0,0.0,0.0,0.0,0.0,0.0,0.0,0.0,0.0,0.0,0.0,0.0,0.0,0.0,0.0,0.0,0.0,0.0,0.0,0.0,0.0,0.0,0.0,0.0,0.0,0.0,0.0,0.0,0.0,0.0,0.0,0.0,0.0,0.0,0.0,0.0,0.0,0.0,0.0,0.0,0.0,0.0,0.0,0.0,0.0,0.0,0.0,0.0,0.0,0.0,0.0,0.0,0.0,0.0,0.0,0.0,0.0,0.0,0.0,0.0,0.0,0.0,0.0,0.0,0.0,0.0,0.0,0.0,0.0,0.0,0.0,0.0,0.0,0.0,0.0,0.0,0.0,0.0,0.0,0.0,0.0,0.0,0.0,0.0,0.0,0.0,0.0,0.0,0.0,0.0,0.0,0.0,0.0,0.0,0.0,0.0,0.0,0.0,0.0,0.0,0.0,0.0,0.0,0.0,0.0,0.0,0.0,0.0,0.0,0.0,0.0,0.0,0.0,0.0,0.0,0.0,0.0,0.0,0.0,0.0,0.0,0.0,0.0,0.0,0.0,0.0,0.0,0.0,0.0,0.0,0.0,0.0,0.0,0.0,0.0,0.0,0.0,0.0,0.0,0.0,0.0,0.0,0.0,0.0,0.0,0.0,0.0,0.0,0.0,0.0,0.0,0.0,0.0,0.0,0.0,0.0,0.0,0.0,0.0,0.0,0.0,0.0,0.0,0.0,0.0,0.0,0.0,0.0,0.0,0.0,0.0,0.0,0.0,0.0,0.0,0.0,0.0,0.0,0.0,0.0,0.0,0.0,0.0,0.0,0.0,0.0,0.0,0.0,0.0,0.0,0.0,0.0,0.0,0.0,0.0,0.0,0.0,0.0,0.0,0.0,0.0,0.0,0.0,0.0,0.0,0.0,0.0,0.0,0.0,0.0,0.0,0.0,0.0,0.0,0.0,0.0,0.0,0.0,0.0,0.0,0.0,0.0,0.0,0.0,0.0,0.0,0.0,0.0,0.0,0.0,0.0,0.0,0.0,0.0,0.0,0.0,0.0,0.0,0.0,0.0,0.0,0.0,0.0,0.0,0.0,0.0,0.0,0.0,0.0,0.0,0.0,0.0,0.0,0.0,0.0,0.0,0.0,0.0,0.0,0.0,0.0,0.0,0.0,0.0,0.0,0.0,0.0,0.0,0.0,0.0,0.0,0.0,0.0,0.0,0.0,0.0,0.0,0.0,0.0,0.0,0.0,0.0,0.0,0.0,0.0,0.0,0.0,0.0,0.0,0.0,0.0,0.0,0.0,0.0,0.0,0.0,0.0,0.0,0.0,0.0,0.0,0.0,0.0,0.0,0.0,0.0,0.0,0.0,0.0,0.0,0.0,0.0,0.0,0.0,0.0,0.0,0.0,0.0,0.0,0.0,0.0,0.0,0.0,0.0,0.0,0.0,0.0,0.0,0.0,0.0,0.0,0.0,0.0,0.0,0.0,0.0,0.0,0.0,0.0,0.0,0.0,0.0,0.0,0.0,0.0,0.0,0.0,0.0,0.0,0.0,0.0,0.0,0.0,0.0]}]]]